﻿<?xml version="1.0" encoding="utf-8"?><gpx creator="Garmin Desktop App" version="1.1" xsi:schemaLocation="http://www.topografix.com/GPX/1/1 http://www.topografix.com/GPX/1/1/gpx.xsd http://www.garmin.com/xmlschemas/WaypointExtension/v1 http://www8.garmin.com/xmlschemas/WaypointExtensionv1.xsd http://www.garmin.com/xmlschemas/TrackPointExtension/v1 http://www.garmin.com/xmlschemas/TrackPointExtensionv1.xsd http://www.garmin.com/xmlschemas/GpxExtensions/v3 http://www8.garmin.com/xmlschemas/GpxExtensionsv3.xsd http://www.garmin.com/xmlschemas/ActivityExtension/v1 http://www8.garmin.com/xmlschemas/ActivityExtensionv1.xsd http://www.garmin.com/xmlschemas/AdventuresExtensions/v1 http://www8.garmin.com/xmlschemas/AdventuresExtensionv1.xsd http://www.garmin.com/xmlschemas/PressureExtension/v1 http://www.garmin.com/xmlschemas/PressureExtensionv1.xsd http://www.garmin.com/xmlschemas/TripExtensions/v1 http://www.garmin.com/xmlschemas/TripExtensionsv1.xsd http://www.garmin.com/xmlschemas/TripMetaDataExtensions/v1 http://www.garmin.com/xmlschemas/TripMetaDataExtensionsv1.xsd http://www.garmin.com/xmlschemas/ViaPointTransportationModeExtensions/v1 http://www.garmin.com/xmlschemas/ViaPointTransportationModeExtensionsv1.xsd http://www.garmin.com/xmlschemas/CreationTimeExtension/v1 http://www.garmin.com/xmlschemas/CreationTimeExtensionsv1.xsd http://www.garmin.com/xmlschemas/AccelerationExtension/v1 http://www.garmin.com/xmlschemas/AccelerationExtensionv1.xsd http://www.garmin.com/xmlschemas/PowerExtension/v1 http://www.garmin.com/xmlschemas/PowerExtensionv1.xsd http://www.garmin.com/xmlschemas/VideoExtension/v1 http://www.garmin.com/xmlschemas/VideoExtensionv1.xsd" xmlns="http://www.topografix.com/GPX/1/1" xmlns:xsi="http://www.w3.org/2001/XMLSchema-instance" xmlns:wptx1="http://www.garmin.com/xmlschemas/WaypointExtension/v1" xmlns:gpxtrx="http://www.garmin.com/xmlschemas/GpxExtensions/v3" xmlns:gpxtpx="http://www.garmin.com/xmlschemas/TrackPointExtension/v1" xmlns:gpxx="http://www.garmin.com/xmlschemas/GpxExtensions/v3" xmlns:trp="http://www.garmin.com/xmlschemas/TripExtensions/v1" xmlns:adv="http://www.garmin.com/xmlschemas/AdventuresExtensions/v1" xmlns:prs="http://www.garmin.com/xmlschemas/PressureExtension/v1" xmlns:tmd="http://www.garmin.com/xmlschemas/TripMetaDataExtensions/v1" xmlns:vptm="http://www.garmin.com/xmlschemas/ViaPointTransportationModeExtensions/v1" xmlns:ctx="http://www.garmin.com/xmlschemas/CreationTimeExtension/v1" xmlns:gpxacc="http://www.garmin.com/xmlschemas/AccelerationExtension/v1" xmlns:gpxpx="http://www.garmin.com/xmlschemas/PowerExtension/v1" xmlns:vidx1="http://www.garmin.com/xmlschemas/VideoExtension/v1">

  <metadata>
    <link href="http://www.garmin.com">
      <text>Garmin International</text>
    </link>
    <time>2014-09-30T20:34:10Z</time>
    <bounds maxlat="47.572748232632875" maxlon="11.359403114765882" minlat="47.526540225371718" minlon="11.283976379781961" />
  </metadata>

  <trk>
    <name>VOGELWILD     PM</name>
    <extensions>
      <gpxx:TrackExtension>
        <gpxx:DisplayColor>Black</gpxx:DisplayColor>
      </gpxx:TrackExtension>
    </extensions>
    <trkseg>
      <trkpt lat="47.572476575151086" lon="11.303942995145917">
        <ele>798.50999999999999</ele>
        <time>2014-09-30T08:44:06Z</time>
      </trkpt>
      <trkpt lat="47.572476658970118" lon="11.30394265986979">
        <ele>803.79999999999995</ele>
        <time>2014-09-30T08:44:07Z</time>
      </trkpt>
      <trkpt lat="47.572476658970118" lon="11.30394265986979">
        <ele>803.79999999999995</ele>
        <time>2014-09-30T08:44:08Z</time>
      </trkpt>
      <trkpt lat="47.572476658970118" lon="11.30394265986979">
        <ele>805.24000000000001</ele>
        <time>2014-09-30T08:44:15Z</time>
      </trkpt>
      <trkpt lat="47.572476658970118" lon="11.30394265986979">
        <ele>808.13</ele>
        <time>2014-09-30T08:44:21Z</time>
      </trkpt>
      <trkpt lat="47.572476658970118" lon="11.30394265986979">
        <ele>806.67999999999995</ele>
        <time>2014-09-30T08:44:24Z</time>
      </trkpt>
      <trkpt lat="47.572476658970118" lon="11.30394265986979">
        <ele>809.57000000000005</ele>
        <time>2014-09-30T08:44:27Z</time>
      </trkpt>
      <trkpt lat="47.572478502988815" lon="11.303934864699841">
        <ele>811.97000000000003</ele>
        <time>2014-09-30T08:44:43Z</time>
      </trkpt>
      <trkpt lat="47.572519658133388" lon="11.303918184712529">
        <ele>812.45000000000005</ele>
        <time>2014-09-30T08:44:47Z</time>
      </trkpt>
      <trkpt lat="47.572666425257921" lon="11.303829085081816">
        <ele>812.45000000000005</ele>
        <time>2014-09-30T08:44:56Z</time>
      </trkpt>
      <trkpt lat="47.572695929557085" lon="11.303964033722878">
        <ele>811.97000000000003</ele>
        <time>2014-09-30T08:44:58Z</time>
      </trkpt>
      <trkpt lat="47.572709675878286" lon="11.304155392572284">
        <ele>810.52999999999997</ele>
        <time>2014-09-30T08:45:00Z</time>
      </trkpt>
      <trkpt lat="47.57240935228765" lon="11.30479727871716">
        <ele>808.13</ele>
        <time>2014-09-30T08:45:08Z</time>
      </trkpt>
      <trkpt lat="47.572159403935075" lon="11.3049057405442">
        <ele>806.67999999999995</ele>
        <time>2014-09-30T08:45:11Z</time>
      </trkpt>
      <trkpt lat="47.571362955495715" lon="11.304785627871752">
        <ele>801.39999999999998</ele>
        <time>2014-09-30T08:45:20Z</time>
      </trkpt>
      <trkpt lat="47.570494087412953" lon="11.304172575473785">
        <ele>801.88</ele>
        <time>2014-09-30T08:45:32Z</time>
      </trkpt>
      <trkpt lat="47.569990670308471" lon="11.303163059055805">
        <ele>802.36000000000001</ele>
        <time>2014-09-30T08:45:45Z</time>
      </trkpt>
      <trkpt lat="47.569856811314821" lon="11.302036950364709">
        <ele>802.84000000000003</ele>
        <time>2014-09-30T08:45:58Z</time>
      </trkpt>
      <trkpt lat="47.569804927334189" lon="11.301339324563742">
        <ele>802.84000000000003</ele>
        <time>2014-09-30T08:46:08Z</time>
      </trkpt>
      <trkpt lat="47.569693950936198" lon="11.301277801394463">
        <ele>802.84000000000003</ele>
        <time>2014-09-30T08:46:12Z</time>
      </trkpt>
      <trkpt lat="47.569429753348231" lon="11.301009077578783">
        <ele>803.79999999999995</ele>
        <time>2014-09-30T08:46:23Z</time>
      </trkpt>
      <trkpt lat="47.569178799167275" lon="11.300807408988476">
        <ele>805.24000000000001</ele>
        <time>2014-09-30T08:46:34Z</time>
      </trkpt>
      <trkpt lat="47.56908324547112" lon="11.300676986575127">
        <ele>806.67999999999995</ele>
        <time>2014-09-30T08:46:40Z</time>
      </trkpt>
      <trkpt lat="47.569020045921206" lon="11.300547234714031">
        <ele>808.13</ele>
        <time>2014-09-30T08:46:49Z</time>
      </trkpt>
      <trkpt lat="47.568985093384981" lon="11.300314385443926">
        <ele>810.52999999999997</ele>
        <time>2014-09-30T08:47:02Z</time>
      </trkpt>
      <trkpt lat="47.569034798070788" lon="11.300147250294685">
        <ele>812.92999999999995</ele>
        <time>2014-09-30T08:47:13Z</time>
      </trkpt>
      <trkpt lat="47.56904368288815" lon="11.299960669130087">
        <ele>814.37</ele>
        <time>2014-09-30T08:47:21Z</time>
      </trkpt>
      <trkpt lat="47.569044940173626" lon="11.299887578934431">
        <ele>815.34000000000003</ele>
        <time>2014-09-30T08:47:25Z</time>
      </trkpt>
      <trkpt lat="47.569029936566949" lon="11.299827983602881">
        <ele>815.82000000000005</ele>
        <time>2014-09-30T08:47:28Z</time>
      </trkpt>
      <trkpt lat="47.569004790857434" lon="11.299543920904398">
        <ele>817.74000000000001</ele>
        <time>2014-09-30T08:47:41Z</time>
      </trkpt>
      <trkpt lat="47.568998672068119" lon="11.299396483227611">
        <ele>818.22000000000003</ele>
        <time>2014-09-30T08:47:57Z</time>
      </trkpt>
      <trkpt lat="47.568998420611024" lon="11.299396650865674">
        <ele>817.74000000000001</ele>
        <time>2014-09-30T08:48:27Z</time>
      </trkpt>
      <trkpt lat="47.568989032879472" lon="11.299383156001568">
        <ele>817.74000000000001</ele>
        <time>2014-09-30T08:49:01Z</time>
      </trkpt>
      <trkpt lat="47.568970173597336" lon="11.299358513206244">
        <ele>818.70000000000005</ele>
        <time>2014-09-30T08:49:27Z</time>
      </trkpt>
      <trkpt lat="47.568956594914198" lon="11.299336887896061">
        <ele>818.22000000000003</ele>
        <time>2014-09-30T08:49:38Z</time>
      </trkpt>
      <trkpt lat="47.568949135020375" lon="11.299264468252659">
        <ele>819.17999999999995</ele>
        <time>2014-09-30T08:49:42Z</time>
      </trkpt>
      <trkpt lat="47.568851318210363" lon="11.299092723056674">
        <ele>821.10000000000002</ele>
        <time>2014-09-30T08:49:52Z</time>
      </trkpt>
      <trkpt lat="47.568806894123554" lon="11.299001611769199">
        <ele>823.02999999999997</ele>
        <time>2014-09-30T08:50:00Z</time>
      </trkpt>
      <trkpt lat="47.568737491965294" lon="11.298983590677381">
        <ele>823.50999999999999</ele>
        <time>2014-09-30T08:50:04Z</time>
      </trkpt>
      <trkpt lat="47.568689463660121" lon="11.298971436917782">
        <ele>823.50999999999999</ele>
        <time>2014-09-30T08:50:07Z</time>
      </trkpt>
      <trkpt lat="47.56864151917398" lon="11.298967162147164">
        <ele>825.42999999999995</ele>
        <time>2014-09-30T08:50:14Z</time>
      </trkpt>
      <trkpt lat="47.568570775911212" lon="11.298918379470706">
        <ele>825.42999999999995</ele>
        <time>2014-09-30T08:50:17Z</time>
      </trkpt>
      <trkpt lat="47.56850422360003" lon="11.298823244869709">
        <ele>826.38999999999999</ele>
        <time>2014-09-30T08:50:24Z</time>
      </trkpt>
      <trkpt lat="47.568466337397695" lon="11.298811677843332">
        <ele>827.35000000000002</ele>
        <time>2014-09-30T08:50:27Z</time>
      </trkpt>
      <trkpt lat="47.568360306322575" lon="11.298846881836653">
        <ele>827.83000000000004</ele>
        <time>2014-09-30T08:50:33Z</time>
      </trkpt>
      <trkpt lat="47.568304650485516" lon="11.298846881836653">
        <ele>829.75999999999999</ele>
        <time>2014-09-30T08:50:40Z</time>
      </trkpt>
      <trkpt lat="47.568258969113231" lon="11.298802709206939">
        <ele>829.26999999999998</ele>
        <time>2014-09-30T08:50:43Z</time>
      </trkpt>
      <trkpt lat="47.56820959970355" lon="11.298788292333484">
        <ele>830.24000000000001</ele>
        <time>2014-09-30T08:50:58Z</time>
      </trkpt>
      <trkpt lat="47.56820959970355" lon="11.298788292333484">
        <ele>830.24000000000001</ele>
        <time>2014-09-30T08:50:59Z</time>
      </trkpt>
      <trkpt lat="47.568155117332935" lon="11.298804637044668">
        <ele>830.72000000000003</ele>
        <time>2014-09-30T08:51:02Z</time>
      </trkpt>
      <trkpt lat="47.568088565021753" lon="11.29876465536654">
        <ele>832.15999999999997</ele>
        <time>2014-09-30T08:51:09Z</time>
      </trkpt>
      <trkpt lat="47.568062916398048" lon="11.298702880740166">
        <ele>832.15999999999997</ele>
        <time>2014-09-30T08:51:14Z</time>
      </trkpt>
      <trkpt lat="47.567970883101225" lon="11.298598777502775">
        <ele>834.08000000000004</ele>
        <time>2014-09-30T08:51:23Z</time>
      </trkpt>
      <trkpt lat="47.567953616380692" lon="11.298552006483078">
        <ele>834.08000000000004</ele>
        <time>2014-09-30T08:51:26Z</time>
      </trkpt>
      <trkpt lat="47.56790567189455" lon="11.298513952642679">
        <ele>835.03999999999996</ele>
        <time>2014-09-30T08:51:29Z</time>
      </trkpt>
      <trkpt lat="47.567829061299562" lon="11.298519065603614">
        <ele>835.51999999999998</ele>
        <time>2014-09-30T08:51:33Z</time>
      </trkpt>
      <trkpt lat="47.567732837051153" lon="11.298482352867723">
        <ele>836.48000000000002</ele>
        <time>2014-09-30T08:51:38Z</time>
      </trkpt>
      <trkpt lat="47.567635606974363" lon="11.298483777791262">
        <ele>836</ele>
        <time>2014-09-30T08:51:42Z</time>
      </trkpt>
      <trkpt lat="47.567551033571362" lon="11.298446478322148">
        <ele>837.92999999999995</ele>
        <time>2014-09-30T08:51:51Z</time>
      </trkpt>
      <trkpt lat="47.56744148209691" lon="11.298439521342516">
        <ele>838.40999999999997</ele>
        <time>2014-09-30T08:51:59Z</time>
      </trkpt>
      <trkpt lat="47.567346766591072" lon="11.298485035076737">
        <ele>839.85000000000002</ele>
        <time>2014-09-30T08:52:05Z</time>
      </trkpt>
      <trkpt lat="47.567149288952351" lon="11.298539685085416">
        <ele>840.33000000000004</ele>
        <time>2014-09-30T08:52:15Z</time>
      </trkpt>
      <trkpt lat="47.567102685570717" lon="11.298516048118472">
        <ele>841.76999999999998</ele>
        <time>2014-09-30T08:52:21Z</time>
      </trkpt>
      <trkpt lat="47.567055327817798" lon="11.298505906015635">
        <ele>842.25</ele>
        <time>2014-09-30T08:52:25Z</time>
      </trkpt>
      <trkpt lat="47.566991709172726" lon="11.298450920730829">
        <ele>843.69000000000005</ele>
        <time>2014-09-30T08:52:31Z</time>
      </trkpt>
      <trkpt lat="47.56699925288558" lon="11.298353690654039">
        <ele>844.17999999999995</ele>
        <time>2014-09-30T08:52:38Z</time>
      </trkpt>
      <trkpt lat="47.566977962851524" lon="11.298309350386262">
        <ele>845.13999999999999</ele>
        <time>2014-09-30T08:52:40Z</time>
      </trkpt>
      <trkpt lat="47.566892048344016" lon="11.298233158886433">
        <ele>845.62</ele>
        <time>2014-09-30T08:52:46Z</time>
      </trkpt>
      <trkpt lat="47.56686681881547" lon="11.298189489170909">
        <ele>846.10000000000002</ele>
        <time>2014-09-30T08:52:49Z</time>
      </trkpt>
      <trkpt lat="47.566852485761046" lon="11.29815629683435">
        <ele>847.05999999999995</ele>
        <time>2014-09-30T08:52:53Z</time>
      </trkpt>
      <trkpt lat="47.566815102472901" lon="11.298099216073751">
        <ele>847.53999999999996</ele>
        <time>2014-09-30T08:52:58Z</time>
      </trkpt>
      <trkpt lat="47.566738659515977" lon="11.297887824475765">
        <ele>848.98000000000002</ele>
        <time>2014-09-30T08:53:10Z</time>
      </trkpt>
      <trkpt lat="47.566711585968733" lon="11.297776345163584">
        <ele>850.41999999999996</ele>
        <time>2014-09-30T08:53:15Z</time>
      </trkpt>
      <trkpt lat="47.566537829115987" lon="11.297702835872769">
        <ele>851.87</ele>
        <time>2014-09-30T08:53:28Z</time>
      </trkpt>
      <trkpt lat="47.566301543265581" lon="11.29782990552485">
        <ele>853.30999999999995</ele>
        <time>2014-09-30T08:53:37Z</time>
      </trkpt>
      <trkpt lat="47.566255275160074" lon="11.29781624302268">
        <ele>852.83000000000004</ele>
        <time>2014-09-30T08:53:39Z</time>
      </trkpt>
      <trkpt lat="47.566173383966088" lon="11.297812387347221">
        <ele>853.78999999999996</ele>
        <time>2014-09-30T08:53:43Z</time>
      </trkpt>
      <trkpt lat="47.565845651552081" lon="11.297734435647726">
        <ele>854.75</ele>
        <time>2014-09-30T08:53:53Z</time>
      </trkpt>
      <trkpt lat="47.565746493637562" lon="11.297659333795309">
        <ele>856.66999999999996</ele>
        <time>2014-09-30T08:54:05Z</time>
      </trkpt>
      <trkpt lat="47.565676672384143" lon="11.297622788697481">
        <ele>857.63</ele>
        <time>2014-09-30T08:54:14Z</time>
      </trkpt>
      <trkpt lat="47.565575670450926" lon="11.297538299113512">
        <ele>859.55999999999995</ele>
        <time>2014-09-30T08:54:25Z</time>
      </trkpt>
      <trkpt lat="47.565440805628896" lon="11.297546094283462">
        <ele>861.48000000000002</ele>
        <time>2014-09-30T08:54:36Z</time>
      </trkpt>
      <trkpt lat="47.565355477854609" lon="11.297475267201662">
        <ele>861.96000000000004</ele>
        <time>2014-09-30T08:54:44Z</time>
      </trkpt>
      <trkpt lat="47.5653076171875" lon="11.297441488131881">
        <ele>862.44000000000005</ele>
        <time>2014-09-30T08:54:47Z</time>
      </trkpt>
      <trkpt lat="47.565188761800528" lon="11.297335624694824">
        <ele>863.88</ele>
        <time>2014-09-30T08:54:57Z</time>
      </trkpt>
      <trkpt lat="47.565104188397527" lon="11.297283908352256">
        <ele>864.36000000000001</ele>
        <time>2014-09-30T08:55:03Z</time>
      </trkpt>
      <trkpt lat="47.565061524510384" lon="11.297282818704844">
        <ele>864.84000000000003</ele>
        <time>2014-09-30T08:55:04Z</time>
      </trkpt>
      <trkpt lat="47.565034367144108" lon="11.297300504520535">
        <ele>865.32000000000005</ele>
        <time>2014-09-30T08:55:06Z</time>
      </trkpt>
      <trkpt lat="47.564951470121741" lon="11.297290027141571">
        <ele>865.32000000000005</ele>
        <time>2014-09-30T08:55:09Z</time>
      </trkpt>
      <trkpt lat="47.564873099327087" lon="11.297293044626713">
        <ele>865.79999999999995</ele>
        <time>2014-09-30T08:55:13Z</time>
      </trkpt>
      <trkpt lat="47.564686685800552" lon="11.297273263335228">
        <ele>867.73000000000002</ele>
        <time>2014-09-30T08:55:25Z</time>
      </trkpt>
      <trkpt lat="47.564672101289034" lon="11.297251721844077">
        <ele>868.21000000000004</ele>
        <time>2014-09-30T08:55:27Z</time>
      </trkpt>
      <trkpt lat="47.564608482643962" lon="11.297244848683476">
        <ele>868.69000000000005</ele>
        <time>2014-09-30T08:55:31Z</time>
      </trkpt>
      <trkpt lat="47.564526926726103" lon="11.297252140939236">
        <ele>868.69000000000005</ele>
        <time>2014-09-30T08:55:35Z</time>
      </trkpt>
      <trkpt lat="47.564401784911752" lon="11.297189779579639">
        <ele>870.13</ele>
        <time>2014-09-30T08:55:44Z</time>
      </trkpt>
      <trkpt lat="47.564262058585882" lon="11.297143595293164">
        <ele>871.09000000000003</ele>
        <time>2014-09-30T08:55:53Z</time>
      </trkpt>
      <trkpt lat="47.564073130488396" lon="11.297226324677467">
        <ele>872.52999999999997</ele>
        <time>2014-09-30T08:56:03Z</time>
      </trkpt>
      <trkpt lat="47.563884286209941" lon="11.297350712120533">
        <ele>873.98000000000002</ele>
        <time>2014-09-30T08:56:15Z</time>
      </trkpt>
      <trkpt lat="47.563837599009275" lon="11.297464957460761">
        <ele>875.41999999999996</ele>
        <time>2014-09-30T08:56:27Z</time>
      </trkpt>
      <trkpt lat="47.563832737505436" lon="11.297483397647738">
        <ele>877.34000000000003</ele>
        <time>2014-09-30T08:56:40Z</time>
      </trkpt>
      <trkpt lat="47.563782949000597" lon="11.297613400965929">
        <ele>879.25999999999999</ele>
        <time>2014-09-30T08:56:52Z</time>
      </trkpt>
      <trkpt lat="47.563780685886741" lon="11.297684814780951">
        <ele>881.19000000000005</ele>
        <time>2014-09-30T08:57:03Z</time>
      </trkpt>
      <trkpt lat="47.563795940950513" lon="11.297716246917844">
        <ele>881.19000000000005</ele>
        <time>2014-09-30T08:57:17Z</time>
      </trkpt>
      <trkpt lat="47.563795940950513" lon="11.297716246917844">
        <ele>881.19000000000005</ele>
        <time>2014-09-30T08:57:46Z</time>
      </trkpt>
      <trkpt lat="47.563798874616623" lon="11.297713732346892">
        <ele>881.19000000000005</ele>
        <time>2014-09-30T08:58:14Z</time>
      </trkpt>
      <trkpt lat="47.563802730292082" lon="11.297713648527861">
        <ele>882.63</ele>
        <time>2014-09-30T08:58:41Z</time>
      </trkpt>
      <trkpt lat="47.563846316188574" lon="11.297827726230025">
        <ele>884.07000000000005</ele>
        <time>2014-09-30T08:58:50Z</time>
      </trkpt>
      <trkpt lat="47.563894847407937" lon="11.297975163906813">
        <ele>886.95000000000005</ele>
        <time>2014-09-30T08:59:03Z</time>
      </trkpt>
      <trkpt lat="47.563922004774213" lon="11.29800290800631">
        <ele>886.95000000000005</ele>
        <time>2014-09-30T08:59:14Z</time>
      </trkpt>
      <trkpt lat="47.563941702246666" lon="11.298035010695457">
        <ele>887.42999999999995</ele>
        <time>2014-09-30T08:59:17Z</time>
      </trkpt>
      <trkpt lat="47.563978750258684" lon="11.298120757564902">
        <ele>889.36000000000001</ele>
        <time>2014-09-30T08:59:23Z</time>
      </trkpt>
      <trkpt lat="47.563987467437983" lon="11.298159817233682">
        <ele>889.84000000000003</ele>
        <time>2014-09-30T08:59:25Z</time>
      </trkpt>
      <trkpt lat="47.564052427187562" lon="11.298307422548532">
        <ele>893.20000000000005</ele>
        <time>2014-09-30T08:59:36Z</time>
      </trkpt>
      <trkpt lat="47.564057875424623" lon="11.298321085050702">
        <ele>893.20000000000005</ele>
        <time>2014-09-30T08:59:37Z</time>
      </trkpt>
      <trkpt lat="47.564079081639647" lon="11.298428792506456">
        <ele>894.63999999999999</ele>
        <time>2014-09-30T08:59:49Z</time>
      </trkpt>
      <trkpt lat="47.564086960628629" lon="11.298574972897768">
        <ele>897.04999999999995</ele>
        <time>2014-09-30T09:00:01Z</time>
      </trkpt>
      <trkpt lat="47.564123924821615" lon="11.298675891011953">
        <ele>899.45000000000005</ele>
        <time>2014-09-30T09:00:16Z</time>
      </trkpt>
      <trkpt lat="47.564195841550827" lon="11.298829615116119">
        <ele>901.85000000000002</ele>
        <time>2014-09-30T09:00:30Z</time>
      </trkpt>
      <trkpt lat="47.564235990867019" lon="11.29896255210042">
        <ele>903.77999999999997</ele>
        <time>2014-09-30T09:00:47Z</time>
      </trkpt>
      <trkpt lat="47.564268596470356" lon="11.299016699194908">
        <ele>905.70000000000005</ele>
        <time>2014-09-30T09:00:56Z</time>
      </trkpt>
      <trkpt lat="47.564319055527449" lon="11.299170088022947">
        <ele>908.10000000000002</ele>
        <time>2014-09-30T09:01:09Z</time>
      </trkpt>
      <trkpt lat="47.564332131296396" lon="11.299240663647652">
        <ele>910.99000000000001</ele>
        <time>2014-09-30T09:01:23Z</time>
      </trkpt>
      <trkpt lat="47.564379991963506" lon="11.299355663359165">
        <ele>911.95000000000005</ele>
        <time>2014-09-30T09:01:34Z</time>
      </trkpt>
      <trkpt lat="47.564379991963506" lon="11.299355663359165">
        <ele>911.95000000000005</ele>
        <time>2014-09-30T09:01:40Z</time>
      </trkpt>
      <trkpt lat="47.564396671950817" lon="11.299433028325438">
        <ele>912.42999999999995</ele>
        <time>2014-09-30T09:01:44Z</time>
      </trkpt>
      <trkpt lat="47.564456518739462" lon="11.299722539260983">
        <ele>915.30999999999995</ele>
        <time>2014-09-30T09:01:58Z</time>
      </trkpt>
      <trkpt lat="47.564480490982533" lon="11.299791522324085">
        <ele>915.78999999999996</ele>
        <time>2014-09-30T09:02:01Z</time>
      </trkpt>
      <trkpt lat="47.564529357478023" lon="11.299850698560476">
        <ele>916.75</ele>
        <time>2014-09-30T09:02:05Z</time>
      </trkpt>
      <trkpt lat="47.56462600082159" lon="11.300060246139765">
        <ele>919.15999999999997</ele>
        <time>2014-09-30T09:02:17Z</time>
      </trkpt>
      <trkpt lat="47.564654918387532" lon="11.300107017159462">
        <ele>919.15999999999997</ele>
        <time>2014-09-30T09:02:20Z</time>
      </trkpt>
      <trkpt lat="47.564689368009567" lon="11.300193937495351">
        <ele>920.60000000000002</ele>
        <time>2014-09-30T09:02:25Z</time>
      </trkpt>
      <trkpt lat="47.564708981662989" lon="11.300253281369805">
        <ele>920.60000000000002</ele>
        <time>2014-09-30T09:02:28Z</time>
      </trkpt>
      <trkpt lat="47.564874859526753" lon="11.300603561103344">
        <ele>923</ele>
        <time>2014-09-30T09:02:42Z</time>
      </trkpt>
      <trkpt lat="47.564899921417236" lon="11.300623258575797">
        <ele>923.48000000000002</ele>
        <time>2014-09-30T09:02:44Z</time>
      </trkpt>
      <trkpt lat="47.565083401277661" lon="11.301059201359749">
        <ele>923.48000000000002</ele>
        <time>2014-09-30T09:02:57Z</time>
      </trkpt>
      <trkpt lat="47.565238969400525" lon="11.301506711170077">
        <ele>923.48000000000002</ele>
        <time>2014-09-30T09:03:09Z</time>
      </trkpt>
      <trkpt lat="47.565299151465297" lon="11.301854392513633">
        <ele>923.48000000000002</ele>
        <time>2014-09-30T09:03:17Z</time>
      </trkpt>
      <trkpt lat="47.565307030454278" lon="11.302057988941669">
        <ele>924.45000000000005</ele>
        <time>2014-09-30T09:03:22Z</time>
      </trkpt>
      <trkpt lat="47.565314071252942" lon="11.302102664485574">
        <ele>924.92999999999995</ele>
        <time>2014-09-30T09:03:24Z</time>
      </trkpt>
      <trkpt lat="47.565359836444259" lon="11.3021444901824">
        <ele>925.40999999999997</ele>
        <time>2014-09-30T09:03:28Z</time>
      </trkpt>
      <trkpt lat="47.565351789817214" lon="11.302350182086229">
        <ele>925.88999999999999</ele>
        <time>2014-09-30T09:03:32Z</time>
      </trkpt>
      <trkpt lat="47.565384982153773" lon="11.302536763250828">
        <ele>927.80999999999995</ele>
        <time>2014-09-30T09:03:38Z</time>
      </trkpt>
      <trkpt lat="47.565388083457947" lon="11.302627874538302">
        <ele>928.28999999999996</ele>
        <time>2014-09-30T09:03:41Z</time>
      </trkpt>
      <trkpt lat="47.565406942740083" lon="11.302672885358334">
        <ele>928.76999999999998</ele>
        <time>2014-09-30T09:03:43Z</time>
      </trkpt>
      <trkpt lat="47.565472321584821" lon="11.302865082398057">
        <ele>932.13999999999999</ele>
        <time>2014-09-30T09:03:55Z</time>
      </trkpt>
      <trkpt lat="47.565473327413201" lon="11.302894838154316">
        <ele>932.13999999999999</ele>
        <time>2014-09-30T09:03:56Z</time>
      </trkpt>
      <trkpt lat="47.565520349889994" lon="11.303013525903225">
        <ele>934.05999999999995</ele>
        <time>2014-09-30T09:04:04Z</time>
      </trkpt>
      <trkpt lat="47.565548596903682" lon="11.303141433745623">
        <ele>935.98000000000002</ele>
        <time>2014-09-30T09:04:10Z</time>
      </trkpt>
      <trkpt lat="47.56554851308465" lon="11.303226007148623">
        <ele>936.46000000000004</ele>
        <time>2014-09-30T09:04:13Z</time>
      </trkpt>
      <trkpt lat="47.565552955493331" lon="11.303264731541276">
        <ele>936.94000000000005</ele>
        <time>2014-09-30T09:04:15Z</time>
      </trkpt>
      <trkpt lat="47.565578687936068" lon="11.303467741236091">
        <ele>937.89999999999998</ele>
        <time>2014-09-30T09:04:22Z</time>
      </trkpt>
      <trkpt lat="47.565586986020207" lon="11.303510069847107">
        <ele>937.89999999999998</ele>
        <time>2014-09-30T09:04:24Z</time>
      </trkpt>
      <trkpt lat="47.565585477277637" lon="11.303732777014375">
        <ele>938.86000000000001</ele>
        <time>2014-09-30T09:04:31Z</time>
      </trkpt>
      <trkpt lat="47.565593272447586" lon="11.303836461156607">
        <ele>939.35000000000002</ele>
        <time>2014-09-30T09:04:34Z</time>
      </trkpt>
      <trkpt lat="47.565629649907351" lon="11.304036034271121">
        <ele>939.35000000000002</ele>
        <time>2014-09-30T09:04:41Z</time>
      </trkpt>
      <trkpt lat="47.565662004053593" lon="11.304083475843072">
        <ele>939.83000000000004</ele>
        <time>2014-09-30T09:04:43Z</time>
      </trkpt>
      <trkpt lat="47.565667619928718" lon="11.304112477228045">
        <ele>939.83000000000004</ele>
        <time>2014-09-30T09:04:44Z</time>
      </trkpt>
      <trkpt lat="47.56565940566361" lon="11.304264860227704">
        <ele>939.83000000000004</ele>
        <time>2014-09-30T09:04:47Z</time>
      </trkpt>
      <trkpt lat="47.565669799223542" lon="11.304293945431709">
        <ele>939.35000000000002</ele>
        <time>2014-09-30T09:04:48Z</time>
      </trkpt>
      <trkpt lat="47.56575227715075" lon="11.304494105279446">
        <ele>940.78999999999996</ele>
        <time>2014-09-30T09:04:57Z</time>
      </trkpt>
      <trkpt lat="47.565790833905339" lon="11.304581109434366">
        <ele>940.30999999999995</ele>
        <time>2014-09-30T09:04:59Z</time>
      </trkpt>
      <trkpt lat="47.565977331250906" lon="11.305033899843693">
        <ele>940.30999999999995</ele>
        <time>2014-09-30T09:05:11Z</time>
      </trkpt>
      <trkpt lat="47.566169444471598" lon="11.305519044399261">
        <ele>938.86000000000001</ele>
        <time>2014-09-30T09:05:21Z</time>
      </trkpt>
      <trkpt lat="47.566178580746055" lon="11.305711241438985">
        <ele>937.41999999999996</ele>
        <time>2014-09-30T09:05:24Z</time>
      </trkpt>
      <trkpt lat="47.566156117245555" lon="11.305857840925455">
        <ele>936.94000000000005</ele>
        <time>2014-09-30T09:05:28Z</time>
      </trkpt>
      <trkpt lat="47.566078500822186" lon="11.305955490097404">
        <ele>937.89999999999998</ele>
        <time>2014-09-30T09:05:33Z</time>
      </trkpt>
      <trkpt lat="47.566010104492307" lon="11.306538367643952">
        <ele>939.83000000000004</ele>
        <time>2014-09-30T09:05:42Z</time>
      </trkpt>
      <trkpt lat="47.566028460860252" lon="11.306695025414228">
        <ele>940.78999999999996</ele>
        <time>2014-09-30T09:05:46Z</time>
      </trkpt>
      <trkpt lat="47.566022593528032" lon="11.306840032339096">
        <ele>941.75</ele>
        <time>2014-09-30T09:05:50Z</time>
      </trkpt>
      <trkpt lat="47.566100461408496" lon="11.307420395314693">
        <ele>942.71000000000004</ele>
        <time>2014-09-30T09:06:03Z</time>
      </trkpt>
      <trkpt lat="47.566128624603152" lon="11.308033028617501">
        <ele>942.23000000000002</ele>
        <time>2014-09-30T09:06:14Z</time>
      </trkpt>
      <trkpt lat="47.56620816886425" lon="11.308636274188757">
        <ele>942.71000000000004</ele>
        <time>2014-09-30T09:06:26Z</time>
      </trkpt>
      <trkpt lat="47.566226692870259" lon="11.309512183070183">
        <ele>940.78999999999996</ele>
        <time>2014-09-30T09:06:36Z</time>
      </trkpt>
      <trkpt lat="47.566274972632527" lon="11.310009732842445">
        <ele>937.41999999999996</ele>
        <time>2014-09-30T09:06:42Z</time>
      </trkpt>
      <trkpt lat="47.566294502466917" lon="11.310194972902536">
        <ele>935.98000000000002</ele>
        <time>2014-09-30T09:06:44Z</time>
      </trkpt>
      <trkpt lat="47.566303638741374" lon="11.310398066416383">
        <ele>934.53999999999996</ele>
        <time>2014-09-30T09:06:46Z</time>
      </trkpt>
      <trkpt lat="47.56630833260715" lon="11.31096719764173">
        <ele>930.69000000000005</ele>
        <time>2014-09-30T09:06:51Z</time>
      </trkpt>
      <trkpt lat="47.566311433911324" lon="11.311065014451742">
        <ele>930.21000000000004</ele>
        <time>2014-09-30T09:06:52Z</time>
      </trkpt>
      <trkpt lat="47.566271536052227" lon="11.311448821797967">
        <ele>928.76999999999998</ele>
        <time>2014-09-30T09:06:55Z</time>
      </trkpt>
      <trkpt lat="47.566227279603481" lon="11.31178954616189">
        <ele>930.21000000000004</ele>
        <time>2014-09-30T09:06:58Z</time>
      </trkpt>
      <trkpt lat="47.566211773082614" lon="11.311966571956873">
        <ele>930.69000000000005</ele>
        <time>2014-09-30T09:07:00Z</time>
      </trkpt>
      <trkpt lat="47.566185286268592" lon="11.312204701825976">
        <ele>929.73000000000002</ele>
        <time>2014-09-30T09:07:03Z</time>
      </trkpt>
      <trkpt lat="47.566159134730697" lon="11.312374519184232">
        <ele>927.80999999999995</ele>
        <time>2014-09-30T09:07:05Z</time>
      </trkpt>
      <trkpt lat="47.566115884110332" lon="11.312570068985224">
        <ele>926.37</ele>
        <time>2014-09-30T09:07:07Z</time>
      </trkpt>
      <trkpt lat="47.565991915762424" lon="11.313031576573849">
        <ele>923</ele>
        <time>2014-09-30T09:07:12Z</time>
      </trkpt>
      <trkpt lat="47.565963417291641" lon="11.313190832734108">
        <ele>919.63999999999999</ele>
        <time>2014-09-30T09:07:14Z</time>
      </trkpt>
      <trkpt lat="47.565940031781793" lon="11.313375737518072">
        <ele>917.24000000000001</ele>
        <time>2014-09-30T09:07:16Z</time>
      </trkpt>
      <trkpt lat="47.565913628786802" lon="11.313702380284667">
        <ele>915.30999999999995</ele>
        <time>2014-09-30T09:07:19Z</time>
      </trkpt>
      <trkpt lat="47.565954113379121" lon="11.313839256763458">
        <ele>914.83000000000004</ele>
        <time>2014-09-30T09:07:21Z</time>
      </trkpt>
      <trkpt lat="47.565980264917016" lon="11.313903126865625">
        <ele>914.35000000000002</ele>
        <time>2014-09-30T09:07:22Z</time>
      </trkpt>
      <trkpt lat="47.566065341234207" lon="11.314252484589815">
        <ele>912.90999999999997</ele>
        <time>2014-09-30T09:07:26Z</time>
      </trkpt>
      <trkpt lat="47.56621403619647" lon="11.314521543681622">
        <ele>910.99000000000001</ele>
        <time>2014-09-30T09:07:29Z</time>
      </trkpt>
      <trkpt lat="47.566450573503971" lon="11.315067792311311">
        <ele>908.58000000000004</ele>
        <time>2014-09-30T09:07:34Z</time>
      </trkpt>
      <trkpt lat="47.566523412242532" lon="11.315269377082586">
        <ele>908.10000000000002</ele>
        <time>2014-09-30T09:07:36Z</time>
      </trkpt>
      <trkpt lat="47.566627683117986" lon="11.315501220524311">
        <ele>907.13999999999999</ele>
        <time>2014-09-30T09:07:39Z</time>
      </trkpt>
      <trkpt lat="47.566696414723992" lon="11.315877316519618">
        <ele>906.17999999999995</ele>
        <time>2014-09-30T09:07:43Z</time>
      </trkpt>
      <trkpt lat="47.56666062399745" lon="11.316068591549993">
        <ele>904.74000000000001</ele>
        <time>2014-09-30T09:07:45Z</time>
      </trkpt>
      <trkpt lat="47.566648218780756" lon="11.316145285964012">
        <ele>904.25999999999999</ele>
        <time>2014-09-30T09:07:46Z</time>
      </trkpt>
      <trkpt lat="47.56652919575572" lon="11.31642029620707">
        <ele>901.85000000000002</ele>
        <time>2014-09-30T09:07:48Z</time>
      </trkpt>
      <trkpt lat="47.566359043121338" lon="11.316880714148283">
        <ele>897.04999999999995</ele>
        <time>2014-09-30T09:07:52Z</time>
      </trkpt>
      <trkpt lat="47.566351918503642" lon="11.316943410784006">
        <ele>897.52999999999997</ele>
        <time>2014-09-30T09:07:53Z</time>
      </trkpt>
      <trkpt lat="47.566353091970086" lon="11.317035779356956">
        <ele>897.04999999999995</ele>
        <time>2014-09-30T09:07:54Z</time>
      </trkpt>
      <trkpt lat="47.566372202709317" lon="11.317151617258787">
        <ele>896.57000000000005</ele>
        <time>2014-09-30T09:07:55Z</time>
      </trkpt>
      <trkpt lat="47.566419141367078" lon="11.317350436002016">
        <ele>896.57000000000005</ele>
        <time>2014-09-30T09:07:57Z</time>
      </trkpt>
      <trkpt lat="47.566478652879596" lon="11.318302117288113">
        <ele>894.63999999999999</ele>
        <time>2014-09-30T09:08:09Z</time>
      </trkpt>
      <trkpt lat="47.566496171057224" lon="11.318617360666394">
        <ele>891.75999999999999</ele>
        <time>2014-09-30T09:08:12Z</time>
      </trkpt>
      <trkpt lat="47.566490303725004" lon="11.31900510750711">
        <ele>889.36000000000001</ele>
        <time>2014-09-30T09:08:16Z</time>
      </trkpt>
      <trkpt lat="47.566473204642534" lon="11.319196382537484">
        <ele>887.90999999999997</ele>
        <time>2014-09-30T09:08:18Z</time>
      </trkpt>
      <trkpt lat="47.566398940980434" lon="11.319593181833625">
        <ele>884.07000000000005</ele>
        <time>2014-09-30T09:08:22Z</time>
      </trkpt>
      <trkpt lat="47.566200792789459" lon="11.320036165416241">
        <ele>879.74000000000001</ele>
        <time>2014-09-30T09:08:27Z</time>
      </trkpt>
      <trkpt lat="47.566174641251564" lon="11.320126606151462">
        <ele>879.25999999999999</ele>
        <time>2014-09-30T09:08:28Z</time>
      </trkpt>
      <trkpt lat="47.566204983741045" lon="11.321231005713344">
        <ele>875.89999999999998</ele>
        <time>2014-09-30T09:08:38Z</time>
      </trkpt>
      <trkpt lat="47.566242199391127" lon="11.321630235761404">
        <ele>874.94000000000005</ele>
        <time>2014-09-30T09:08:42Z</time>
      </trkpt>
      <trkpt lat="47.56620179861784" lon="11.322691552340984">
        <ele>873.5</ele>
        <time>2014-09-30T09:08:54Z</time>
      </trkpt>
      <trkpt lat="47.566209090873599" lon="11.322784842923284">
        <ele>873.00999999999999</ele>
        <time>2014-09-30T09:08:55Z</time>
      </trkpt>
      <trkpt lat="47.566356025636196" lon="11.323302257806063">
        <ele>872.52999999999997</ele>
        <time>2014-09-30T09:09:01Z</time>
      </trkpt>
      <trkpt lat="47.566699096933007" lon="11.324051264673471">
        <ele>869.64999999999998</ele>
        <time>2014-09-30T09:09:10Z</time>
      </trkpt>
      <trkpt lat="47.56702565588057" lon="11.324620647355914">
        <ele>867.73000000000002</ele>
        <time>2014-09-30T09:09:17Z</time>
      </trkpt>
      <trkpt lat="47.567171333357692" lon="11.324987439438701">
        <ele>867.25</ele>
        <time>2014-09-30T09:09:22Z</time>
      </trkpt>
      <trkpt lat="47.567263031378388" lon="11.325446432456374">
        <ele>865.79999999999995</ele>
        <time>2014-09-30T09:09:29Z</time>
      </trkpt>
      <trkpt lat="47.567430501803756" lon="11.325689423829317">
        <ele>864.84000000000003</ele>
        <time>2014-09-30T09:09:34Z</time>
      </trkpt>
      <trkpt lat="47.567437710240483" lon="11.326440190896392">
        <ele>863.88</ele>
        <time>2014-09-30T09:09:40Z</time>
      </trkpt>
      <trkpt lat="47.567346515133977" lon="11.326997252181172">
        <ele>862.91999999999996</ele>
        <time>2014-09-30T09:09:44Z</time>
      </trkpt>
      <trkpt lat="47.567324889823794" lon="11.327879698947072">
        <ele>862.91999999999996</ele>
        <time>2014-09-30T09:09:53Z</time>
      </trkpt>
      <trkpt lat="47.567317262291908" lon="11.328078014776111">
        <ele>862.91999999999996</ele>
        <time>2014-09-30T09:09:55Z</time>
      </trkpt>
      <trkpt lat="47.567264791578054" lon="11.328730210661888">
        <ele>860.51999999999998</ele>
        <time>2014-09-30T09:10:01Z</time>
      </trkpt>
      <trkpt lat="47.567302007228136" lon="11.329137403517962">
        <ele>860.03999999999996</ele>
        <time>2014-09-30T09:10:05Z</time>
      </trkpt>
      <trkpt lat="47.567456318065524" lon="11.329752551391721">
        <ele>859.55999999999995</ele>
        <time>2014-09-30T09:10:13Z</time>
      </trkpt>
      <trkpt lat="47.567576598376036" lon="11.330114984884858">
        <ele>859.55999999999995</ele>
        <time>2014-09-30T09:10:18Z</time>
      </trkpt>
      <trkpt lat="47.567752953618765" lon="11.330427210777998">
        <ele>860.51999999999998</ele>
        <time>2014-09-30T09:10:25Z</time>
      </trkpt>
      <trkpt lat="47.567641558125615" lon="11.330436682328582">
        <ele>861.96000000000004</ele>
        <time>2014-09-30T09:10:34Z</time>
      </trkpt>
      <trkpt lat="47.567610461264849" lon="11.330407513305545">
        <ele>862.44000000000005</ele>
        <time>2014-09-30T09:10:36Z</time>
      </trkpt>
      <trkpt lat="47.567433686926961" lon="11.33028413169086">
        <ele>864.36000000000001</ele>
        <time>2014-09-30T09:10:47Z</time>
      </trkpt>
      <trkpt lat="47.567413654178381" lon="11.33027533069253">
        <ele>865.32000000000005</ele>
        <time>2014-09-30T09:10:48Z</time>
      </trkpt>
      <trkpt lat="47.567153228446841" lon="11.330077853053808">
        <ele>867.25</ele>
        <time>2014-09-30T09:11:02Z</time>
      </trkpt>
      <trkpt lat="47.567074690014124" lon="11.32999830879271">
        <ele>868.69000000000005</ele>
        <time>2014-09-30T09:11:08Z</time>
      </trkpt>
      <trkpt lat="47.566910069435835" lon="11.329806447029114">
        <ele>872.04999999999995</ele>
        <time>2014-09-30T09:11:24Z</time>
      </trkpt>
      <trkpt lat="47.56681501865387" lon="11.329592792317271">
        <ele>874.94000000000005</ele>
        <time>2014-09-30T09:11:38Z</time>
      </trkpt>
      <trkpt lat="47.566791297867894" lon="11.329496568068862">
        <ele>876.86000000000001</ele>
        <time>2014-09-30T09:11:45Z</time>
      </trkpt>
      <trkpt lat="47.566757099702954" lon="11.329244775697589">
        <ele>879.25999999999999</ele>
        <time>2014-09-30T09:11:58Z</time>
      </trkpt>
      <trkpt lat="47.56675492040813" lon="11.329222396016121">
        <ele>879.25999999999999</ele>
        <time>2014-09-30T09:11:59Z</time>
      </trkpt>
      <trkpt lat="47.566653331741691" lon="11.328894663602114">
        <ele>881.66999999999996</ele>
        <time>2014-09-30T09:12:14Z</time>
      </trkpt>
      <trkpt lat="47.566453507170081" lon="11.328648654744029">
        <ele>883.59000000000003</ele>
        <time>2014-09-30T09:12:28Z</time>
      </trkpt>
      <trkpt lat="47.566311433911324" lon="11.328570283949375">
        <ele>885.50999999999999</ele>
        <time>2014-09-30T09:12:37Z</time>
      </trkpt>
      <trkpt lat="47.566226022318006" lon="11.328549748286605">
        <ele>885.99000000000001</ele>
        <time>2014-09-30T09:12:42Z</time>
      </trkpt>
      <trkpt lat="47.565971966832876" lon="11.328461989760399">
        <ele>887.42999999999995</ele>
        <time>2014-09-30T09:12:54Z</time>
      </trkpt>
      <trkpt lat="47.565727801993489" lon="11.328345984220505">
        <ele>889.36000000000001</ele>
        <time>2014-09-30T09:13:06Z</time>
      </trkpt>
      <trkpt lat="47.565472489222884" lon="11.328249759972095">
        <ele>891.27999999999997</ele>
        <time>2014-09-30T09:13:19Z</time>
      </trkpt>
      <trkpt lat="47.565265623852611" lon="11.328006684780121">
        <ele>893.20000000000005</ele>
        <time>2014-09-30T09:13:34Z</time>
      </trkpt>
      <trkpt lat="47.565178535878658" lon="11.327757155522704">
        <ele>896.09000000000003</ele>
        <time>2014-09-30T09:13:46Z</time>
      </trkpt>
      <trkpt lat="47.565176021307707" lon="11.327748354524374">
        <ele>896.09000000000003</ele>
        <time>2014-09-30T09:13:47Z</time>
      </trkpt>
      <trkpt lat="47.56519571878016" lon="11.327466135844588">
        <ele>898.49000000000001</ele>
        <time>2014-09-30T09:13:59Z</time>
      </trkpt>
      <trkpt lat="47.565128915011883" lon="11.327241081744432">
        <ele>900.40999999999997</ele>
        <time>2014-09-30T09:14:09Z</time>
      </trkpt>
      <trkpt lat="47.565056411549449" lon="11.327232699841261">
        <ele>901.37</ele>
        <time>2014-09-30T09:14:14Z</time>
      </trkpt>
      <trkpt lat="47.565018692985177" lon="11.327266981825233">
        <ele>903.29999999999995</ele>
        <time>2014-09-30T09:14:22Z</time>
      </trkpt>
      <trkpt lat="47.564940238371491" lon="11.327482480555773">
        <ele>904.74000000000001</ele>
        <time>2014-09-30T09:14:31Z</time>
      </trkpt>
      <trkpt lat="47.56492112763226" lon="11.327556492760777">
        <ele>905.70000000000005</ele>
        <time>2014-09-30T09:14:35Z</time>
      </trkpt>
      <trkpt lat="47.564873769879341" lon="11.327776601538062">
        <ele>908.10000000000002</ele>
        <time>2014-09-30T09:14:48Z</time>
      </trkpt>
      <trkpt lat="47.564837140962481" lon="11.32798807695508">
        <ele>910.99000000000001</ele>
        <time>2014-09-30T09:15:01Z</time>
      </trkpt>
      <trkpt lat="47.56486295722425" lon="11.32810877636075">
        <ele>912.90999999999997</ele>
        <time>2014-09-30T09:15:10Z</time>
      </trkpt>
      <trkpt lat="47.564795315265656" lon="11.328265685588121">
        <ele>914.83000000000004</ele>
        <time>2014-09-30T09:15:22Z</time>
      </trkpt>
      <trkpt lat="47.564671766012907" lon="11.328417062759399">
        <ele>917.72000000000003</ele>
        <time>2014-09-30T09:15:36Z</time>
      </trkpt>
      <trkpt lat="47.564634382724762" lon="11.328462325036526">
        <ele>918.67999999999995</ele>
        <time>2014-09-30T09:15:41Z</time>
      </trkpt>
      <trkpt lat="47.564550479874015" lon="11.328523764386773">
        <ele>921.08000000000004</ele>
        <time>2014-09-30T09:15:54Z</time>
      </trkpt>
      <trkpt lat="47.564522316679358" lon="11.32853533141315">
        <ele>921.55999999999995</ele>
        <time>2014-09-30T09:15:56Z</time>
      </trkpt>
      <trkpt lat="47.56449993699789" lon="11.328547485172749">
        <ele>922.03999999999996</ele>
        <time>2014-09-30T09:15:58Z</time>
      </trkpt>
      <trkpt lat="47.56434503942728" lon="11.328729204833508">
        <ele>924.92999999999995</ele>
        <time>2014-09-30T09:16:13Z</time>
      </trkpt>
      <trkpt lat="47.564302878454328" lon="11.328763905912638">
        <ele>925.88999999999999</ele>
        <time>2014-09-30T09:16:18Z</time>
      </trkpt>
      <trkpt lat="47.564276726916432" lon="11.328787039965391">
        <ele>926.37</ele>
        <time>2014-09-30T09:16:21Z</time>
      </trkpt>
      <trkpt lat="47.564220987260342" lon="11.328872032463551">
        <ele>927.80999999999995</ele>
        <time>2014-09-30T09:16:27Z</time>
      </trkpt>
      <trkpt lat="47.56409483961761" lon="11.329060876742005">
        <ele>931.16999999999996</ele>
        <time>2014-09-30T09:16:42Z</time>
      </trkpt>
      <trkpt lat="47.563984952867031" lon="11.329156849533319">
        <ele>933.10000000000002</ele>
        <time>2014-09-30T09:16:55Z</time>
      </trkpt>
      <trkpt lat="47.563901133835316" lon="11.329213343560696">
        <ele>935.98000000000002</ele>
        <time>2014-09-30T09:17:08Z</time>
      </trkpt>
      <trkpt lat="47.563840448856354" lon="11.329268831759691">
        <ele>937.89999999999998</ele>
        <time>2014-09-30T09:17:18Z</time>
      </trkpt>
      <trkpt lat="47.563770292326808" lon="11.329327756538987">
        <ele>939.35000000000002</ele>
        <time>2014-09-30T09:17:23Z</time>
      </trkpt>
      <trkpt lat="47.563551105558872" lon="11.329552307724953">
        <ele>941.75</ele>
        <time>2014-09-30T09:17:36Z</time>
      </trkpt>
      <trkpt lat="47.56341515108943" lon="11.329688178375363">
        <ele>943.19000000000005</ele>
        <time>2014-09-30T09:17:49Z</time>
      </trkpt>
      <trkpt lat="47.563294200226665" lon="11.329849110916257">
        <ele>946.07000000000005</ele>
        <time>2014-09-30T09:18:03Z</time>
      </trkpt>
      <trkpt lat="47.563198311254382" lon="11.329974420368671">
        <ele>948.48000000000002</ele>
        <time>2014-09-30T09:18:15Z</time>
      </trkpt>
      <trkpt lat="47.563135530799627" lon="11.330050360411406">
        <ele>949.44000000000005</ele>
        <time>2014-09-30T09:18:20Z</time>
      </trkpt>
      <trkpt lat="47.563078282400966" lon="11.330154966562986">
        <ele>950.39999999999998</ele>
        <time>2014-09-30T09:18:27Z</time>
      </trkpt>
      <trkpt lat="47.563036037608981" lon="11.330240126699209">
        <ele>951.36000000000001</ele>
        <time>2014-09-30T09:18:32Z</time>
      </trkpt>
      <trkpt lat="47.562927156686783" lon="11.330433245748281">
        <ele>954.25</ele>
        <time>2014-09-30T09:18:47Z</time>
      </trkpt>
      <trkpt lat="47.562821041792631" lon="11.330555286258459">
        <ele>956.16999999999996</ele>
        <time>2014-09-30T09:18:59Z</time>
      </trkpt>
      <trkpt lat="47.562691457569599" lon="11.330726444721222">
        <ele>959.04999999999995</ele>
        <time>2014-09-30T09:19:14Z</time>
      </trkpt>
      <trkpt lat="47.5625757034868" lon="11.33091252297163">
        <ele>961.46000000000004</ele>
        <time>2014-09-30T09:19:29Z</time>
      </trkpt>
      <trkpt lat="47.562543768435717" lon="11.330962562933564">
        <ele>962.41999999999996</ele>
        <time>2014-09-30T09:19:34Z</time>
      </trkpt>
      <trkpt lat="47.562457602471113" lon="11.331175547093153">
        <ele>965.29999999999995</ele>
        <time>2014-09-30T09:19:49Z</time>
      </trkpt>
      <trkpt lat="47.562379650771618" lon="11.331326588988304">
        <ele>967.70000000000005</ele>
        <time>2014-09-30T09:20:02Z</time>
      </trkpt>
      <trkpt lat="47.562250904738903" lon="11.331490371376276">
        <ele>971.07000000000005</ele>
        <time>2014-09-30T09:20:17Z</time>
      </trkpt>
      <trkpt lat="47.562211928889155" lon="11.33153940550983">
        <ele>972.02999999999997</ele>
        <time>2014-09-30T09:20:22Z</time>
      </trkpt>
      <trkpt lat="47.562196338549256" lon="11.33156237192452">
        <ele>972.02999999999997</ele>
        <time>2014-09-30T09:20:23Z</time>
      </trkpt>
      <trkpt lat="47.562117800116539" lon="11.331686424091458">
        <ele>974.42999999999995</ele>
        <time>2014-09-30T09:20:36Z</time>
      </trkpt>
      <trkpt lat="47.562026688829064" lon="11.331735961139202">
        <ele>976.84000000000003</ele>
        <time>2014-09-30T09:20:48Z</time>
      </trkpt>
      <trkpt lat="47.561991903930902" lon="11.331728249788284">
        <ele>978.27999999999997</ele>
        <time>2014-09-30T09:20:54Z</time>
      </trkpt>
      <trkpt lat="47.561929626390338" lon="11.331753144040704">
        <ele>978.75999999999999</ele>
        <time>2014-09-30T09:20:58Z</time>
      </trkpt>
      <trkpt lat="47.561731226742268" lon="11.331914663314819">
        <ele>981.15999999999997</ele>
        <time>2014-09-30T09:21:12Z</time>
      </trkpt>
      <trkpt lat="47.561583537608385" lon="11.332008372992277">
        <ele>984.52999999999997</ele>
        <time>2014-09-30T09:21:26Z</time>
      </trkpt>
      <trkpt lat="47.56144892424345" lon="11.332067968323827">
        <ele>986.92999999999995</ele>
        <time>2014-09-30T09:21:40Z</time>
      </trkpt>
      <trkpt lat="47.561312383040786" lon="11.332131754606962">
        <ele>989.33000000000004</ele>
        <time>2014-09-30T09:21:54Z</time>
      </trkpt>
      <trkpt lat="47.561300061643124" lon="11.332125132903457">
        <ele>989.33000000000004</ele>
        <time>2014-09-30T09:21:56Z</time>
      </trkpt>
      <trkpt lat="47.56114742718637" lon="11.332131754606962">
        <ele>992.22000000000003</ele>
        <time>2014-09-30T09:22:11Z</time>
      </trkpt>
      <trkpt lat="47.561044497415423" lon="11.332125719636679">
        <ele>994.13999999999999</ele>
        <time>2014-09-30T09:22:23Z</time>
      </trkpt>
      <trkpt lat="47.560894628986716" lon="11.332068722695112">
        <ele>997.50999999999999</ele>
        <time>2014-09-30T09:22:38Z</time>
      </trkpt>
      <trkpt lat="47.560811312869191" lon="11.332044498994946">
        <ele>998.47000000000003</ele>
        <time>2014-09-30T09:22:46Z</time>
      </trkpt>
      <trkpt lat="47.560730427503586" lon="11.331940479576588">
        <ele>1000.87</ele>
        <time>2014-09-30T09:22:57Z</time>
      </trkpt>
      <trkpt lat="47.560595227405429" lon="11.331807123497128">
        <ele>1003.27</ele>
        <time>2014-09-30T09:23:12Z</time>
      </trkpt>
      <trkpt lat="47.56042473949492" lon="11.331733111292124">
        <ele>1006.64</ele>
        <time>2014-09-30T09:23:27Z</time>
      </trkpt>
      <trkpt lat="47.560376627370715" lon="11.33170997723937">
        <ele>1007.12</ele>
        <time>2014-09-30T09:23:31Z</time>
      </trkpt>
      <trkpt lat="47.5602219812572" lon="11.331631019711494">
        <ele>1009.52</ele>
        <time>2014-09-30T09:23:46Z</time>
      </trkpt>
      <trkpt lat="47.56020437926054" lon="11.331640323624015">
        <ele>1009.52</ele>
        <time>2014-09-30T09:23:48Z</time>
      </trkpt>
      <trkpt lat="47.560158027336001" lon="11.331681646406651">
        <ele>1010.48</ele>
        <time>2014-09-30T09:23:53Z</time>
      </trkpt>
      <trkpt lat="47.56003288552165" lon="11.331937629729509">
        <ele>1013.37</ele>
        <time>2014-09-30T09:24:09Z</time>
      </trkpt>
      <trkpt lat="47.560029616579413" lon="11.331995045766234">
        <ele>1013.85</ele>
        <time>2014-09-30T09:24:15Z</time>
      </trkpt>
      <trkpt lat="47.559976223856211" lon="11.332220016047359">
        <ele>1016.73</ele>
        <time>2014-09-30T09:24:29Z</time>
      </trkpt>
      <trkpt lat="47.559899026528001" lon="11.332298051565886">
        <ele>1018.17</ele>
        <time>2014-09-30T09:24:38Z</time>
      </trkpt>
      <trkpt lat="47.559774219989777" lon="11.332376087084413">
        <ele>1020.1</ele>
        <time>2014-09-30T09:24:49Z</time>
      </trkpt>
      <trkpt lat="47.559626530855894" lon="11.332301320508122">
        <ele>1022.98</ele>
        <time>2014-09-30T09:25:03Z</time>
      </trkpt>
      <trkpt lat="47.559552853927016" lon="11.332180956378579">
        <ele>1024.9000000000001</ele>
        <time>2014-09-30T09:25:15Z</time>
      </trkpt>
      <trkpt lat="47.559526534751058" lon="11.332099484279752">
        <ele>1025.3800000000001</ele>
        <time>2014-09-30T09:25:21Z</time>
      </trkpt>
      <trkpt lat="47.559529216960073" lon="11.331974007189274">
        <ele>1026.8299999999999</ele>
        <time>2014-09-30T09:25:27Z</time>
      </trkpt>
      <trkpt lat="47.559500131756067" lon="11.331705115735531">
        <ele>1029.71</ele>
        <time>2014-09-30T09:25:42Z</time>
      </trkpt>
      <trkpt lat="47.559450846165419" lon="11.331563293933868">
        <ele>1031.1500000000001</ele>
        <time>2014-09-30T09:25:52Z</time>
      </trkpt>
      <trkpt lat="47.559386724606156" lon="11.331470338627696">
        <ele>1033.55</ele>
        <time>2014-09-30T09:26:01Z</time>
      </trkpt>
      <trkpt lat="47.559279184788465" lon="11.331358272582293">
        <ele>1035.96</ele>
        <time>2014-09-30T09:26:15Z</time>
      </trkpt>
      <trkpt lat="47.55920416675508" lon="11.331320889294147">
        <ele>1037.8800000000001</ele>
        <time>2014-09-30T09:26:23Z</time>
      </trkpt>
      <trkpt lat="47.559072822332382" lon="11.33115048520267">
        <ele>1041.25</ele>
        <time>2014-09-30T09:26:40Z</time>
      </trkpt>
      <trkpt lat="47.559012053534389" lon="11.331091979518533">
        <ele>1042.6900000000001</ele>
        <time>2014-09-30T09:26:47Z</time>
      </trkpt>
      <trkpt lat="47.558953799307346" lon="11.331026684492826">
        <ele>1043.1700000000001</ele>
        <time>2014-09-30T09:26:54Z</time>
      </trkpt>
      <trkpt lat="47.558756992220879" lon="11.331083178520203">
        <ele>1045.0899999999999</ele>
        <time>2014-09-30T09:27:07Z</time>
      </trkpt>
      <trkpt lat="47.558666216209531" lon="11.331304041668773">
        <ele>1046.05</ele>
        <time>2014-09-30T09:27:21Z</time>
      </trkpt>
      <trkpt lat="47.558660013601184" lon="11.331320134922862">
        <ele>1045.5699999999999</ele>
        <time>2014-09-30T09:27:22Z</time>
      </trkpt>
      <trkpt lat="47.558671245351434" lon="11.331333378329873">
        <ele>1046.05</ele>
        <time>2014-09-30T09:27:23Z</time>
      </trkpt>
      <trkpt lat="47.558665294200182" lon="11.33170067332685">
        <ele>1046.53</ele>
        <time>2014-09-30T09:27:36Z</time>
      </trkpt>
      <trkpt lat="47.558680046349764" lon="11.331810224801302">
        <ele>1047.01</ele>
        <time>2014-09-30T09:27:40Z</time>
      </trkpt>
      <trkpt lat="47.558688847348094" lon="11.331893373280764">
        <ele>1047.97</ele>
        <time>2014-09-30T09:27:44Z</time>
      </trkpt>
      <trkpt lat="47.558704437687993" lon="11.331997057422996">
        <ele>1048.45</ele>
        <time>2014-09-30T09:27:48Z</time>
      </trkpt>
      <trkpt lat="47.558725392445922" lon="11.332117170095444">
        <ele>1049.4200000000001</ele>
        <time>2014-09-30T09:27:54Z</time>
      </trkpt>
      <trkpt lat="47.558700414374471" lon="11.332232505083084">
        <ele>1050.3800000000001</ele>
        <time>2014-09-30T09:27:58Z</time>
      </trkpt>
      <trkpt lat="47.558698151260614" lon="11.332274582237005">
        <ele>1050.3800000000001</ele>
        <time>2014-09-30T09:28:00Z</time>
      </trkpt>
      <trkpt lat="47.558683063834906" lon="11.332349684089422">
        <ele>1050.8599999999999</ele>
        <time>2014-09-30T09:28:04Z</time>
      </trkpt>
      <trkpt lat="47.558632269501686" lon="11.332578090950847">
        <ele>1053.26</ele>
        <time>2014-09-30T09:28:18Z</time>
      </trkpt>
      <trkpt lat="47.558618355542421" lon="11.33265495300293">
        <ele>1054.22</ele>
        <time>2014-09-30T09:28:22Z</time>
      </trkpt>
      <trkpt lat="47.558592455461621" lon="11.332770036533475">
        <ele>1055.1800000000001</ele>
        <time>2014-09-30T09:28:28Z</time>
      </trkpt>
      <trkpt lat="47.558565633371472" lon="11.332894759252667">
        <ele>1056.6300000000001</ele>
        <time>2014-09-30T09:28:35Z</time>
      </trkpt>
      <trkpt lat="47.558570327237248" lon="11.333010513335466">
        <ele>1057.5899999999999</ele>
        <time>2014-09-30T09:28:42Z</time>
      </trkpt>
      <trkpt lat="47.558567309752107" lon="11.333086118102074">
        <ele>1059.03</ele>
        <time>2014-09-30T09:28:47Z</time>
      </trkpt>
      <trkpt lat="47.558550545945764" lon="11.333170607686043">
        <ele>1059.51</ele>
        <time>2014-09-30T09:28:52Z</time>
      </trkpt>
      <trkpt lat="47.558485586196184" lon="11.333347633481026">
        <ele>1061.4300000000001</ele>
        <time>2014-09-30T09:29:04Z</time>
      </trkpt>
      <trkpt lat="47.558433702215552" lon="11.333397338166833">
        <ele>1062.3900000000001</ele>
        <time>2014-09-30T09:29:08Z</time>
      </trkpt>
      <trkpt lat="47.55829774774611" lon="11.333485683426261">
        <ele>1064.3199999999999</ele>
        <time>2014-09-30T09:29:21Z</time>
      </trkpt>
      <trkpt lat="47.558171264827251" lon="11.333622559905052">
        <ele>1065.76</ele>
        <time>2014-09-30T09:29:31Z</time>
      </trkpt>
      <trkpt lat="47.558030700311065" lon="11.33383747190237">
        <ele>1067.2</ele>
        <time>2014-09-30T09:29:44Z</time>
      </trkpt>
      <trkpt lat="47.558004045858979" lon="11.333876783028245">
        <ele>1067.6800000000001</ele>
        <time>2014-09-30T09:29:48Z</time>
      </trkpt>
      <trkpt lat="47.557884771376848" lon="11.333928583189845">
        <ele>1069.1199999999999</ele>
        <time>2014-09-30T09:29:58Z</time>
      </trkpt>
      <trkpt lat="47.557879406958818" lon="11.333920368924737">
        <ele>1069.1199999999999</ele>
        <time>2014-09-30T09:29:59Z</time>
      </trkpt>
      <trkpt lat="47.557776728644967" lon="11.333639407530427">
        <ele>1072.01</ele>
        <time>2014-09-30T09:30:14Z</time>
      </trkpt>
      <trkpt lat="47.557677989825606" lon="11.333620296791196">
        <ele>1072.01</ele>
        <time>2014-09-30T09:30:19Z</time>
      </trkpt>
      <trkpt lat="47.557591572403908" lon="11.333597749471664">
        <ele>1072.97</ele>
        <time>2014-09-30T09:30:23Z</time>
      </trkpt>
      <trkpt lat="47.55732930265367" lon="11.333675784990191">
        <ele>1075.3699999999999</ele>
        <time>2014-09-30T09:30:38Z</time>
      </trkpt>
      <trkpt lat="47.557292589917779" lon="11.333697326481342">
        <ele>1075.3699999999999</ele>
        <time>2014-09-30T09:30:40Z</time>
      </trkpt>
      <trkpt lat="47.557142721489072" lon="11.333701433613896">
        <ele>1075.8499999999999</ele>
        <time>2014-09-30T09:30:50Z</time>
      </trkpt>
      <trkpt lat="47.556999390944839" lon="11.333516864106059">
        <ele>1078.26</ele>
        <time>2014-09-30T09:31:02Z</time>
      </trkpt>
      <trkpt lat="47.556847427040339" lon="11.333528598770499">
        <ele>1079.7</ele>
        <time>2014-09-30T09:31:10Z</time>
      </trkpt>
      <trkpt lat="47.556785233318806" lon="11.333426255732775">
        <ele>1081.1400000000001</ele>
        <time>2014-09-30T09:31:18Z</time>
      </trkpt>
      <trkpt lat="47.55657970905304" lon="11.333325589075685">
        <ele>1083.54</ele>
        <time>2014-09-30T09:31:30Z</time>
      </trkpt>
      <trkpt lat="47.55645515397191" lon="11.333259204402566">
        <ele>1084.02</ele>
        <time>2014-09-30T09:31:37Z</time>
      </trkpt>
      <trkpt lat="47.556384997442365" lon="11.333193657919765">
        <ele>1084.99</ele>
        <time>2014-09-30T09:31:42Z</time>
      </trkpt>
      <trkpt lat="47.556193638592958" lon="11.333200447261333">
        <ele>1085.95</ele>
        <time>2014-09-30T09:31:51Z</time>
      </trkpt>
      <trkpt lat="47.556143766269088" lon="11.333149066194892">
        <ele>1086.9100000000001</ele>
        <time>2014-09-30T09:31:55Z</time>
      </trkpt>
      <trkpt lat="47.556057935580611" lon="11.333136660978198">
        <ele>1087.8699999999999</ele>
        <time>2014-09-30T09:32:00Z</time>
      </trkpt>
      <trkpt lat="47.555871605873108" lon="11.332973465323448">
        <ele>1089.3099999999999</ele>
        <time>2014-09-30T09:32:12Z</time>
      </trkpt>
      <trkpt lat="47.555691646412015" lon="11.332897106185555">
        <ele>1090.27</ele>
        <time>2014-09-30T09:32:22Z</time>
      </trkpt>
      <trkpt lat="47.555332062765956" lon="11.332983942702413">
        <ele>1091.23</ele>
        <time>2014-09-30T09:32:34Z</time>
      </trkpt>
      <trkpt lat="47.554941466078162" lon="11.333158453926444">
        <ele>1092.6800000000001</ele>
        <time>2014-09-30T09:32:47Z</time>
      </trkpt>
      <trkpt lat="47.554799392819405" lon="11.333262557163835">
        <ele>1094.5999999999999</ele>
        <time>2014-09-30T09:32:57Z</time>
      </trkpt>
      <trkpt lat="47.5548030808568" lon="11.333276219666004">
        <ele>1094.5999999999999</ele>
        <time>2014-09-30T09:32:58Z</time>
      </trkpt>
      <trkpt lat="47.554830489680171" lon="11.333283428102732">
        <ele>1094.1199999999999</ele>
        <time>2014-09-30T09:33:00Z</time>
      </trkpt>
      <trkpt lat="47.554900646209717" lon="11.333288289606571">
        <ele>1095.0799999999999</ele>
        <time>2014-09-30T09:33:04Z</time>
      </trkpt>
      <trkpt lat="47.555001899600029" lon="11.333293318748474">
        <ele>1095.5599999999999</ele>
        <time>2014-09-30T09:33:08Z</time>
      </trkpt>
      <trkpt lat="47.555284705013037" lon="11.333343777805567">
        <ele>1097.96</ele>
        <time>2014-09-30T09:33:24Z</time>
      </trkpt>
      <trkpt lat="47.555368272587657" lon="11.333322655409575">
        <ele>1098.9200000000001</ele>
        <time>2014-09-30T09:33:30Z</time>
      </trkpt>
      <trkpt lat="47.555569186806679" lon="11.333539411425591">
        <ele>1101.3299999999999</ele>
        <time>2014-09-30T09:33:45Z</time>
      </trkpt>
      <trkpt lat="47.555650407448411" lon="11.33368257433176">
        <ele>1102.29</ele>
        <time>2014-09-30T09:33:52Z</time>
      </trkpt>
      <trkpt lat="47.555686617270112" lon="11.333783408626914">
        <ele>1103.25</ele>
        <time>2014-09-30T09:33:57Z</time>
      </trkpt>
      <trkpt lat="47.555708410218358" lon="11.333942245692015">
        <ele>1104.6900000000001</ele>
        <time>2014-09-30T09:34:05Z</time>
      </trkpt>
      <trkpt lat="47.555687874555588" lon="11.33418926037848">
        <ele>1105.6500000000001</ele>
        <time>2014-09-30T09:34:15Z</time>
      </trkpt>
      <trkpt lat="47.555686952546239" lon="11.334353713318706">
        <ele>1107.0999999999999</ele>
        <time>2014-09-30T09:34:21Z</time>
      </trkpt>
      <trkpt lat="47.555722994729877" lon="11.334507605060935">
        <ele>1108.0599999999999</ele>
        <time>2014-09-30T09:34:30Z</time>
      </trkpt>
      <trkpt lat="47.555765993893147" lon="11.334637273102999">
        <ele>1109.5</ele>
        <time>2014-09-30T09:34:37Z</time>
      </trkpt>
      <trkpt lat="47.555800694972277" lon="11.334696114063263">
        <ele>1109.98</ele>
        <time>2014-09-30T09:34:42Z</time>
      </trkpt>
      <trkpt lat="47.55588878877461" lon="11.334967939183116">
        <ele>1112.8599999999999</ele>
        <time>2014-09-30T09:34:57Z</time>
      </trkpt>
      <trkpt lat="47.555797761306167" lon="11.335245044901967">
        <ele>1114.3099999999999</ele>
        <time>2014-09-30T09:35:10Z</time>
      </trkpt>
      <trkpt lat="47.555745877325535" lon="11.335369180887938">
        <ele>1115.27</ele>
        <time>2014-09-30T09:35:16Z</time>
      </trkpt>
      <trkpt lat="47.555767754092813" lon="11.335629438981414">
        <ele>1116.23</ele>
        <time>2014-09-30T09:35:26Z</time>
      </trkpt>
      <trkpt lat="47.555890213698149" lon="11.335842842236161">
        <ele>1117.1900000000001</ele>
        <time>2014-09-30T09:35:38Z</time>
      </trkpt>
      <trkpt lat="47.556050224229693" lon="11.336194798350334">
        <ele>1119.5899999999999</ele>
        <time>2014-09-30T09:35:53Z</time>
      </trkpt>
      <trkpt lat="47.556161116808653" lon="11.336463773623109">
        <ele>1122</ele>
        <time>2014-09-30T09:36:06Z</time>
      </trkpt>
      <trkpt lat="47.556203780695796" lon="11.336554549634457">
        <ele>1122.96</ele>
        <time>2014-09-30T09:36:11Z</time>
      </trkpt>
      <trkpt lat="47.556216353550553" lon="11.33659134618938">
        <ele>1123.4400000000001</ele>
        <time>2014-09-30T09:36:13Z</time>
      </trkpt>
      <trkpt lat="47.556238146498799" lon="11.336613306775689">
        <ele>1123.4400000000001</ele>
        <time>2014-09-30T09:36:15Z</time>
      </trkpt>
      <trkpt lat="47.556242421269417" lon="11.336636776104569">
        <ele>1123.9200000000001</ele>
        <time>2014-09-30T09:36:16Z</time>
      </trkpt>
      <trkpt lat="47.556288186460733" lon="11.336775328963995">
        <ele>1125.3599999999999</ele>
        <time>2014-09-30T09:36:22Z</time>
      </trkpt>
      <trkpt lat="47.556334706023335" lon="11.336821261793375">
        <ele>1126.3199999999999</ele>
        <time>2014-09-30T09:36:26Z</time>
      </trkpt>
      <trkpt lat="47.556334286928177" lon="11.336841713637114">
        <ele>1125.8399999999999</ele>
        <time>2014-09-30T09:36:27Z</time>
      </trkpt>
      <trkpt lat="47.556487089022994" lon="11.337083363905549">
        <ele>1128.24</ele>
        <time>2014-09-30T09:36:41Z</time>
      </trkpt>
      <trkpt lat="47.55662564188242" lon="11.33725200779736">
        <ele>1129.21</ele>
        <time>2014-09-30T09:36:50Z</time>
      </trkpt>
      <trkpt lat="47.556724296882749" lon="11.337435990571976">
        <ele>1130.6500000000001</ele>
        <time>2014-09-30T09:36:59Z</time>
      </trkpt>
      <trkpt lat="47.556704599410295" lon="11.337649896740913">
        <ele>1131.6099999999999</ele>
        <time>2014-09-30T09:37:11Z</time>
      </trkpt>
      <trkpt lat="47.556695211678743" lon="11.337680909782648">
        <ele>1131.6099999999999</ele>
        <time>2014-09-30T09:37:13Z</time>
      </trkpt>
      <trkpt lat="47.556678280234337" lon="11.337701613083482">
        <ele>1132.0899999999999</ele>
        <time>2014-09-30T09:37:15Z</time>
      </trkpt>
      <trkpt lat="47.556659923866391" lon="11.337722567841411">
        <ele>1133.53</ele>
        <time>2014-09-30T09:37:24Z</time>
      </trkpt>
      <trkpt lat="47.556729409843683" lon="11.337651824578643">
        <ele>1131.6099999999999</ele>
        <time>2014-09-30T09:37:28Z</time>
      </trkpt>
      <trkpt lat="47.55686167627573" lon="11.337730782106519">
        <ele>1130.6500000000001</ele>
        <time>2014-09-30T09:37:33Z</time>
      </trkpt>
      <trkpt lat="47.556995954364538" lon="11.337878806516528">
        <ele>1128.73</ele>
        <time>2014-09-30T09:37:37Z</time>
      </trkpt>
      <trkpt lat="47.557309856638312" lon="11.33820628747344">
        <ele>1124.8800000000001</ele>
        <time>2014-09-30T09:37:44Z</time>
      </trkpt>
      <trkpt lat="47.557444889098406" lon="11.338696293532848">
        <ele>1121.03</ele>
        <time>2014-09-30T09:37:51Z</time>
      </trkpt>
      <trkpt lat="47.557422257959843" lon="11.338837780058384">
        <ele>1119.5899999999999</ele>
        <time>2014-09-30T09:37:53Z</time>
      </trkpt>
      <trkpt lat="47.557359812781215" lon="11.338987061753869">
        <ele>1119.1099999999999</ele>
        <time>2014-09-30T09:37:56Z</time>
      </trkpt>
      <trkpt lat="47.557293009012938" lon="11.339076915755868">
        <ele>1117.6700000000001</ele>
        <time>2014-09-30T09:38:10Z</time>
      </trkpt>
      <trkpt lat="47.557285213842988" lon="11.339081609621644">
        <ele>1117.6700000000001</ele>
        <time>2014-09-30T09:38:32Z</time>
      </trkpt>
      <trkpt lat="47.557285213842988" lon="11.339081609621644">
        <ele>1117.6700000000001</ele>
        <time>2014-09-30T09:38:35Z</time>
      </trkpt>
      <trkpt lat="47.557225283235312" lon="11.339133996516466">
        <ele>1116.71</ele>
        <time>2014-09-30T09:38:38Z</time>
      </trkpt>
      <trkpt lat="47.557032080367208" lon="11.33928956463933">
        <ele>1112.8599999999999</ele>
        <time>2014-09-30T09:38:44Z</time>
      </trkpt>
      <trkpt lat="47.556737205013633" lon="11.339559042826295">
        <ele>1109.5</ele>
        <time>2014-09-30T09:38:50Z</time>
      </trkpt>
      <trkpt lat="47.556530758738518" lon="11.340002277866006">
        <ele>1106.1300000000001</ele>
        <time>2014-09-30T09:38:55Z</time>
      </trkpt>
      <trkpt lat="47.55643512122333" lon="11.340306373313069">
        <ele>1105.1700000000001</ele>
        <time>2014-09-30T09:38:58Z</time>
      </trkpt>
      <trkpt lat="47.556131947785616" lon="11.340760001912713">
        <ele>1101.8099999999999</ele>
        <time>2014-09-30T09:39:05Z</time>
      </trkpt>
      <trkpt lat="47.556064138188958" lon="11.340874414891005">
        <ele>1100.3699999999999</ele>
        <time>2014-09-30T09:39:07Z</time>
      </trkpt>
      <trkpt lat="47.555956849828362" lon="11.341063510626554">
        <ele>1099.4000000000001</ele>
        <time>2014-09-30T09:39:10Z</time>
      </trkpt>
      <trkpt lat="47.555915778502822" lon="11.34112779982388">
        <ele>1098.9200000000001</ele>
        <time>2014-09-30T09:39:11Z</time>
      </trkpt>
      <trkpt lat="47.555705728009343" lon="11.341350255534053">
        <ele>1097</ele>
        <time>2014-09-30T09:39:15Z</time>
      </trkpt>
      <trkpt lat="47.555430885404348" lon="11.341458717361093">
        <ele>1095.0799999999999</ele>
        <time>2014-09-30T09:39:19Z</time>
      </trkpt>
      <trkpt lat="47.555139949545264" lon="11.341452682390809">
        <ele>1092.6800000000001</ele>
        <time>2014-09-30T09:39:23Z</time>
      </trkpt>
      <trkpt lat="47.554966108873487" lon="11.341533483937383">
        <ele>1091.23</ele>
        <time>2014-09-30T09:39:26Z</time>
      </trkpt>
      <trkpt lat="47.554736025631428" lon="11.341949896886945">
        <ele>1088.3499999999999</ele>
        <time>2014-09-30T09:39:32Z</time>
      </trkpt>
      <trkpt lat="47.55443612113595" lon="11.34223161265254">
        <ele>1083.0599999999999</ele>
        <time>2014-09-30T09:39:37Z</time>
      </trkpt>
      <trkpt lat="47.554368982091546" lon="11.342263715341687">
        <ele>1082.5799999999999</ele>
        <time>2014-09-30T09:39:38Z</time>
      </trkpt>
      <trkpt lat="47.554231351241469" lon="11.342326663434505">
        <ele>1080.6600000000001</ele>
        <time>2014-09-30T09:39:40Z</time>
      </trkpt>
      <trkpt lat="47.553991042077541" lon="11.342394053936005">
        <ele>1077.78</ele>
        <time>2014-09-30T09:39:43Z</time>
      </trkpt>
      <trkpt lat="47.55364160053432" lon="11.34244074113667">
        <ele>1073.45</ele>
        <time>2014-09-30T09:39:47Z</time>
      </trkpt>
      <trkpt lat="47.553559541702271" lon="11.342443590983748">
        <ele>1072.49</ele>
        <time>2014-09-30T09:39:48Z</time>
      </trkpt>
      <trkpt lat="47.553315460681915" lon="11.342822872102261">
        <ele>1072.01</ele>
        <time>2014-09-30T09:39:55Z</time>
      </trkpt>
      <trkpt lat="47.553379917517304" lon="11.343286307528615">
        <ele>1073.9300000000001</ele>
        <time>2014-09-30T09:40:07Z</time>
      </trkpt>
      <trkpt lat="47.55365677177906" lon="11.3434614893049">
        <ele>1073.9300000000001</ele>
        <time>2014-09-30T09:40:16Z</time>
      </trkpt>
      <trkpt lat="47.554061869159341" lon="11.343672629445791">
        <ele>1075.3699999999999</ele>
        <time>2014-09-30T09:40:28Z</time>
      </trkpt>
      <trkpt lat="47.554423045367002" lon="11.343885781243443">
        <ele>1077.29</ele>
        <time>2014-09-30T09:40:41Z</time>
      </trkpt>
      <trkpt lat="47.55455925129354" lon="11.34394864551723">
        <ele>1080.6600000000001</ele>
        <time>2014-09-30T09:40:50Z</time>
      </trkpt>
      <trkpt lat="47.554585738107562" lon="11.343965912237763">
        <ele>1081.1400000000001</ele>
        <time>2014-09-30T09:40:52Z</time>
      </trkpt>
      <trkpt lat="47.554822945967317" lon="11.344112679362297">
        <ele>1084.02</ele>
        <time>2014-09-30T09:41:06Z</time>
      </trkpt>
      <trkpt lat="47.555054789409041" lon="11.344273276627064">
        <ele>1085.95</ele>
        <time>2014-09-30T09:41:20Z</time>
      </trkpt>
      <trkpt lat="47.555185463279486" lon="11.344631854444742">
        <ele>1087.3900000000001</ele>
        <time>2014-09-30T09:41:34Z</time>
      </trkpt>
      <trkpt lat="47.555195270106196" lon="11.344804270192981">
        <ele>1089.3099999999999</ele>
        <time>2014-09-30T09:41:42Z</time>
      </trkpt>
      <trkpt lat="47.555210441350937" lon="11.344835450872779">
        <ele>1089.79</ele>
        <time>2014-09-30T09:41:45Z</time>
      </trkpt>
      <trkpt lat="47.555235419422388" lon="11.344864200800657">
        <ele>1089.79</ele>
        <time>2014-09-30T09:41:47Z</time>
      </trkpt>
      <trkpt lat="47.555233910679817" lon="11.344885155558586">
        <ele>1089.79</ele>
        <time>2014-09-30T09:41:48Z</time>
      </trkpt>
      <trkpt lat="47.555264169350266" lon="11.344915330410004">
        <ele>1090.75</ele>
        <time>2014-09-30T09:41:50Z</time>
      </trkpt>
      <trkpt lat="47.555307671427727" lon="11.344979116693139">
        <ele>1090.27</ele>
        <time>2014-09-30T09:41:53Z</time>
      </trkpt>
      <trkpt lat="47.555264420807362" lon="11.345422184094787">
        <ele>1093.6400000000001</ele>
        <time>2014-09-30T09:42:09Z</time>
      </trkpt>
      <trkpt lat="47.555231396108866" lon="11.345565179362893">
        <ele>1094.5999999999999</ele>
        <time>2014-09-30T09:42:16Z</time>
      </trkpt>
      <trkpt lat="47.555084964260459" lon="11.345746144652367">
        <ele>1097.96</ele>
        <time>2014-09-30T09:42:30Z</time>
      </trkpt>
      <trkpt lat="47.554930150508881" lon="11.345775900408626">
        <ele>1100.8499999999999</ele>
        <time>2014-09-30T09:42:44Z</time>
      </trkpt>
      <trkpt lat="47.554792854934931" lon="11.345815379172564">
        <ele>1103.73</ele>
        <time>2014-09-30T09:42:57Z</time>
      </trkpt>
      <trkpt lat="47.554635694250464" lon="11.3458894751966">
        <ele>1106.6099999999999</ele>
        <time>2014-09-30T09:43:12Z</time>
      </trkpt>
      <trkpt lat="47.554515833035111" lon="11.345996931195259">
        <ele>1109.5</ele>
        <time>2014-09-30T09:43:26Z</time>
      </trkpt>
      <trkpt lat="47.554486999288201" lon="11.346036242321134">
        <ele>1110.46</ele>
        <time>2014-09-30T09:43:30Z</time>
      </trkpt>
      <trkpt lat="47.554403766989708" lon="11.346214693039656">
        <ele>1112.8599999999999</ele>
        <time>2014-09-30T09:43:44Z</time>
      </trkpt>
      <trkpt lat="47.554319612681866" lon="11.346346205100417">
        <ele>1114.79</ele>
        <time>2014-09-30T09:43:56Z</time>
      </trkpt>
      <trkpt lat="47.554310895502567" lon="11.346376882866025">
        <ele>1115.75</ele>
        <time>2014-09-30T09:44:01Z</time>
      </trkpt>
      <trkpt lat="47.554281475022435" lon="11.346393898129463">
        <ele>1116.23</ele>
        <time>2014-09-30T09:44:04Z</time>
      </trkpt>
      <trkpt lat="47.55417812615633" lon="11.346510071307421">
        <ele>1119.5899999999999</ele>
        <time>2014-09-30T09:44:19Z</time>
      </trkpt>
      <trkpt lat="47.554068407043815" lon="11.346602607518435">
        <ele>1122</ele>
        <time>2014-09-30T09:44:33Z</time>
      </trkpt>
      <trkpt lat="47.554021552205086" lon="11.346641583368182">
        <ele>1122.96</ele>
        <time>2014-09-30T09:44:36Z</time>
      </trkpt>
      <trkpt lat="47.553873276337981" lon="11.346833696588874">
        <ele>1125.8399999999999</ele>
        <time>2014-09-30T09:44:51Z</time>
      </trkpt>
      <trkpt lat="47.553784511983395" lon="11.347028156742454">
        <ele>1128.24</ele>
        <time>2014-09-30T09:45:05Z</time>
      </trkpt>
      <trkpt lat="47.553770346567035" lon="11.347110131755471">
        <ele>1129.21</ele>
        <time>2014-09-30T09:45:10Z</time>
      </trkpt>
      <trkpt lat="47.553706225007772" lon="11.347234519198537">
        <ele>1131.6099999999999</ele>
        <time>2014-09-30T09:45:21Z</time>
      </trkpt>
      <trkpt lat="47.553694657981396" lon="11.347253881394863">
        <ele>1131.6099999999999</ele>
        <time>2014-09-30T09:45:23Z</time>
      </trkpt>
      <trkpt lat="47.553547639399767" lon="11.347529226914048">
        <ele>1134.01</ele>
        <time>2014-09-30T09:45:40Z</time>
      </trkpt>
      <trkpt lat="47.553333230316639" lon="11.347548337653279">
        <ele>1136.9000000000001</ele>
        <time>2014-09-30T09:45:58Z</time>
      </trkpt>
      <trkpt lat="47.553132567554712" lon="11.347546325996518">
        <ele>1139.3</ele>
        <time>2014-09-30T09:46:11Z</time>
      </trkpt>
      <trkpt lat="47.552932659164071" lon="11.347545823082328">
        <ele>1141.22</ele>
        <time>2014-09-30T09:46:25Z</time>
      </trkpt>
      <trkpt lat="47.552876500412822" lon="11.347542721778154">
        <ele>1142.1800000000001</ele>
        <time>2014-09-30T09:46:30Z</time>
      </trkpt>
      <trkpt lat="47.552757309749722" lon="11.347576919943094">
        <ele>1144.1099999999999</ele>
        <time>2014-09-30T09:46:42Z</time>
      </trkpt>
      <trkpt lat="47.55272638052702" lon="11.347607094794512">
        <ele>1144.1099999999999</ele>
        <time>2014-09-30T09:46:55Z</time>
      </trkpt>
      <trkpt lat="47.552725123241544" lon="11.347623355686665">
        <ele>1144.5899999999999</ele>
        <time>2014-09-30T09:46:56Z</time>
      </trkpt>
      <trkpt lat="47.552739372476935" lon="11.347664929926395">
        <ele>1145.0699999999999</ele>
        <time>2014-09-30T09:46:58Z</time>
      </trkpt>
      <trkpt lat="47.552713891491294" lon="11.347932396456599">
        <ele>1147.95</ele>
        <time>2014-09-30T09:47:13Z</time>
      </trkpt>
      <trkpt lat="47.552711544558406" lon="11.348199360072613">
        <ele>1150.3499999999999</ele>
        <time>2014-09-30T09:47:27Z</time>
      </trkpt>
      <trkpt lat="47.552764602005482" lon="11.348533378913999">
        <ele>1153.24</ele>
        <time>2014-09-30T09:47:44Z</time>
      </trkpt>
      <trkpt lat="47.552773151546717" lon="11.348570678383112">
        <ele>1154.2</ele>
        <time>2014-09-30T09:47:46Z</time>
      </trkpt>
      <trkpt lat="47.552872896194458" lon="11.348848454654217">
        <ele>1156.5999999999999</ele>
        <time>2014-09-30T09:48:01Z</time>
      </trkpt>
      <trkpt lat="47.552978759631515" lon="11.348923472687602">
        <ele>1157.0799999999999</ele>
        <time>2014-09-30T09:48:08Z</time>
      </trkpt>
      <trkpt lat="47.553299115970731" lon="11.348913665860891">
        <ele>1158.53</ele>
        <time>2014-09-30T09:48:24Z</time>
      </trkpt>
      <trkpt lat="47.553426939994097" lon="11.34883638471365">
        <ele>1159.01</ele>
        <time>2014-09-30T09:48:37Z</time>
      </trkpt>
      <trkpt lat="47.553426939994097" lon="11.34883638471365">
        <ele>1158.53</ele>
        <time>2014-09-30T09:49:03Z</time>
      </trkpt>
      <trkpt lat="47.553565241396427" lon="11.348756086081266">
        <ele>1159.49</ele>
        <time>2014-09-30T09:49:14Z</time>
      </trkpt>
      <trkpt lat="47.553837904706597" lon="11.348510244861245">
        <ele>1161.8900000000001</ele>
        <time>2014-09-30T09:49:29Z</time>
      </trkpt>
      <trkpt lat="47.554063880816102" lon="11.348332799971104">
        <ele>1163.3299999999999</ele>
        <time>2014-09-30T09:49:41Z</time>
      </trkpt>
      <trkpt lat="47.554296897724271" lon="11.348462551832199">
        <ele>1166.22</ele>
        <time>2014-09-30T09:49:55Z</time>
      </trkpt>
      <trkpt lat="47.55437065847218" lon="11.348575623705983">
        <ele>1167.1800000000001</ele>
        <time>2014-09-30T09:50:03Z</time>
      </trkpt>
      <trkpt lat="47.554517006501555" lon="11.348775951191783">
        <ele>1170.54</ele>
        <time>2014-09-30T09:50:17Z</time>
      </trkpt>
      <trkpt lat="47.554619181901217" lon="11.34904551319778">
        <ele>1173.4300000000001</ele>
        <time>2014-09-30T09:50:32Z</time>
      </trkpt>
      <trkpt lat="47.55466184578836" lon="11.349134864285588">
        <ele>1175.3499999999999</ele>
        <time>2014-09-30T09:50:38Z</time>
      </trkpt>
      <trkpt lat="47.554723620414734" lon="11.349345920607448">
        <ele>1177.27</ele>
        <time>2014-09-30T09:50:53Z</time>
      </trkpt>
      <trkpt lat="47.554751532152295" lon="11.349629061296582">
        <ele>1180.6400000000001</ele>
        <time>2014-09-30T09:51:10Z</time>
      </trkpt>
      <trkpt lat="47.554803248494864" lon="11.349859982728958">
        <ele>1184</ele>
        <time>2014-09-30T09:51:25Z</time>
      </trkpt>
      <trkpt lat="47.554827388375998" lon="11.34992896579206">
        <ele>1184.96</ele>
        <time>2014-09-30T09:51:30Z</time>
      </trkpt>
      <trkpt lat="47.554828394204378" lon="11.349959392100573">
        <ele>1184.96</ele>
        <time>2014-09-30T09:51:32Z</time>
      </trkpt>
      <trkpt lat="47.554890085011721" lon="11.350138513371348">
        <ele>1187.8499999999999</ele>
        <time>2014-09-30T09:51:46Z</time>
      </trkpt>
      <trkpt lat="47.55490911193192" lon="11.350194504484534">
        <ele>1188.8099999999999</ele>
        <time>2014-09-30T09:51:51Z</time>
      </trkpt>
      <trkpt lat="47.554923947900534" lon="11.350240437313914">
        <ele>1189.29</ele>
        <time>2014-09-30T09:51:54Z</time>
      </trkpt>
      <trkpt lat="47.555008856579661" lon="11.350346719846129">
        <ele>1191.21</ele>
        <time>2014-09-30T09:52:04Z</time>
      </trkpt>
      <trkpt lat="47.555132741108537" lon="11.350443949922919">
        <ele>1193.1300000000001</ele>
        <time>2014-09-30T09:52:15Z</time>
      </trkpt>
      <trkpt lat="47.555234748870134" lon="11.350647546350956">
        <ele>1195.54</ele>
        <time>2014-09-30T09:52:30Z</time>
      </trkpt>
      <trkpt lat="47.555299205705523" lon="11.350748967379332">
        <ele>1196.98</ele>
        <time>2014-09-30T09:52:38Z</time>
      </trkpt>
      <trkpt lat="47.555332565680146" lon="11.350833037868142">
        <ele>1198.4200000000001</ele>
        <time>2014-09-30T09:52:44Z</time>
      </trkpt>
      <trkpt lat="47.555372128263116" lon="11.35089598596096">
        <ele>1199.8599999999999</ele>
        <time>2014-09-30T09:52:50Z</time>
      </trkpt>
      <trkpt lat="47.555409511551261" lon="11.350929848849773">
        <ele>1200.3399999999999</ele>
        <time>2014-09-30T09:52:54Z</time>
      </trkpt>
      <trkpt lat="47.555593829602003" lon="11.351060690358281">
        <ele>1200.8199999999999</ele>
        <time>2014-09-30T09:53:06Z</time>
      </trkpt>
      <trkpt lat="47.555720312520862" lon="11.351085584610701">
        <ele>1201.79</ele>
        <time>2014-09-30T09:53:12Z</time>
      </trkpt>
      <trkpt lat="47.555761467665434" lon="11.351053565740585">
        <ele>1202.75</ele>
        <time>2014-09-30T09:53:16Z</time>
      </trkpt>
      <trkpt lat="47.5557891279459" lon="11.351051051169634">
        <ele>1203.23</ele>
        <time>2014-09-30T09:53:18Z</time>
      </trkpt>
      <trkpt lat="47.555841933935881" lon="11.351005956530571">
        <ele>1203.71</ele>
        <time>2014-09-30T09:53:23Z</time>
      </trkpt>
      <trkpt lat="47.55590102635324" lon="11.35097024962306">
        <ele>1205.1500000000001</ele>
        <time>2014-09-30T09:53:28Z</time>
      </trkpt>
      <trkpt lat="47.555921310558915" lon="11.350947367027402">
        <ele>1205.1500000000001</ele>
        <time>2014-09-30T09:53:30Z</time>
      </trkpt>
      <trkpt lat="47.556088445708156" lon="11.350889867171645">
        <ele>1207.0699999999999</ele>
        <time>2014-09-30T09:53:44Z</time>
      </trkpt>
      <trkpt lat="47.556095402687788" lon="11.35088324546814">
        <ele>1207.0699999999999</ele>
        <time>2014-09-30T09:53:58Z</time>
      </trkpt>
      <trkpt lat="47.556095402687788" lon="11.35088324546814">
        <ele>1207.55</ele>
        <time>2014-09-30T09:54:22Z</time>
      </trkpt>
      <trkpt lat="47.556145191192627" lon="11.3508974108845">
        <ele>1208.51</ele>
        <time>2014-09-30T09:54:28Z</time>
      </trkpt>
      <trkpt lat="47.556187938898802" lon="11.350959353148937">
        <ele>1209</ele>
        <time>2014-09-30T09:54:32Z</time>
      </trkpt>
      <trkpt lat="47.556356079876423" lon="11.351135540753603">
        <ele>1211.4000000000001</ele>
        <time>2014-09-30T09:54:45Z</time>
      </trkpt>
      <trkpt lat="47.55637695081532" lon="11.3511305116117">
        <ele>1212.3599999999999</ele>
        <time>2014-09-30T09:54:49Z</time>
      </trkpt>
      <trkpt lat="47.556564453989267" lon="11.351207541301847">
        <ele>1213.8</ele>
        <time>2014-09-30T09:55:02Z</time>
      </trkpt>
      <trkpt lat="47.556605944409966" lon="11.35123360902071">
        <ele>1214.28</ele>
        <time>2014-09-30T09:55:04Z</time>
      </trkpt>
      <trkpt lat="47.556673167273402" lon="11.351261353120208">
        <ele>1214.28</ele>
        <time>2014-09-30T09:55:08Z</time>
      </trkpt>
      <trkpt lat="47.556930407881737" lon="11.351345842704177">
        <ele>1213.8</ele>
        <time>2014-09-30T09:55:18Z</time>
      </trkpt>
      <trkpt lat="47.557291751727462" lon="11.351148197427392">
        <ele>1213.3199999999999</ele>
        <time>2014-09-30T09:55:28Z</time>
      </trkpt>
      <trkpt lat="47.557556536048651" lon="11.351223299279809">
        <ele>1213.8</ele>
        <time>2014-09-30T09:55:37Z</time>
      </trkpt>
      <trkpt lat="47.557926094159484" lon="11.351488502696157">
        <ele>1214.76</ele>
        <time>2014-09-30T09:55:49Z</time>
      </trkpt>
      <trkpt lat="47.558132708072662" lon="11.351612387225032">
        <ele>1216.6900000000001</ele>
        <time>2014-09-30T09:55:58Z</time>
      </trkpt>
      <trkpt lat="47.558302776888013" lon="11.351656643673778">
        <ele>1218.6099999999999</ele>
        <time>2014-09-30T09:56:09Z</time>
      </trkpt>
      <trkpt lat="47.558510731905699" lon="11.351772397756577">
        <ele>1221.49</ele>
        <time>2014-09-30T09:56:20Z</time>
      </trkpt>
      <trkpt lat="47.558715669438243" lon="11.351979095488787">
        <ele>1223.9000000000001</ele>
        <time>2014-09-30T09:56:33Z</time>
      </trkpt>
      <trkpt lat="47.55884257145226" lon="11.352112032473087">
        <ele>1226.3</ele>
        <time>2014-09-30T09:56:45Z</time>
      </trkpt>
      <trkpt lat="47.559006186202168" lon="11.352308420464396">
        <ele>1229.1800000000001</ele>
        <time>2014-09-30T09:57:00Z</time>
      </trkpt>
      <trkpt lat="47.55909277126193" lon="11.352543449029326">
        <ele>1231.5899999999999</ele>
        <time>2014-09-30T09:57:15Z</time>
      </trkpt>
      <trkpt lat="47.559090005233884" lon="11.352567169815302">
        <ele>1232.0699999999999</ele>
        <time>2014-09-30T09:57:17Z</time>
      </trkpt>
      <trkpt lat="47.55907466635108" lon="11.35264378041029">
        <ele>1233.03</ele>
        <time>2014-09-30T09:57:21Z</time>
      </trkpt>
      <trkpt lat="47.559075001627207" lon="11.352671859785914">
        <ele>1232.55</ele>
        <time>2014-09-30T09:57:23Z</time>
      </trkpt>
      <trkpt lat="47.559072151780128" lon="11.352722654119134">
        <ele>1233.51</ele>
        <time>2014-09-30T09:57:26Z</time>
      </trkpt>
      <trkpt lat="47.559057818725705" lon="11.352841593325138">
        <ele>1234.95</ele>
        <time>2014-09-30T09:57:32Z</time>
      </trkpt>
      <trkpt lat="47.559047257527709" lon="11.353106461465359">
        <ele>1235.4300000000001</ele>
        <time>2014-09-30T09:57:41Z</time>
      </trkpt>
      <trkpt lat="47.559018088504672" lon="11.353198159486055">
        <ele>1235.4300000000001</ele>
        <time>2014-09-30T09:57:45Z</time>
      </trkpt>
      <trkpt lat="47.558845756575465" lon="11.353669222444296">
        <ele>1234.47</ele>
        <time>2014-09-30T09:57:57Z</time>
      </trkpt>
      <trkpt lat="47.55881960503757" lon="11.353963762521744">
        <ele>1233.51</ele>
        <time>2014-09-30T09:58:02Z</time>
      </trkpt>
      <trkpt lat="47.559041725471616" lon="11.354169873520732">
        <ele>1233.03</ele>
        <time>2014-09-30T09:58:09Z</time>
      </trkpt>
      <trkpt lat="47.559312880039215" lon="11.35436181910336">
        <ele>1232.0699999999999</ele>
        <time>2014-09-30T09:58:16Z</time>
      </trkpt>
      <trkpt lat="47.55938982591033" lon="11.354880491271615">
        <ele>1232.0699999999999</ele>
        <time>2014-09-30T09:58:26Z</time>
      </trkpt>
      <trkpt lat="47.559395274147391" lon="11.355549870058894">
        <ele>1233.03</ele>
        <time>2014-09-30T09:58:38Z</time>
      </trkpt>
      <trkpt lat="47.559335762634873" lon="11.356268953531981">
        <ele>1232.55</ele>
        <time>2014-09-30T09:58:51Z</time>
      </trkpt>
      <trkpt lat="47.559317573904991" lon="11.356335254386067">
        <ele>1231.5899999999999</ele>
        <time>2014-09-30T09:58:52Z</time>
      </trkpt>
      <trkpt lat="47.55929209291935" lon="11.356938667595387">
        <ele>1228.7</ele>
        <time>2014-09-30T09:59:00Z</time>
      </trkpt>
      <trkpt lat="47.559249931946397" lon="11.357460524886847">
        <ele>1225.3399999999999</ele>
        <time>2014-09-30T09:59:06Z</time>
      </trkpt>
      <trkpt lat="47.55924079567194" lon="11.357643334195018">
        <ele>1224.8599999999999</ele>
        <time>2014-09-30T09:59:08Z</time>
      </trkpt>
      <trkpt lat="47.559336600825191" lon="11.357980202883482">
        <ele>1222.9300000000001</ele>
        <time>2014-09-30T09:59:12Z</time>
      </trkpt>
      <trkpt lat="47.559551931917667" lon="11.358293602243066">
        <ele>1221.49</ele>
        <time>2014-09-30T09:59:17Z</time>
      </trkpt>
      <trkpt lat="47.559638516977429" lon="11.358421426266432">
        <ele>1220.05</ele>
        <time>2014-09-30T09:59:19Z</time>
      </trkpt>
      <trkpt lat="47.559770699590445" lon="11.358586801216006">
        <ele>1218.1300000000001</ele>
        <time>2014-09-30T09:59:22Z</time>
      </trkpt>
      <trkpt lat="47.560034980997443" lon="11.358728874474764">
        <ele>1216.6900000000001</ele>
        <time>2014-09-30T09:59:27Z</time>
      </trkpt>
      <trkpt lat="47.560191471129656" lon="11.358807915821671">
        <ele>1215.72</ele>
        <time>2014-09-30T09:59:30Z</time>
      </trkpt>
      <trkpt lat="47.560373190790415" lon="11.359017379581928">
        <ele>1211.8800000000001</ele>
        <time>2014-09-30T09:59:35Z</time>
      </trkpt>
      <trkpt lat="47.560346117243171" lon="11.359225921332836">
        <ele>1211.4000000000001</ele>
        <time>2014-09-30T09:59:39Z</time>
      </trkpt>
      <trkpt lat="47.560142436996102" lon="11.359328180551529">
        <ele>1212.8399999999999</ele>
        <time>2014-09-30T09:59:50Z</time>
      </trkpt>
      <trkpt lat="47.560009500011802" lon="11.359379813075066">
        <ele>1215.72</ele>
        <time>2014-09-30T10:00:02Z</time>
      </trkpt>
      <trkpt lat="47.559893662109971" lon="11.359403114765882">
        <ele>1217.6500000000001</ele>
        <time>2014-09-30T10:00:11Z</time>
      </trkpt>
      <trkpt lat="47.559725185856223" lon="11.35939666070044">
        <ele>1220.53</ele>
        <time>2014-09-30T10:00:24Z</time>
      </trkpt>
      <trkpt lat="47.55958235822618" lon="11.359377633780241">
        <ele>1222.45</ele>
        <time>2014-09-30T10:00:34Z</time>
      </trkpt>
      <trkpt lat="47.559553692117333" lon="11.359384171664715">
        <ele>1222.9300000000001</ele>
        <time>2014-09-30T10:00:36Z</time>
      </trkpt>
      <trkpt lat="47.55936635658145" lon="11.359369503334165">
        <ele>1225.8199999999999</ele>
        <time>2014-09-30T10:00:50Z</time>
      </trkpt>
      <trkpt lat="47.559267785400152" lon="11.359353912994266">
        <ele>1227.26</ele>
        <time>2014-09-30T10:00:59Z</time>
      </trkpt>
      <trkpt lat="47.559141302481294" lon="11.359302029013634">
        <ele>1229.6600000000001</ele>
        <time>2014-09-30T10:01:11Z</time>
      </trkpt>
      <trkpt lat="47.559039546176791" lon="11.359237153083086">
        <ele>1231.5899999999999</ele>
        <time>2014-09-30T10:01:21Z</time>
      </trkpt>
      <trkpt lat="47.558999145403504" lon="11.359201278537512">
        <ele>1232.0699999999999</ele>
        <time>2014-09-30T10:01:24Z</time>
      </trkpt>
      <trkpt lat="47.558948770165443" lon="11.359107233583927">
        <ele>1234.47</ele>
        <time>2014-09-30T10:01:36Z</time>
      </trkpt>
      <trkpt lat="47.55881910212338" lon="11.359008075669408">
        <ele>1236.3900000000001</ele>
        <time>2014-09-30T10:01:49Z</time>
      </trkpt>
      <trkpt lat="47.558690439909697" lon="11.358929621055722">
        <ele>1238.8</ele>
        <time>2014-09-30T10:02:01Z</time>
      </trkpt>
      <trkpt lat="47.558663450181484" lon="11.358909253031015">
        <ele>1239.28</ele>
        <time>2014-09-30T10:02:04Z</time>
      </trkpt>
      <trkpt lat="47.558533949777484" lon="11.35885426774621">
        <ele>1241.2</ele>
        <time>2014-09-30T10:02:15Z</time>
      </trkpt>
      <trkpt lat="47.55848340690136" lon="11.358793750405312">
        <ele>1241.6800000000001</ele>
        <time>2014-09-30T10:02:23Z</time>
      </trkpt>
      <trkpt lat="47.558408388867974" lon="11.358574312180281">
        <ele>1244.5599999999999</ele>
        <time>2014-09-30T10:02:38Z</time>
      </trkpt>
      <trkpt lat="47.558264136314392" lon="11.358387479558587">
        <ele>1246.97</ele>
        <time>2014-09-30T10:02:52Z</time>
      </trkpt>
      <trkpt lat="47.558264136314392" lon="11.358387479558587">
        <ele>1246.97</ele>
        <time>2014-09-30T10:02:53Z</time>
      </trkpt>
      <trkpt lat="47.558102617040277" lon="11.35834070853889">
        <ele>1248.4100000000001</ele>
        <time>2014-09-30T10:03:03Z</time>
      </trkpt>
      <trkpt lat="47.557946294546127" lon="11.358308689668775">
        <ele>1248.8900000000001</ele>
        <time>2014-09-30T10:03:12Z</time>
      </trkpt>
      <trkpt lat="47.557792654260993" lon="11.358274826779962">
        <ele>1250.8099999999999</ele>
        <time>2014-09-30T10:03:20Z</time>
      </trkpt>
      <trkpt lat="47.557705901563168" lon="11.358271893113852">
        <ele>1251.77</ele>
        <time>2014-09-30T10:03:27Z</time>
      </trkpt>
      <trkpt lat="47.557609928771853" lon="11.358169969171286">
        <ele>1253.22</ele>
        <time>2014-09-30T10:03:39Z</time>
      </trkpt>
      <trkpt lat="47.557556368410587" lon="11.358059160411358">
        <ele>1253.7</ele>
        <time>2014-09-30T10:03:46Z</time>
      </trkpt>
      <trkpt lat="47.557489899918437" lon="11.357886996120214">
        <ele>1254.1800000000001</ele>
        <time>2014-09-30T10:03:54Z</time>
      </trkpt>
      <trkpt lat="47.557334499433637" lon="11.357613410800695">
        <ele>1254.6600000000001</ele>
        <time>2014-09-30T10:04:02Z</time>
      </trkpt>
      <trkpt lat="47.557311868295074" lon="11.357444683089852">
        <ele>1254.6600000000001</ele>
        <time>2014-09-30T10:04:09Z</time>
      </trkpt>
      <trkpt lat="47.557202568277717" lon="11.357375951483846">
        <ele>1254.6600000000001</ele>
        <time>2014-09-30T10:04:14Z</time>
      </trkpt>
      <trkpt lat="47.557099722325802" lon="11.357426242902875">
        <ele>1255.6199999999999</ele>
        <time>2014-09-30T10:04:20Z</time>
      </trkpt>
      <trkpt lat="47.556891767308116" lon="11.357479384168983">
        <ele>1257.54</ele>
        <time>2014-09-30T10:04:33Z</time>
      </trkpt>
      <trkpt lat="47.556523215025663" lon="11.357210660353303">
        <ele>1258.98</ele>
        <time>2014-09-30T10:04:44Z</time>
      </trkpt>
      <trkpt lat="47.556454483419657" lon="11.357198841869831">
        <ele>1260.4300000000001</ele>
        <time>2014-09-30T10:04:49Z</time>
      </trkpt>
      <trkpt lat="47.556352727115154" lon="11.357217198237777">
        <ele>1261.8699999999999</ele>
        <time>2014-09-30T10:04:55Z</time>
      </trkpt>
      <trkpt lat="47.556337052956223" lon="11.357219209894538">
        <ele>1262.3499999999999</ele>
        <time>2014-09-30T10:04:58Z</time>
      </trkpt>
      <trkpt lat="47.556293047964573" lon="11.357201356440783">
        <ele>1263.3099999999999</ele>
        <time>2014-09-30T10:05:02Z</time>
      </trkpt>
      <trkpt lat="47.556157847866416" lon="11.357110245153308">
        <ele>1266.6700000000001</ele>
        <time>2014-09-30T10:05:16Z</time>
      </trkpt>
      <trkpt lat="47.556151896715164" lon="11.357095660641789">
        <ele>1266.6700000000001</ele>
        <time>2014-09-30T10:05:18Z</time>
      </trkpt>
      <trkpt lat="47.556075286120176" lon="11.35691930539906">
        <ele>1269.0799999999999</ele>
        <time>2014-09-30T10:05:32Z</time>
      </trkpt>
      <trkpt lat="47.556065144017339" lon="11.356905559077859">
        <ele>1268.5999999999999</ele>
        <time>2014-09-30T10:05:33Z</time>
      </trkpt>
      <trkpt lat="47.556040249764919" lon="11.356866750866175">
        <ele>1269.0799999999999</ele>
        <time>2014-09-30T10:05:36Z</time>
      </trkpt>
      <trkpt lat="47.555968081578612" lon="11.356724258512259">
        <ele>1272.4400000000001</ele>
        <time>2014-09-30T10:05:51Z</time>
      </trkpt>
      <trkpt lat="47.555840006098151" lon="11.356535330414772">
        <ele>1275.8099999999999</ele>
        <time>2014-09-30T10:06:05Z</time>
      </trkpt>
      <trkpt lat="47.555725676938891" lon="11.356418654322624">
        <ele>1279.1700000000001</ele>
        <time>2014-09-30T10:06:18Z</time>
      </trkpt>
      <trkpt lat="47.555649066343904" lon="11.356375655159354">
        <ele>1280.6099999999999</ele>
        <time>2014-09-30T10:06:29Z</time>
      </trkpt>
      <trkpt lat="47.555603636428714" lon="11.356340702623129">
        <ele>1283.02</ele>
        <time>2014-09-30T10:06:41Z</time>
      </trkpt>
      <trkpt lat="47.555501209571958" lon="11.356182955205441">
        <ele>1284.9400000000001</ele>
        <time>2014-09-30T10:06:54Z</time>
      </trkpt>
      <trkpt lat="47.555428706109524" lon="11.356019759550691">
        <ele>1286.3800000000001</ele>
        <time>2014-09-30T10:07:06Z</time>
      </trkpt>
      <trkpt lat="47.555335415527225" lon="11.355858407914639">
        <ele>1287.3399999999999</ele>
        <time>2014-09-30T10:07:14Z</time>
      </trkpt>
      <trkpt lat="47.555305492132902" lon="11.355717005208135">
        <ele>1288.3</ele>
        <time>2014-09-30T10:07:23Z</time>
      </trkpt>
      <trkpt lat="47.555286297574639" lon="11.35565129108727">
        <ele>1289.75</ele>
        <time>2014-09-30T10:07:26Z</time>
      </trkpt>
      <trkpt lat="47.555256960913539" lon="11.355575686320662">
        <ele>1289.75</ele>
        <time>2014-09-30T10:07:30Z</time>
      </trkpt>
      <trkpt lat="47.555219829082489" lon="11.355508798733354">
        <ele>1290.23</ele>
        <time>2014-09-30T10:07:34Z</time>
      </trkpt>
      <trkpt lat="47.555222259834409" lon="11.355316853150725">
        <ele>1291.6700000000001</ele>
        <time>2014-09-30T10:07:44Z</time>
      </trkpt>
      <trkpt lat="47.555183786898851" lon="11.355015523731709">
        <ele>1292.6300000000001</ele>
        <time>2014-09-30T10:07:58Z</time>
      </trkpt>
      <trkpt lat="47.555027296766639" lon="11.354712685570121">
        <ele>1294.55</ele>
        <time>2014-09-30T10:08:10Z</time>
      </trkpt>
      <trkpt lat="47.554948339238763" lon="11.354532139375806">
        <ele>1295.51</ele>
        <time>2014-09-30T10:08:18Z</time>
      </trkpt>
      <trkpt lat="47.554936353117228" lon="11.354498276486993">
        <ele>1295.99</ele>
        <time>2014-09-30T10:08:20Z</time>
      </trkpt>
      <trkpt lat="47.554848091676831" lon="11.354351341724396">
        <ele>1295.99</ele>
        <time>2014-09-30T10:08:29Z</time>
      </trkpt>
      <trkpt lat="47.554793441668153" lon="11.354301301762462">
        <ele>1302.24</ele>
        <time>2014-09-30T10:08:33Z</time>
      </trkpt>
      <trkpt lat="47.554779360070825" lon="11.354288477450609">
        <ele>1296.48</ele>
        <time>2014-09-30T10:08:34Z</time>
      </trkpt>
      <trkpt lat="47.554608872160316" lon="11.35419175028801">
        <ele>1295.99</ele>
        <time>2014-09-30T10:08:47Z</time>
      </trkpt>
      <trkpt lat="47.554573835805058" lon="11.354130813851953">
        <ele>1295.51</ele>
        <time>2014-09-30T10:08:59Z</time>
      </trkpt>
      <trkpt lat="47.554574506357312" lon="11.354121929034591">
        <ele>1295.99</ele>
        <time>2014-09-30T10:09:18Z</time>
      </trkpt>
      <trkpt lat="47.554549863561988" lon="11.354141794145107">
        <ele>1295.99</ele>
        <time>2014-09-30T10:09:47Z</time>
      </trkpt>
      <trkpt lat="47.554543828591704" lon="11.354073733091354">
        <ele>1296.96</ele>
        <time>2014-09-30T10:09:54Z</time>
      </trkpt>
      <trkpt lat="47.55452404730022" lon="11.35404959321022">
        <ele>1296.48</ele>
        <time>2014-09-30T10:09:56Z</time>
      </trkpt>
      <trkpt lat="47.554467134177685" lon="11.35392646305263">
        <ele>1296.48</ele>
        <time>2014-09-30T10:10:09Z</time>
      </trkpt>
      <trkpt lat="47.554467553272843" lon="11.353926379233599">
        <ele>1296.48</ele>
        <time>2014-09-30T10:10:51Z</time>
      </trkpt>
      <trkpt lat="47.554469145834446" lon="11.353925792500377">
        <ele>1296.48</ele>
        <time>2014-09-30T10:11:31Z</time>
      </trkpt>
      <trkpt lat="47.554471241310239" lon="11.353926965966821">
        <ele>1296.96</ele>
        <time>2014-09-30T10:12:09Z</time>
      </trkpt>
      <trkpt lat="47.554470151662827" lon="11.353921853005886">
        <ele>1296.96</ele>
        <time>2014-09-30T10:12:57Z</time>
      </trkpt>
      <trkpt lat="47.554469900205731" lon="11.353915398940444">
        <ele>1296.48</ele>
        <time>2014-09-30T10:13:41Z</time>
      </trkpt>
      <trkpt lat="47.554471911862493" lon="11.353909866884351">
        <ele>1297.4400000000001</ele>
        <time>2014-09-30T10:14:21Z</time>
      </trkpt>
      <trkpt lat="47.554472163319588" lon="11.35391472838819">
        <ele>1296.96</ele>
        <time>2014-09-30T10:15:01Z</time>
      </trkpt>
      <trkpt lat="47.554473085328937" lon="11.353914896026254">
        <ele>1296.96</ele>
        <time>2014-09-30T10:15:42Z</time>
      </trkpt>
      <trkpt lat="47.554471325129271" lon="11.353916907683015">
        <ele>1297.4400000000001</ele>
        <time>2014-09-30T10:16:30Z</time>
      </trkpt>
      <trkpt lat="47.554469564929605" lon="11.353916907683015">
        <ele>1297.4400000000001</ele>
        <time>2014-09-30T10:17:12Z</time>
      </trkpt>
      <trkpt lat="47.554470738396049" lon="11.353906849399209">
        <ele>1297.4400000000001</ele>
        <time>2014-09-30T10:17:51Z</time>
      </trkpt>
      <trkpt lat="47.554466463625431" lon="11.353906765580177">
        <ele>1297.9200000000001</ele>
        <time>2014-09-30T10:18:34Z</time>
      </trkpt>
      <trkpt lat="47.554466715082526" lon="11.353909950703382">
        <ele>1297.4400000000001</ele>
        <time>2014-09-30T10:19:02Z</time>
      </trkpt>
      <trkpt lat="47.55446252413094" lon="11.353908777236938">
        <ele>1297.4400000000001</ele>
        <time>2014-09-30T10:19:39Z</time>
      </trkpt>
      <trkpt lat="47.554460428655148" lon="11.353909615427256">
        <ele>1297.4400000000001</ele>
        <time>2014-09-30T10:20:15Z</time>
      </trkpt>
      <trkpt lat="47.554455902427435" lon="11.353913890197873">
        <ele>1296.96</ele>
        <time>2014-09-30T10:20:57Z</time>
      </trkpt>
      <trkpt lat="47.55445808172226" lon="11.353909783065319">
        <ele>1296.96</ele>
        <time>2014-09-30T10:21:30Z</time>
      </trkpt>
      <trkpt lat="47.55445808172226" lon="11.353909783065319">
        <ele>1297.4400000000001</ele>
        <time>2014-09-30T10:22:06Z</time>
      </trkpt>
      <trkpt lat="47.554453471675515" lon="11.353911124169827">
        <ele>1297.4400000000001</ele>
        <time>2014-09-30T10:22:44Z</time>
      </trkpt>
      <trkpt lat="47.554448777809739" lon="11.353911962360144">
        <ele>1296.96</ele>
        <time>2014-09-30T10:23:25Z</time>
      </trkpt>
      <trkpt lat="47.554447939619422" lon="11.353905508294702">
        <ele>1297.4400000000001</ele>
        <time>2014-09-30T10:24:02Z</time>
      </trkpt>
      <trkpt lat="47.554447688162327" lon="11.353903161361814">
        <ele>1297.4400000000001</ele>
        <time>2014-09-30T10:24:19Z</time>
      </trkpt>
      <trkpt lat="47.554464200511575" lon="11.353943813592196">
        <ele>1297.4400000000001</ele>
        <time>2014-09-30T10:24:28Z</time>
      </trkpt>
      <trkpt lat="47.554563777521253" lon="11.354173477739096">
        <ele>1296.96</ele>
        <time>2014-09-30T10:24:40Z</time>
      </trkpt>
      <trkpt lat="47.554572662338614" lon="11.354172304272652">
        <ele>1296.96</ele>
        <time>2014-09-30T10:24:42Z</time>
      </trkpt>
      <trkpt lat="47.554645501077175" lon="11.354150008410215">
        <ele>1296.96</ele>
        <time>2014-09-30T10:24:54Z</time>
      </trkpt>
      <trkpt lat="47.554653631523252" lon="11.354137184098363">
        <ele>1296.48</ele>
        <time>2014-09-30T10:24:55Z</time>
      </trkpt>
      <trkpt lat="47.554766200482845" lon="11.353919506072998">
        <ele>1293.1099999999999</ele>
        <time>2014-09-30T10:25:03Z</time>
      </trkpt>
      <trkpt lat="47.554792519658804" lon="11.35368263348937">
        <ele>1290.71</ele>
        <time>2014-09-30T10:25:09Z</time>
      </trkpt>
      <trkpt lat="47.55486317910254" lon="11.353428829461336">
        <ele>1288.3</ele>
        <time>2014-09-30T10:25:16Z</time>
      </trkpt>
      <trkpt lat="47.554891426116228" lon="11.3533616065979">
        <ele>1286.3800000000001</ele>
        <time>2014-09-30T10:25:19Z</time>
      </trkpt>
      <trkpt lat="47.554879607632756" lon="11.353299412876368">
        <ele>1285.4200000000001</ele>
        <time>2014-09-30T10:25:22Z</time>
      </trkpt>
      <trkpt lat="47.554779946804047" lon="11.353236213326454">
        <ele>1283.02</ele>
        <time>2014-09-30T10:25:26Z</time>
      </trkpt>
      <trkpt lat="47.55471951328218" lon="11.353203104808927">
        <ele>1281.5699999999999</ele>
        <time>2014-09-30T10:25:28Z</time>
      </trkpt>
      <trkpt lat="47.554633179679513" lon="11.353115765377879">
        <ele>1279.6500000000001</ele>
        <time>2014-09-30T10:25:32Z</time>
      </trkpt>
      <trkpt lat="47.554581463336945" lon="11.35312263853848">
        <ele>1278.21</ele>
        <time>2014-09-30T10:25:34Z</time>
      </trkpt>
      <trkpt lat="47.554523795843124" lon="11.353181730955839">
        <ele>1277.25</ele>
        <time>2014-09-30T10:25:37Z</time>
      </trkpt>
      <trkpt lat="47.554472582414746" lon="11.35320913977921">
        <ele>1276.29</ele>
        <time>2014-09-30T10:25:39Z</time>
      </trkpt>
      <trkpt lat="47.55435548722744" lon="11.353202350437641">
        <ele>1275.8099999999999</ele>
        <time>2014-09-30T10:25:44Z</time>
      </trkpt>
      <trkpt lat="47.554294215515256" lon="11.352863050997257">
        <ele>1274.3599999999999</ele>
        <time>2014-09-30T10:25:53Z</time>
      </trkpt>
      <trkpt lat="47.554263034835458" lon="11.352608827874064">
        <ele>1270.52</ele>
        <time>2014-09-30T10:26:03Z</time>
      </trkpt>
      <trkpt lat="47.55424065515399" lon="11.352597344666719">
        <ele>1269.5599999999999</ele>
        <time>2014-09-30T10:26:05Z</time>
      </trkpt>
      <trkpt lat="47.554216347634792" lon="11.352599356323481">
        <ele>1268.1199999999999</ele>
        <time>2014-09-30T10:26:07Z</time>
      </trkpt>
      <trkpt lat="47.5541952252388" lon="11.35260371491313">
        <ele>1267.6400000000001</ele>
        <time>2014-09-30T10:26:08Z</time>
      </trkpt>
      <trkpt lat="47.554103108122945" lon="11.352624837309122">
        <ele>1264.75</ele>
        <time>2014-09-30T10:26:13Z</time>
      </trkpt>
      <trkpt lat="47.554062372073531" lon="11.352626597508788">
        <ele>1264.27</ele>
        <time>2014-09-30T10:26:15Z</time>
      </trkpt>
      <trkpt lat="47.553961537778378" lon="11.352804880589247">
        <ele>1259.46</ele>
        <time>2014-09-30T10:26:22Z</time>
      </trkpt>
      <trkpt lat="47.553952066227794" lon="11.35283388197422">
        <ele>1259.46</ele>
        <time>2014-09-30T10:26:23Z</time>
      </trkpt>
      <trkpt lat="47.553933709859848" lon="11.352851567789912">
        <ele>1258.5</ele>
        <time>2014-09-30T10:26:24Z</time>
      </trkpt>
      <trkpt lat="47.553881322965026" lon="11.352935722097754">
        <ele>1257.0599999999999</ele>
        <time>2014-09-30T10:26:27Z</time>
      </trkpt>
      <trkpt lat="47.553803287446499" lon="11.353039238601923">
        <ele>1255.6199999999999</ele>
        <time>2014-09-30T10:26:30Z</time>
      </trkpt>
      <trkpt lat="47.553733130916953" lon="11.353101683780551">
        <ele>1254.6600000000001</ele>
        <time>2014-09-30T10:26:35Z</time>
      </trkpt>
      <trkpt lat="47.553664818406105" lon="11.353010823950171">
        <ele>1251.77</ele>
        <time>2014-09-30T10:26:42Z</time>
      </trkpt>
      <trkpt lat="47.553666830062866" lon="11.352969165891409">
        <ele>1250.8099999999999</ele>
        <time>2014-09-30T10:26:44Z</time>
      </trkpt>
      <trkpt lat="47.553666746243834" lon="11.352955838665366">
        <ele>1250.3299999999999</ele>
        <time>2014-09-30T10:26:45Z</time>
      </trkpt>
      <trkpt lat="47.55365333519876" lon="11.352930273860693">
        <ele>1250.3299999999999</ele>
        <time>2014-09-30T10:26:46Z</time>
      </trkpt>
      <trkpt lat="47.553535820916295" lon="11.352889705449343">
        <ele>1249.3699999999999</ele>
        <time>2014-09-30T10:26:51Z</time>
      </trkpt>
      <trkpt lat="47.553489049896598" lon="11.352887777611613">
        <ele>1248.8900000000001</ele>
        <time>2014-09-30T10:26:53Z</time>
      </trkpt>
      <trkpt lat="47.553424341604114" lon="11.35300830937922">
        <ele>1246.01</ele>
        <time>2014-09-30T10:27:00Z</time>
      </trkpt>
      <trkpt lat="47.553380755707622" lon="11.35306203737855">
        <ele>1245.53</ele>
        <time>2014-09-30T10:27:03Z</time>
      </trkpt>
      <trkpt lat="47.553329207003117" lon="11.353175947442651">
        <ele>1244.5599999999999</ele>
        <time>2014-09-30T10:27:07Z</time>
      </trkpt>
      <trkpt lat="47.553093172609806" lon="11.353293545544147">
        <ele>1244.0799999999999</ele>
        <time>2014-09-30T10:27:18Z</time>
      </trkpt>
      <trkpt lat="47.552849259227514" lon="11.353327995166183">
        <ele>1242.1600000000001</ele>
        <time>2014-09-30T10:27:26Z</time>
      </trkpt>
      <trkpt lat="47.552685141563416" lon="11.353307291865349">
        <ele>1238.8</ele>
        <time>2014-09-30T10:27:32Z</time>
      </trkpt>
      <trkpt lat="47.55266091786325" lon="11.353301843628287">
        <ele>1238.3199999999999</ele>
        <time>2014-09-30T10:27:33Z</time>
      </trkpt>
      <trkpt lat="47.552587660029531" lon="11.353242918848991">
        <ele>1237.3499999999999</ele>
        <time>2014-09-30T10:27:36Z</time>
      </trkpt>
      <trkpt lat="47.552517922595143" lon="11.353194806724787">
        <ele>1236.3900000000001</ele>
        <time>2014-09-30T10:27:39Z</time>
      </trkpt>
      <trkpt lat="47.552329916507006" lon="11.352977380156517">
        <ele>1233.99</ele>
        <time>2014-09-30T10:27:47Z</time>
      </trkpt>
      <trkpt lat="47.552324971184134" lon="11.35296237654984">
        <ele>1233.99</ele>
        <time>2014-09-30T10:27:48Z</time>
      </trkpt>
      <trkpt lat="47.552304435521364" lon="11.352836061269045">
        <ele>1231.5899999999999</ele>
        <time>2014-09-30T10:27:53Z</time>
      </trkpt>
      <trkpt lat="47.552377609536052" lon="11.352546382695436">
        <ele>1227.74</ele>
        <time>2014-09-30T10:28:01Z</time>
      </trkpt>
      <trkpt lat="47.552398145198822" lon="11.352519225329161">
        <ele>1227.74</ele>
        <time>2014-09-30T10:28:02Z</time>
      </trkpt>
      <trkpt lat="47.552423877641559" lon="11.352253099903464">
        <ele>1224.3800000000001</ele>
        <time>2014-09-30T10:28:07Z</time>
      </trkpt>
      <trkpt lat="47.552448771893978" lon="11.352063752710819">
        <ele>1224.3800000000001</ele>
        <time>2014-09-30T10:28:11Z</time>
      </trkpt>
      <trkpt lat="47.552386242896318" lon="11.351898210123181">
        <ele>1221.01</ele>
        <time>2014-09-30T10:28:16Z</time>
      </trkpt>
      <trkpt lat="47.552325557917356" lon="11.35178966447711">
        <ele>1219.5699999999999</ele>
        <time>2014-09-30T10:28:20Z</time>
      </trkpt>
      <trkpt lat="47.552254227921367" lon="11.351740714162588">
        <ele>1218.1300000000001</ele>
        <time>2014-09-30T10:28:23Z</time>
      </trkpt>
      <trkpt lat="47.55211416631937" lon="11.351719340309501">
        <ele>1214.76</ele>
        <time>2014-09-30T10:28:29Z</time>
      </trkpt>
      <trkpt lat="47.552075944840908" lon="11.351717915385962">
        <ele>1213.8</ele>
        <time>2014-09-30T10:28:31Z</time>
      </trkpt>
      <trkpt lat="47.551952563226223" lon="11.351760914549232">
        <ele>1210.9200000000001</ele>
        <time>2014-09-30T10:28:36Z</time>
      </trkpt>
      <trkpt lat="47.551862373948097" lon="11.351914722472429">
        <ele>1208.03</ele>
        <time>2014-09-30T10:28:44Z</time>
      </trkpt>
      <trkpt lat="47.551854075863957" lon="11.351939113810658">
        <ele>1207.55</ele>
        <time>2014-09-30T10:28:45Z</time>
      </trkpt>
      <trkpt lat="47.551796492189169" lon="11.351973060518503">
        <ele>1205.6300000000001</ele>
        <time>2014-09-30T10:28:48Z</time>
      </trkpt>
      <trkpt lat="47.551703536882997" lon="11.351985801011324">
        <ele>1204.6700000000001</ele>
        <time>2014-09-30T10:28:52Z</time>
      </trkpt>
      <trkpt lat="47.551489630714059" lon="11.351920422166586">
        <ele>1200.8199999999999</ele>
        <time>2014-09-30T10:28:59Z</time>
      </trkpt>
      <trkpt lat="47.55146867595613" lon="11.351909274235368">
        <ele>1199.8599999999999</ele>
        <time>2014-09-30T10:29:00Z</time>
      </trkpt>
      <trkpt lat="47.551404219120741" lon="11.351840877905488">
        <ele>1197.46</ele>
        <time>2014-09-30T10:29:04Z</time>
      </trkpt>
      <trkpt lat="47.551264660432935" lon="11.351752951741219">
        <ele>1193.6099999999999</ele>
        <time>2014-09-30T10:29:10Z</time>
      </trkpt>
      <trkpt lat="47.551250159740448" lon="11.351740043610334">
        <ele>1193.1300000000001</ele>
        <time>2014-09-30T10:29:11Z</time>
      </trkpt>
      <trkpt lat="47.551173632964492" lon="11.351657230407">
        <ele>1191.21</ele>
        <time>2014-09-30T10:29:15Z</time>
      </trkpt>
      <trkpt lat="47.551126191392541" lon="11.351604592055082">
        <ele>1190.73</ele>
        <time>2014-09-30T10:29:19Z</time>
      </trkpt>
      <trkpt lat="47.551102135330439" lon="11.3514119759202">
        <ele>1187.8499999999999</ele>
        <time>2014-09-30T10:29:26Z</time>
      </trkpt>
      <trkpt lat="47.551037510856986" lon="11.351209050044417">
        <ele>1184</ele>
        <time>2014-09-30T10:29:35Z</time>
      </trkpt>
      <trkpt lat="47.551010688766837" lon="11.351186167448759">
        <ele>1183.52</ele>
        <time>2014-09-30T10:29:36Z</time>
      </trkpt>
      <trkpt lat="47.550988392904401" lon="11.351177617907524">
        <ele>1184.48</ele>
        <time>2014-09-30T10:29:46Z</time>
      </trkpt>
      <trkpt lat="47.5509003829211" lon="11.351109556853771">
        <ele>1184.96</ele>
        <time>2014-09-30T10:29:59Z</time>
      </trkpt>
      <trkpt lat="47.550883535295725" lon="11.351047027856112">
        <ele>1184.96</ele>
        <time>2014-09-30T10:30:01Z</time>
      </trkpt>
      <trkpt lat="47.550896778702736" lon="11.350910989567637">
        <ele>1185.9200000000001</ele>
        <time>2014-09-30T10:30:05Z</time>
      </trkpt>
      <trkpt lat="47.550882361829281" lon="11.350582502782345">
        <ele>1185.4400000000001</ele>
        <time>2014-09-30T10:30:13Z</time>
      </trkpt>
      <trkpt lat="47.550879009068012" lon="11.349914381280541">
        <ele>1186.8800000000001</ele>
        <time>2014-09-30T10:30:27Z</time>
      </trkpt>
      <trkpt lat="47.550854617729783" lon="11.34972620755434">
        <ele>1185.9200000000001</ele>
        <time>2014-09-30T10:30:32Z</time>
      </trkpt>
      <trkpt lat="47.550858473405242" lon="11.349597377702594">
        <ele>1186.4000000000001</ele>
        <time>2014-09-30T10:30:37Z</time>
      </trkpt>
      <trkpt lat="47.550766691565514" lon="11.349393529817462">
        <ele>1185.4400000000001</ele>
        <time>2014-09-30T10:30:44Z</time>
      </trkpt>
      <trkpt lat="47.550577092915773" lon="11.349260089918971">
        <ele>1185.9200000000001</ele>
        <time>2014-09-30T10:30:47Z</time>
      </trkpt>
      <trkpt lat="47.550402916967869" lon="11.349100582301617">
        <ele>1185.4400000000001</ele>
        <time>2014-09-30T10:30:51Z</time>
      </trkpt>
      <trkpt lat="47.550270734354854" lon="11.34887452237308">
        <ele>1184</ele>
        <time>2014-09-30T10:30:55Z</time>
      </trkpt>
      <trkpt lat="47.550133857876062" lon="11.348558105528355">
        <ele>1184.48</ele>
        <time>2014-09-30T10:31:00Z</time>
      </trkpt>
      <trkpt lat="47.549991281703115" lon="11.348140435293317">
        <ele>1184.48</ele>
        <time>2014-09-30T10:31:06Z</time>
      </trkpt>
      <trkpt lat="47.549875611439347" lon="11.347893085330725">
        <ele>1184.48</ele>
        <time>2014-09-30T10:31:10Z</time>
      </trkpt>
      <trkpt lat="47.549765389412642" lon="11.347539201378822">
        <ele>1183.52</ele>
        <time>2014-09-30T10:31:15Z</time>
      </trkpt>
      <trkpt lat="47.549678049981594" lon="11.347321188077331">
        <ele>1184.96</ele>
        <time>2014-09-30T10:31:19Z</time>
      </trkpt>
      <trkpt lat="47.549421899020672" lon="11.34705288335681">
        <ele>1184.48</ele>
        <time>2014-09-30T10:31:25Z</time>
      </trkpt>
      <trkpt lat="47.549311006441712" lon="11.346910642459989">
        <ele>1184</ele>
        <time>2014-09-30T10:31:28Z</time>
      </trkpt>
      <trkpt lat="47.549236407503486" lon="11.346356682479382">
        <ele>1183.04</ele>
        <time>2014-09-30T10:31:36Z</time>
      </trkpt>
      <trkpt lat="47.549362555146217" lon="11.345773972570896">
        <ele>1182.0799999999999</ele>
        <time>2014-09-30T10:31:44Z</time>
      </trkpt>
      <trkpt lat="47.549371439963579" lon="11.34532755240798">
        <ele>1183.04</ele>
        <time>2014-09-30T10:31:51Z</time>
      </trkpt>
      <trkpt lat="47.549328273162246" lon="11.345182796940207">
        <ele>1183.52</ele>
        <time>2014-09-30T10:31:54Z</time>
      </trkpt>
      <trkpt lat="47.549355011433363" lon="11.344735035672784">
        <ele>1184.48</ele>
        <time>2014-09-30T10:32:02Z</time>
      </trkpt>
      <trkpt lat="47.549657011404634" lon="11.344495648518205">
        <ele>1184.48</ele>
        <time>2014-09-30T10:32:10Z</time>
      </trkpt>
      <trkpt lat="47.549720127135515" lon="11.344412500038743">
        <ele>1184.48</ele>
        <time>2014-09-30T10:32:12Z</time>
      </trkpt>
      <trkpt lat="47.549926321953535" lon="11.343914112076163">
        <ele>1183.04</ele>
        <time>2014-09-30T10:32:22Z</time>
      </trkpt>
      <trkpt lat="47.549956245347857" lon="11.343861222267151">
        <ele>1183.04</ele>
        <time>2014-09-30T10:32:23Z</time>
      </trkpt>
      <trkpt lat="47.550033442676067" lon="11.343661230057478">
        <ele>1182.0799999999999</ele>
        <time>2014-09-30T10:32:26Z</time>
      </trkpt>
      <trkpt lat="47.550149448215961" lon="11.34342041797936">
        <ele>1181.1199999999999</ele>
        <time>2014-09-30T10:32:30Z</time>
      </trkpt>
      <trkpt lat="47.550275092944503" lon="11.343091847375035">
        <ele>1179.1900000000001</ele>
        <time>2014-09-30T10:32:34Z</time>
      </trkpt>
      <trkpt lat="47.550311470404267" lon="11.342860171571374">
        <ele>1177.75</ele>
        <time>2014-09-30T10:32:36Z</time>
      </trkpt>
      <trkpt lat="47.550370479002595" lon="11.342221470549703">
        <ele>1175.8299999999999</ele>
        <time>2014-09-30T10:32:43Z</time>
      </trkpt>
      <trkpt lat="47.550421357154846" lon="11.341746049001813">
        <ele>1172.47</ele>
        <time>2014-09-30T10:32:48Z</time>
      </trkpt>
      <trkpt lat="47.550450190901756" lon="11.341442037373781">
        <ele>1171.98</ele>
        <time>2014-09-30T10:32:51Z</time>
      </trkpt>
      <trkpt lat="47.550428817048669" lon="11.341071221977472">
        <ele>1170.54</ele>
        <time>2014-09-30T10:32:55Z</time>
      </trkpt>
      <trkpt lat="47.550291186198592" lon="11.339989202097058">
        <ele>1170.0599999999999</ele>
        <time>2014-09-30T10:33:08Z</time>
      </trkpt>
      <trkpt lat="47.550231004133821" lon="11.339693740010262">
        <ele>1171.5</ele>
        <time>2014-09-30T10:33:12Z</time>
      </trkpt>
      <trkpt lat="47.550091110169888" lon="11.339253354817629">
        <ele>1171.5</ele>
        <time>2014-09-30T10:33:18Z</time>
      </trkpt>
      <trkpt lat="47.550150454044342" lon="11.338889412581921">
        <ele>1172.95</ele>
        <time>2014-09-30T10:33:24Z</time>
      </trkpt>
      <trkpt lat="47.550048530101776" lon="11.338498480618">
        <ele>1172.95</ele>
        <time>2014-09-30T10:33:33Z</time>
      </trkpt>
      <trkpt lat="47.54998566582799" lon="11.338452883064747">
        <ele>1172.95</ele>
        <time>2014-09-30T10:33:35Z</time>
      </trkpt>
      <trkpt lat="47.549768155440688" lon="11.338231014087796">
        <ele>1170.54</ele>
        <time>2014-09-30T10:33:41Z</time>
      </trkpt>
      <trkpt lat="47.549609402194619" lon="11.337848631665111">
        <ele>1169.0999999999999</ele>
        <time>2014-09-30T10:33:46Z</time>
      </trkpt>
      <trkpt lat="47.54954737611115" lon="11.336749596521258">
        <ele>1166.22</ele>
        <time>2014-09-30T10:33:58Z</time>
      </trkpt>
      <trkpt lat="47.549473280087113" lon="11.335995560511947">
        <ele>1168.1400000000001</ele>
        <time>2014-09-30T10:34:08Z</time>
      </trkpt>
      <trkpt lat="47.54943648353219" lon="11.335747959092259">
        <ele>1169.5799999999999</ele>
        <time>2014-09-30T10:34:12Z</time>
      </trkpt>
      <trkpt lat="47.549417037516832" lon="11.335638659074903">
        <ele>1170.0599999999999</ele>
        <time>2014-09-30T10:34:14Z</time>
      </trkpt>
      <trkpt lat="47.549369931221008" lon="11.335358116775751">
        <ele>1171.02</ele>
        <time>2014-09-30T10:34:19Z</time>
      </trkpt>
      <trkpt lat="47.549287118017673" lon="11.334953438490629">
        <ele>1174.3900000000001</ele>
        <time>2014-09-30T10:34:30Z</time>
      </trkpt>
      <trkpt lat="47.549215871840715" lon="11.334753027185798">
        <ele>1175.3499999999999</ele>
        <time>2014-09-30T10:34:38Z</time>
      </trkpt>
      <trkpt lat="47.549181673675776" lon="11.334670046344399">
        <ele>1176.3099999999999</ele>
        <time>2014-09-30T10:34:42Z</time>
      </trkpt>
      <trkpt lat="47.549120569601655" lon="11.334589077159762">
        <ele>1177.27</ele>
        <time>2014-09-30T10:34:47Z</time>
      </trkpt>
      <trkpt lat="47.549006910994649" lon="11.3341398909688">
        <ele>1180.1600000000001</ele>
        <time>2014-09-30T10:35:02Z</time>
      </trkpt>
      <trkpt lat="47.548935832455754" lon="11.333800842985511">
        <ele>1181.5999999999999</ele>
        <time>2014-09-30T10:35:12Z</time>
      </trkpt>
      <trkpt lat="47.548889312893152" lon="11.333498591557145">
        <ele>1184.48</ele>
        <time>2014-09-30T10:35:24Z</time>
      </trkpt>
      <trkpt lat="47.548852264881134" lon="11.333348136395216">
        <ele>1185.4400000000001</ele>
        <time>2014-09-30T10:35:31Z</time>
      </trkpt>
      <trkpt lat="47.548760063946247" lon="11.33302291855216">
        <ele>1188.3299999999999</ele>
        <time>2014-09-30T10:35:45Z</time>
      </trkpt>
      <trkpt lat="47.548694517463446" lon="11.332735167816281">
        <ele>1189.77</ele>
        <time>2014-09-30T10:35:56Z</time>
      </trkpt>
      <trkpt lat="47.548573147505522" lon="11.332283467054367">
        <ele>1191.21</ele>
        <time>2014-09-30T10:36:09Z</time>
      </trkpt>
      <trkpt lat="47.548536099493504" lon="11.331836627796292">
        <ele>1191.21</ele>
        <time>2014-09-30T10:36:20Z</time>
      </trkpt>
      <trkpt lat="47.548557305708528" lon="11.331579051911831">
        <ele>1191.21</ele>
        <time>2014-09-30T10:36:26Z</time>
      </trkpt>
      <trkpt lat="47.54858085885644" lon="11.331376293674111">
        <ele>1191.21</ele>
        <time>2014-09-30T10:36:31Z</time>
      </trkpt>
      <trkpt lat="47.548608770594001" lon="11.33132298476994">
        <ele>1190.73</ele>
        <time>2014-09-30T10:36:33Z</time>
      </trkpt>
      <trkpt lat="47.548515815287828" lon="11.330786542966962">
        <ele>1190.25</ele>
        <time>2014-09-30T10:36:47Z</time>
      </trkpt>
      <trkpt lat="47.548418752849102" lon="11.330502228811383">
        <ele>1189.77</ele>
        <time>2014-09-30T10:36:58Z</time>
      </trkpt>
      <trkpt lat="47.548399223014712" lon="11.33018933236599">
        <ele>1192.6500000000001</ele>
        <time>2014-09-30T10:37:10Z</time>
      </trkpt>
      <trkpt lat="47.548309452831745" lon="11.329809883609414">
        <ele>1195.0599999999999</ele>
        <time>2014-09-30T10:37:23Z</time>
      </trkpt>
      <trkpt lat="47.548336191102862" lon="11.329266065731645">
        <ele>1194.0899999999999</ele>
        <time>2014-09-30T10:37:36Z</time>
      </trkpt>
      <trkpt lat="47.5484723970294" lon="11.328891646116972">
        <ele>1195.54</ele>
        <time>2014-09-30T10:37:47Z</time>
      </trkpt>
      <trkpt lat="47.54848656244576" lon="11.328855855390429">
        <ele>1196.5</ele>
        <time>2014-09-30T10:37:49Z</time>
      </trkpt>
      <trkpt lat="47.548517994582653" lon="11.328784441575408">
        <ele>1197.9400000000001</ele>
        <time>2014-09-30T10:37:53Z</time>
      </trkpt>
      <trkpt lat="47.548606088384986" lon="11.32867019623518">
        <ele>1199.8599999999999</ele>
        <time>2014-09-30T10:38:03Z</time>
      </trkpt>
      <trkpt lat="47.548635927960277" lon="11.32861546240747">
        <ele>1199.8599999999999</ele>
        <time>2014-09-30T10:38:07Z</time>
      </trkpt>
      <trkpt lat="47.548787053674459" lon="11.328465510159731">
        <ele>1200.8199999999999</ele>
        <time>2014-09-30T10:38:17Z</time>
      </trkpt>
      <trkpt lat="47.548932144418359" lon="11.328276749700308">
        <ele>1198.4200000000001</ele>
        <time>2014-09-30T10:38:28Z</time>
      </trkpt>
      <trkpt lat="47.548997523263097" lon="11.328201647847891">
        <ele>1197.9400000000001</ele>
        <time>2014-09-30T10:38:33Z</time>
      </trkpt>
      <trkpt lat="47.549207489937544" lon="11.327748773619533">
        <ele>1197.46</ele>
        <time>2014-09-30T10:38:42Z</time>
      </trkpt>
      <trkpt lat="47.549242191016674" lon="11.327681131660938">
        <ele>1197.46</ele>
        <time>2014-09-30T10:38:44Z</time>
      </trkpt>
      <trkpt lat="47.549319555982947" lon="11.327555738389492">
        <ele>1197.46</ele>
        <time>2014-09-30T10:38:52Z</time>
      </trkpt>
      <trkpt lat="47.549449978396297" lon="11.327403523027897">
        <ele>1197.46</ele>
        <time>2014-09-30T10:38:59Z</time>
      </trkpt>
      <trkpt lat="47.549547962844372" lon="11.327169332653284">
        <ele>1195.54</ele>
        <time>2014-09-30T10:39:09Z</time>
      </trkpt>
      <trkpt lat="47.549563720822334" lon="11.327113509178162">
        <ele>1195.0599999999999</ele>
        <time>2014-09-30T10:39:11Z</time>
      </trkpt>
      <trkpt lat="47.549577718600631" lon="11.326966155320406">
        <ele>1194.5799999999999</ele>
        <time>2014-09-30T10:39:17Z</time>
      </trkpt>
      <trkpt lat="47.549625830724835" lon="11.326801534742117">
        <ele>1192.1700000000001</ele>
        <time>2014-09-30T10:39:22Z</time>
      </trkpt>
      <trkpt lat="47.549661537632346" lon="11.326544294133782">
        <ele>1188.8099999999999</ele>
        <time>2014-09-30T10:39:28Z</time>
      </trkpt>
      <trkpt lat="47.549669584259391" lon="11.326487045735121">
        <ele>1187.3699999999999</ele>
        <time>2014-09-30T10:39:30Z</time>
      </trkpt>
      <trkpt lat="47.549697160720825" lon="11.326312953606248">
        <ele>1184.48</ele>
        <time>2014-09-30T10:39:33Z</time>
      </trkpt>
      <trkpt lat="47.549707219004631" lon="11.326245814561844">
        <ele>1184</ele>
        <time>2014-09-30T10:39:34Z</time>
      </trkpt>
      <trkpt lat="47.550077028572559" lon="11.326098879799247">
        <ele>1183.52</ele>
        <time>2014-09-30T10:39:42Z</time>
      </trkpt>
      <trkpt lat="47.550097648054361" lon="11.325952364131808">
        <ele>1183.52</ele>
        <time>2014-09-30T10:39:48Z</time>
      </trkpt>
      <trkpt lat="47.550147604197264" lon="11.32571741938591">
        <ele>1184</ele>
        <time>2014-09-30T10:39:59Z</time>
      </trkpt>
      <trkpt lat="47.550161182880402" lon="11.325677018612623">
        <ele>1184.48</ele>
        <time>2014-09-30T10:40:04Z</time>
      </trkpt>
      <trkpt lat="47.55017476156354" lon="11.325631504878402">
        <ele>1184</ele>
        <time>2014-09-30T10:40:07Z</time>
      </trkpt>
      <trkpt lat="47.550198063254356" lon="11.325587416067719">
        <ele>1184.48</ele>
        <time>2014-09-30T10:40:21Z</time>
      </trkpt>
      <trkpt lat="47.550198063254356" lon="11.325587416067719">
        <ele>1184.48</ele>
        <time>2014-09-30T10:40:39Z</time>
      </trkpt>
      <trkpt lat="47.550223879516125" lon="11.325379544869065">
        <ele>1183.04</ele>
        <time>2014-09-30T10:40:46Z</time>
      </trkpt>
      <trkpt lat="47.55023636855185" lon="11.325104534626007">
        <ele>1182.5599999999999</ele>
        <time>2014-09-30T10:40:56Z</time>
      </trkpt>
      <trkpt lat="47.550229160115123" lon="11.325042508542538">
        <ele>1182.5599999999999</ele>
        <time>2014-09-30T10:41:05Z</time>
      </trkpt>
      <trkpt lat="47.550196386873722" lon="11.324928179383278">
        <ele>1182.5599999999999</ele>
        <time>2014-09-30T10:41:14Z</time>
      </trkpt>
      <trkpt lat="47.550172666087747" lon="11.324769258499146">
        <ele>1182.5599999999999</ele>
        <time>2014-09-30T10:41:20Z</time>
      </trkpt>
      <trkpt lat="47.550165625289083" lon="11.324695497751236">
        <ele>1183.04</ele>
        <time>2014-09-30T10:41:24Z</time>
      </trkpt>
      <trkpt lat="47.5501405633986" lon="11.324459547176957">
        <ele>1183.52</ele>
        <time>2014-09-30T10:41:35Z</time>
      </trkpt>
      <trkpt lat="47.550127068534493" lon="11.324243294075131">
        <ele>1184</ele>
        <time>2014-09-30T10:41:42Z</time>
      </trkpt>
      <trkpt lat="47.550064288079739" lon="11.324019748717546">
        <ele>1184</ele>
        <time>2014-09-30T10:41:52Z</time>
      </trkpt>
      <trkpt lat="47.549990862607956" lon="11.323987226933241">
        <ele>1183.52</ele>
        <time>2014-09-30T10:42:00Z</time>
      </trkpt>
      <trkpt lat="47.549980552867055" lon="11.323987646028399">
        <ele>1183.52</ele>
        <time>2014-09-30T10:42:12Z</time>
      </trkpt>
      <trkpt lat="47.54996663890779" lon="11.323992507532239">
        <ele>1184</ele>
        <time>2014-09-30T10:42:27Z</time>
      </trkpt>
      <trkpt lat="47.549960352480412" lon="11.323991166427732">
        <ele>1184</ele>
        <time>2014-09-30T10:42:40Z</time>
      </trkpt>
      <trkpt lat="47.549930932000279" lon="11.323978761211038">
        <ele>1184</ele>
        <time>2014-09-30T10:42:43Z</time>
      </trkpt>
      <trkpt lat="47.549853483214974" lon="11.323981778696179">
        <ele>1183.52</ele>
        <time>2014-09-30T10:42:48Z</time>
      </trkpt>
      <trkpt lat="47.549672769382596" lon="11.323965266346931">
        <ele>1183.52</ele>
        <time>2014-09-30T10:43:01Z</time>
      </trkpt>
      <trkpt lat="47.549560535699129" lon="11.323980269953609">
        <ele>1184</ele>
        <time>2014-09-30T10:43:07Z</time>
      </trkpt>
      <trkpt lat="47.549421228468418" lon="11.324004577472806">
        <ele>1184</ele>
        <time>2014-09-30T10:43:17Z</time>
      </trkpt>
      <trkpt lat="47.549383761361241" lon="11.323964428156614">
        <ele>1184</ele>
        <time>2014-09-30T10:43:21Z</time>
      </trkpt>
      <trkpt lat="47.549368171021342" lon="11.323927212506533">
        <ele>1184.48</ele>
        <time>2014-09-30T10:43:23Z</time>
      </trkpt>
      <trkpt lat="47.549304720014334" lon="11.32387038320303">
        <ele>1184.48</ele>
        <time>2014-09-30T10:43:27Z</time>
      </trkpt>
      <trkpt lat="47.549120066687465" lon="11.323601072654128">
        <ele>1183.52</ele>
        <time>2014-09-30T10:43:40Z</time>
      </trkpt>
      <trkpt lat="47.548974892124534" lon="11.323418850079179">
        <ele>1183.04</ele>
        <time>2014-09-30T10:43:51Z</time>
      </trkpt>
      <trkpt lat="47.548950333148241" lon="11.323318434879184">
        <ele>1183.04</ele>
        <time>2014-09-30T10:44:00Z</time>
      </trkpt>
      <trkpt lat="47.548943040892482" lon="11.323224054649472">
        <ele>1184</ele>
        <time>2014-09-30T10:44:10Z</time>
      </trkpt>
      <trkpt lat="47.548939939588308" lon="11.323199328035116">
        <ele>1183.04</ele>
        <time>2014-09-30T10:44:12Z</time>
      </trkpt>
      <trkpt lat="47.548897694796324" lon="11.323177618905902">
        <ele>1182.5599999999999</ele>
        <time>2014-09-30T10:44:22Z</time>
      </trkpt>
      <trkpt lat="47.548855030909181" lon="11.32310813292861">
        <ele>1182.0799999999999</ele>
        <time>2014-09-30T10:44:33Z</time>
      </trkpt>
      <trkpt lat="47.548848744481802" lon="11.323086423799396">
        <ele>1182.0799999999999</ele>
        <time>2014-09-30T10:44:34Z</time>
      </trkpt>
      <trkpt lat="47.548750173300505" lon="11.322871763259172">
        <ele>1179.6700000000001</ele>
        <time>2014-09-30T10:44:47Z</time>
      </trkpt>
      <trkpt lat="47.548650680109859" lon="11.322651486843824">
        <ele>1177.75</ele>
        <time>2014-09-30T10:44:57Z</time>
      </trkpt>
      <trkpt lat="47.548619080334902" lon="11.322611924260855">
        <ele>1177.75</ele>
        <time>2014-09-30T10:44:59Z</time>
      </trkpt>
      <trkpt lat="47.548565184697509" lon="11.322539169341326">
        <ele>1176.79</ele>
        <time>2014-09-30T10:45:03Z</time>
      </trkpt>
      <trkpt lat="47.548533668741584" lon="11.322485106065869">
        <ele>1175.3499999999999</ele>
        <time>2014-09-30T10:45:06Z</time>
      </trkpt>
      <trkpt lat="47.548516066744924" lon="11.322463061660528">
        <ele>1178.23</ele>
        <time>2014-09-30T10:45:11Z</time>
      </trkpt>
      <trkpt lat="47.548516066744924" lon="11.322463061660528">
        <ele>1174.8699999999999</ele>
        <time>2014-09-30T10:45:12Z</time>
      </trkpt>
      <trkpt lat="47.548516066744924" lon="11.322463061660528">
        <ele>1174.8699999999999</ele>
        <time>2014-09-30T10:45:17Z</time>
      </trkpt>
      <trkpt lat="47.548448340967298" lon="11.322355438023806">
        <ele>1174.3900000000001</ele>
        <time>2014-09-30T10:45:22Z</time>
      </trkpt>
      <trkpt lat="47.548359073698521" lon="11.322185788303614">
        <ele>1172.47</ele>
        <time>2014-09-30T10:45:31Z</time>
      </trkpt>
      <trkpt lat="47.548218928277493" lon="11.321927458047867">
        <ele>1169.0999999999999</ele>
        <time>2014-09-30T10:45:42Z</time>
      </trkpt>
      <trkpt lat="47.548096049576998" lon="11.321705169975758">
        <ele>1166.22</ele>
        <time>2014-09-30T10:45:52Z</time>
      </trkpt>
      <trkpt lat="47.54808247089386" lon="11.321669882163405">
        <ele>1166.22</ele>
        <time>2014-09-30T10:45:53Z</time>
      </trkpt>
      <trkpt lat="47.547954730689526" lon="11.321425130590796">
        <ele>1163.8099999999999</ele>
        <time>2014-09-30T10:46:01Z</time>
      </trkpt>
      <trkpt lat="47.547867894172668" lon="11.321282219141722">
        <ele>1162.3699999999999</ele>
        <time>2014-09-30T10:46:05Z</time>
      </trkpt>
      <trkpt lat="47.547815255820751" lon="11.32091567851603">
        <ele>1159.97</ele>
        <time>2014-09-30T10:46:15Z</time>
      </trkpt>
      <trkpt lat="47.547811483964324" lon="11.320807300508022">
        <ele>1158.05</ele>
        <time>2014-09-30T10:46:18Z</time>
      </trkpt>
      <trkpt lat="47.547797570005059" lon="11.320676542818546">
        <ele>1156.5999999999999</ele>
        <time>2014-09-30T10:46:21Z</time>
      </trkpt>
      <trkpt lat="47.54767594859004" lon="11.320279072970152">
        <ele>1154.6800000000001</ele>
        <time>2014-09-30T10:46:32Z</time>
      </trkpt>
      <trkpt lat="47.547677373513579" lon="11.320255184546113">
        <ele>1154.2</ele>
        <time>2014-09-30T10:46:36Z</time>
      </trkpt>
      <trkpt lat="47.547707883641124" lon="11.320142783224583">
        <ele>1152.76</ele>
        <time>2014-09-30T10:46:40Z</time>
      </trkpt>
      <trkpt lat="47.547690784558654" lon="11.320066843181849">
        <ele>1151.3199999999999</ele>
        <time>2014-09-30T10:46:48Z</time>
      </trkpt>
      <trkpt lat="47.547614928334951" lon="11.319968607276678">
        <ele>1150.3499999999999</ele>
        <time>2014-09-30T10:46:57Z</time>
      </trkpt>
      <trkpt lat="47.547521889209747" lon="11.319846902042627">
        <ele>1149.8699999999999</ele>
        <time>2014-09-30T10:47:10Z</time>
      </trkpt>
      <trkpt lat="47.547479644417763" lon="11.319753360003233">
        <ele>1150.3499999999999</ele>
        <time>2014-09-30T10:47:20Z</time>
      </trkpt>
      <trkpt lat="47.547477884218097" lon="11.319732572883368">
        <ele>1149.8699999999999</ele>
        <time>2014-09-30T10:47:21Z</time>
      </trkpt>
      <trkpt lat="47.547482578083873" lon="11.319564431905746">
        <ele>1149.8699999999999</ele>
        <time>2014-09-30T10:47:27Z</time>
      </trkpt>
      <trkpt lat="47.547467993572354" lon="11.319340718910098">
        <ele>1150.3499999999999</ele>
        <time>2014-09-30T10:47:40Z</time>
      </trkpt>
      <trkpt lat="47.547450894489884" lon="11.319219768047333">
        <ele>1150.3499999999999</ele>
        <time>2014-09-30T10:47:52Z</time>
      </trkpt>
      <trkpt lat="47.547449134290218" lon="11.319196717813611">
        <ele>1150.3499999999999</ele>
        <time>2014-09-30T10:47:53Z</time>
      </trkpt>
      <trkpt lat="47.547447960823774" lon="11.319104097783566">
        <ele>1150.8399999999999</ele>
        <time>2014-09-30T10:48:04Z</time>
      </trkpt>
      <trkpt lat="47.547456594184041" lon="11.319092363119125">
        <ele>1150.8399999999999</ele>
        <time>2014-09-30T10:48:05Z</time>
      </trkpt>
      <trkpt lat="47.547475202009082" lon="11.319048274308443">
        <ele>1150.8399999999999</ele>
        <time>2014-09-30T10:48:08Z</time>
      </trkpt>
      <trkpt lat="47.547507556155324" lon="11.318887257948518">
        <ele>1151.3199999999999</ele>
        <time>2014-09-30T10:48:19Z</time>
      </trkpt>
      <trkpt lat="47.547493474557996" lon="11.318848533555865">
        <ele>1150.8399999999999</ele>
        <time>2014-09-30T10:48:24Z</time>
      </trkpt>
      <trkpt lat="47.547446116805077" lon="11.318758176639676">
        <ele>1151.3199999999999</ele>
        <time>2014-09-30T10:48:32Z</time>
      </trkpt>
      <trkpt lat="47.547448882833123" lon="11.318657174706459">
        <ele>1150.8399999999999</ele>
        <time>2014-09-30T10:48:38Z</time>
      </trkpt>
      <trkpt lat="47.54741795361042" lon="11.318588694557548">
        <ele>1150.8399999999999</ele>
        <time>2014-09-30T10:48:49Z</time>
      </trkpt>
      <trkpt lat="47.54741501994431" lon="11.318538319319487">
        <ele>1151.3199999999999</ele>
        <time>2014-09-30T10:48:52Z</time>
      </trkpt>
      <trkpt lat="47.547404123470187" lon="11.318425331264734">
        <ele>1151.3199999999999</ele>
        <time>2014-09-30T10:48:57Z</time>
      </trkpt>
      <trkpt lat="47.547403033822775" lon="11.318359617143869">
        <ele>1151.8</ele>
        <time>2014-09-30T10:49:02Z</time>
      </trkpt>
      <trkpt lat="47.547392724081874" lon="11.318235732614994">
        <ele>1150.3499999999999</ele>
        <time>2014-09-30T10:49:07Z</time>
      </trkpt>
      <trkpt lat="47.547372942790389" lon="11.318193236365914">
        <ele>1150.3499999999999</ele>
        <time>2014-09-30T10:49:10Z</time>
      </trkpt>
      <trkpt lat="47.547307899221778" lon="11.318112770095468">
        <ele>1149.8699999999999</ele>
        <time>2014-09-30T10:49:13Z</time>
      </trkpt>
      <trkpt lat="47.547065243124962" lon="11.317800208926201">
        <ele>1148.9100000000001</ele>
        <time>2014-09-30T10:49:25Z</time>
      </trkpt>
      <trkpt lat="47.546881008893251" lon="11.317636091262102">
        <ele>1147.95</ele>
        <time>2014-09-30T10:49:35Z</time>
      </trkpt>
      <trkpt lat="47.546864915639162" lon="11.317628044635057">
        <ele>1147.47</ele>
        <time>2014-09-30T10:49:36Z</time>
      </trkpt>
      <trkpt lat="47.546832393854856" lon="11.317589655518532">
        <ele>1146.99</ele>
        <time>2014-09-30T10:49:39Z</time>
      </trkpt>
      <trkpt lat="47.546636173501611" lon="11.31755294278264">
        <ele>1144.5899999999999</ele>
        <time>2014-09-30T10:49:50Z</time>
      </trkpt>
      <trkpt lat="47.54663416184485" lon="11.317558055743575">
        <ele>1144.5899999999999</ele>
        <time>2014-09-30T10:49:51Z</time>
      </trkpt>
      <trkpt lat="47.546578422188759" lon="11.317488066852093">
        <ele>1144.1099999999999</ele>
        <time>2014-09-30T10:50:04Z</time>
      </trkpt>
      <trkpt lat="47.546553025022149" lon="11.317434925585985">
        <ele>1144.1099999999999</ele>
        <time>2014-09-30T10:50:13Z</time>
      </trkpt>
      <trkpt lat="47.546473564580083" lon="11.317252535372972">
        <ele>1144.5899999999999</ele>
        <time>2014-09-30T10:50:22Z</time>
      </trkpt>
      <trkpt lat="47.546378346160054" lon="11.316947601735592">
        <ele>1145.0699999999999</ele>
        <time>2014-09-30T10:50:33Z</time>
      </trkpt>
      <trkpt lat="47.546345656737685" lon="11.316830087453127">
        <ele>1145.55</ele>
        <time>2014-09-30T10:50:38Z</time>
      </trkpt>
      <trkpt lat="47.546329312026501" lon="11.316694971174002">
        <ele>1145.55</ele>
        <time>2014-09-30T10:50:43Z</time>
      </trkpt>
      <trkpt lat="47.54630240611732" lon="11.316504785791039">
        <ele>1145.0699999999999</ele>
        <time>2014-09-30T10:50:50Z</time>
      </trkpt>
      <trkpt lat="47.546271895989776" lon="11.316398335620761">
        <ele>1144.5899999999999</ele>
        <time>2014-09-30T10:50:59Z</time>
      </trkpt>
      <trkpt lat="47.546220012009144" lon="11.316284760832787">
        <ele>1145.55</ele>
        <time>2014-09-30T10:51:09Z</time>
      </trkpt>
      <trkpt lat="47.546220012009144" lon="11.316284760832787">
        <ele>1145.55</ele>
        <time>2014-09-30T10:51:11Z</time>
      </trkpt>
      <trkpt lat="47.5461998116225" lon="11.316114105284214">
        <ele>1145.55</ele>
        <time>2014-09-30T10:51:21Z</time>
      </trkpt>
      <trkpt lat="47.546156225726008" lon="11.315991310402751">
        <ele>1146.51</ele>
        <time>2014-09-30T10:51:27Z</time>
      </trkpt>
      <trkpt lat="47.546122279018164" lon="11.315886788070202">
        <ele>1145.55</ele>
        <time>2014-09-30T10:51:40Z</time>
      </trkpt>
      <trkpt lat="47.546083135530353" lon="11.3158178050071">
        <ele>1146.99</ele>
        <time>2014-09-30T10:51:47Z</time>
      </trkpt>
      <trkpt lat="47.546060001477599" lon="11.315729627385736">
        <ele>1148.9100000000001</ele>
        <time>2014-09-30T10:52:00Z</time>
      </trkpt>
      <trkpt lat="47.546097887679935" lon="11.315585793927312">
        <ele>1148.4300000000001</ele>
        <time>2014-09-30T10:52:12Z</time>
      </trkpt>
      <trkpt lat="47.546117417514324" lon="11.315542962402105">
        <ele>1146.51</ele>
        <time>2014-09-30T10:52:15Z</time>
      </trkpt>
      <trkpt lat="47.546137785539031" lon="11.315465094521642">
        <ele>1146.03</ele>
        <time>2014-09-30T10:52:22Z</time>
      </trkpt>
      <trkpt lat="47.546111969277263" lon="11.315419245511293">
        <ele>1146.03</ele>
        <time>2014-09-30T10:52:28Z</time>
      </trkpt>
      <trkpt lat="47.546099731698632" lon="11.315388232469559">
        <ele>1145.55</ele>
        <time>2014-09-30T10:52:30Z</time>
      </trkpt>
      <trkpt lat="47.546055223792791" lon="11.315320590510964">
        <ele>1146.03</ele>
        <time>2014-09-30T10:52:34Z</time>
      </trkpt>
      <trkpt lat="47.546001244336367" lon="11.315202657133341">
        <ele>1145.55</ele>
        <time>2014-09-30T10:52:43Z</time>
      </trkpt>
      <trkpt lat="47.545991353690624" lon="11.315145324915648">
        <ele>1145.55</ele>
        <time>2014-09-30T10:52:46Z</time>
      </trkpt>
      <trkpt lat="47.545933686196804" lon="11.315068295225501">
        <ele>1145.55</ele>
        <time>2014-09-30T10:52:56Z</time>
      </trkpt>
      <trkpt lat="47.545910552144051" lon="11.315028816461563">
        <ele>1145.55</ele>
        <time>2014-09-30T10:52:58Z</time>
      </trkpt>
      <trkpt lat="47.545773591846228" lon="11.314643165096641">
        <ele>1142.1800000000001</ele>
        <time>2014-09-30T10:53:11Z</time>
      </trkpt>
      <trkpt lat="47.545775268226862" lon="11.314482735469937">
        <ele>1140.26</ele>
        <time>2014-09-30T10:53:14Z</time>
      </trkpt>
      <trkpt lat="47.54575414583087" lon="11.314368406310678">
        <ele>1139.3</ele>
        <time>2014-09-30T10:53:16Z</time>
      </trkpt>
      <trkpt lat="47.545749871060252" lon="11.314135054126382">
        <ele>1134.97</ele>
        <time>2014-09-30T10:53:20Z</time>
      </trkpt>
      <trkpt lat="47.545748865231872" lon="11.314090210944414">
        <ele>1145.55</ele>
        <time>2014-09-30T10:53:21Z</time>
      </trkpt>
      <trkpt lat="47.545759174972773" lon="11.314049726352096">
        <ele>1137.8599999999999</ele>
        <time>2014-09-30T10:53:22Z</time>
      </trkpt>
      <trkpt lat="47.545701758936048" lon="11.313639683648944">
        <ele>1136.4200000000001</ele>
        <time>2014-09-30T10:53:31Z</time>
      </trkpt>
      <trkpt lat="47.545663537457585" lon="11.313508423045278">
        <ele>1136.4200000000001</ele>
        <time>2014-09-30T10:53:34Z</time>
      </trkpt>
      <trkpt lat="47.545579969882965" lon="11.313442792743444">
        <ele>1136.4200000000001</ele>
        <time>2014-09-30T10:53:40Z</time>
      </trkpt>
      <trkpt lat="47.545551555231214" lon="11.313391076400876">
        <ele>1135.9400000000001</ele>
        <time>2014-09-30T10:53:43Z</time>
      </trkpt>
      <trkpt lat="47.545494055375457" lon="11.31329745054245">
        <ele>1135.9400000000001</ele>
        <time>2014-09-30T10:53:47Z</time>
      </trkpt>
      <trkpt lat="47.545326082035899" lon="11.313115814700723">
        <ele>1132.5699999999999</ele>
        <time>2014-09-30T10:53:54Z</time>
      </trkpt>
      <trkpt lat="47.545297835022211" lon="11.313081532716751">
        <ele>1132.5699999999999</ele>
        <time>2014-09-30T10:53:55Z</time>
      </trkpt>
      <trkpt lat="47.545013520866632" lon="11.312746843323112">
        <ele>1128.73</ele>
        <time>2014-09-30T10:54:04Z</time>
      </trkpt>
      <trkpt lat="47.544939257204533" lon="11.312637543305755">
        <ele>1128.24</ele>
        <time>2014-09-30T10:54:06Z</time>
      </trkpt>
      <trkpt lat="47.544737001881003" lon="11.312322886660695">
        <ele>1124.8800000000001</ele>
        <time>2014-09-30T10:54:14Z</time>
      </trkpt>
      <trkpt lat="47.54470900632441" lon="11.312295142561197">
        <ele>1124.8800000000001</ele>
        <time>2014-09-30T10:54:15Z</time>
      </trkpt>
      <trkpt lat="47.544634910300374" lon="11.312212161719799">
        <ele>1122.96</ele>
        <time>2014-09-30T10:54:18Z</time>
      </trkpt>
      <trkpt lat="47.544570034369826" lon="11.312093054875731">
        <ele>1119.1099999999999</ele>
        <time>2014-09-30T10:54:22Z</time>
      </trkpt>
      <trkpt lat="47.544500296935439" lon="11.311850650236011">
        <ele>1116.71</ele>
        <time>2014-09-30T10:54:26Z</time>
      </trkpt>
      <trkpt lat="47.544469786807895" lon="11.311708074063063">
        <ele>1115.75</ele>
        <time>2014-09-30T10:54:28Z</time>
      </trkpt>
      <trkpt lat="47.544389488175511" lon="11.311234580352902">
        <ele>1113.8199999999999</ele>
        <time>2014-09-30T10:54:35Z</time>
      </trkpt>
      <trkpt lat="47.54425898194313" lon="11.311050513759255">
        <ele>1113.8199999999999</ele>
        <time>2014-09-30T10:54:39Z</time>
      </trkpt>
      <trkpt lat="47.544025629758835" lon="11.310778772458434">
        <ele>1113.8199999999999</ele>
        <time>2014-09-30T10:54:50Z</time>
      </trkpt>
      <trkpt lat="47.543758247047663" lon="11.310551287606359">
        <ele>1114.3099999999999</ele>
        <time>2014-09-30T10:55:00Z</time>
      </trkpt>
      <trkpt lat="47.543587256222963" lon="11.310337800532579">
        <ele>1115.27</ele>
        <time>2014-09-30T10:55:09Z</time>
      </trkpt>
      <trkpt lat="47.543405536562204" lon="11.310129510238767">
        <ele>1115.75</ele>
        <time>2014-09-30T10:55:18Z</time>
      </trkpt>
      <trkpt lat="47.543321214616299" lon="11.309968829154968">
        <ele>1112.3800000000001</ele>
        <time>2014-09-30T10:55:22Z</time>
      </trkpt>
      <trkpt lat="47.54330025985837" lon="11.309907473623753">
        <ele>1111.4200000000001</ele>
        <time>2014-09-30T10:55:23Z</time>
      </trkpt>
      <trkpt lat="47.543228091672063" lon="11.309622405096889">
        <ele>1107.5799999999999</ele>
        <time>2014-09-30T10:55:27Z</time>
      </trkpt>
      <trkpt lat="47.543138824403286" lon="11.309345299378037">
        <ele>1103.25</ele>
        <time>2014-09-30T10:55:31Z</time>
      </trkpt>
      <trkpt lat="47.54309456795454" lon="11.309186629951">
        <ele>1101.8099999999999</ele>
        <time>2014-09-30T10:55:33Z</time>
      </trkpt>
      <trkpt lat="47.542994320392609" lon="11.308961994946003">
        <ele>1099.8900000000001</ele>
        <time>2014-09-30T10:55:36Z</time>
      </trkpt>
      <trkpt lat="47.542884182184935" lon="11.308793434873223">
        <ele>1097.96</ele>
        <time>2014-09-30T10:55:39Z</time>
      </trkpt>
      <trkpt lat="47.542748143896461" lon="11.308639710769057">
        <ele>1095.5599999999999</ele>
        <time>2014-09-30T10:55:43Z</time>
      </trkpt>
      <trkpt lat="47.542582098394632" lon="11.308480789884925">
        <ele>1092.2</ele>
        <time>2014-09-30T10:55:49Z</time>
      </trkpt>
      <trkpt lat="47.542434576898813" lon="11.308331172913313">
        <ele>1088.8299999999999</ele>
        <time>2014-09-30T10:55:53Z</time>
      </trkpt>
      <trkpt lat="47.542325779795647" lon="11.308212904259562">
        <ele>1085.47</ele>
        <time>2014-09-30T10:55:56Z</time>
      </trkpt>
      <trkpt lat="47.542285630479455" lon="11.308164708316326">
        <ele>1084.5</ele>
        <time>2014-09-30T10:55:57Z</time>
      </trkpt>
      <trkpt lat="47.542162667959929" lon="11.307907300069928">
        <ele>1081.1400000000001</ele>
        <time>2014-09-30T10:56:02Z</time>
      </trkpt>
      <trkpt lat="47.542089661583304" lon="11.307858685031533">
        <ele>1080.6600000000001</ele>
        <time>2014-09-30T10:56:04Z</time>
      </trkpt>
      <trkpt lat="47.541987150907516" lon="11.307831695303321">
        <ele>1078.74</ele>
        <time>2014-09-30T10:56:07Z</time>
      </trkpt>
      <trkpt lat="47.541949097067118" lon="11.307844435796142">
        <ele>1078.26</ele>
        <time>2014-09-30T10:56:16Z</time>
      </trkpt>
      <trkpt lat="47.541950019076467" lon="11.307849045842886">
        <ele>1077.78</ele>
        <time>2014-09-30T10:56:18Z</time>
      </trkpt>
      <trkpt lat="47.541897464543581" lon="11.307751899585128">
        <ele>1076.3299999999999</ele>
        <time>2014-09-30T10:56:28Z</time>
      </trkpt>
      <trkpt lat="47.541851280257106" lon="11.307703200727701">
        <ele>1076.3299999999999</ele>
        <time>2014-09-30T10:56:31Z</time>
      </trkpt>
      <trkpt lat="47.541767628863454" lon="11.30759222432971">
        <ele>1076.3299999999999</ele>
        <time>2014-09-30T10:56:37Z</time>
      </trkpt>
      <trkpt lat="47.541737873107195" lon="11.307555176317692">
        <ele>1075.8499999999999</ele>
        <time>2014-09-30T10:56:39Z</time>
      </trkpt>
      <trkpt lat="47.541711051017046" lon="11.307544363662601">
        <ele>1075.8499999999999</ele>
        <time>2014-09-30T10:56:44Z</time>
      </trkpt>
      <trkpt lat="47.541923196986318" lon="11.307814512401819">
        <ele>1077.29</ele>
        <time>2014-09-30T10:56:58Z</time>
      </trkpt>
      <trkpt lat="47.542069628834724" lon="11.307849800214171">
        <ele>1080.1800000000001</ele>
        <time>2014-09-30T10:57:12Z</time>
      </trkpt>
      <trkpt lat="47.542177001014352" lon="11.307873604819179">
        <ele>1081.6199999999999</ele>
        <time>2014-09-30T10:57:23Z</time>
      </trkpt>
      <trkpt lat="47.54223458468914" lon="11.30789958871901">
        <ele>1082.5799999999999</ele>
        <time>2014-09-30T10:57:47Z</time>
      </trkpt>
      <trkpt lat="47.5422971136868" lon="11.307925237342715">
        <ele>1084.99</ele>
        <time>2014-09-30T10:58:02Z</time>
      </trkpt>
      <trkpt lat="47.542393421754241" lon="11.307912580668926">
        <ele>1086.9100000000001</ele>
        <time>2014-09-30T10:58:13Z</time>
      </trkpt>
      <trkpt lat="47.542420662939548" lon="11.307895313948393">
        <ele>1088.3499999999999</ele>
        <time>2014-09-30T10:58:23Z</time>
      </trkpt>
      <trkpt lat="47.542447065934539" lon="11.307889446616173">
        <ele>1089.79</ele>
        <time>2014-09-30T10:58:42Z</time>
      </trkpt>
      <trkpt lat="47.542521497234702" lon="11.307854410260916">
        <ele>1091.23</ele>
        <time>2014-09-30T10:58:54Z</time>
      </trkpt>
      <trkpt lat="47.542580841109157" lon="11.307858349755406">
        <ele>1093.6400000000001</ele>
        <time>2014-09-30T10:59:06Z</time>
      </trkpt>
      <trkpt lat="47.542648063972592" lon="11.30785608664155">
        <ele>1095.5599999999999</ele>
        <time>2014-09-30T10:59:20Z</time>
      </trkpt>
      <trkpt lat="47.542671784758568" lon="11.307864049449563">
        <ele>1097.48</ele>
        <time>2014-09-30T10:59:33Z</time>
      </trkpt>
      <trkpt lat="47.54275350831449" lon="11.307846279814839">
        <ele>1096.52</ele>
        <time>2014-09-30T10:59:45Z</time>
      </trkpt>
      <trkpt lat="47.542866915464401" lon="11.30782775580883">
        <ele>1094.1199999999999</ele>
        <time>2014-09-30T10:59:52Z</time>
      </trkpt>
      <trkpt lat="47.542923493310809" lon="11.307783918455243">
        <ele>1094.1199999999999</ele>
        <time>2014-09-30T10:59:55Z</time>
      </trkpt>
      <trkpt lat="47.542962301522493" lon="11.307719210162759">
        <ele>1093.1600000000001</ele>
        <time>2014-09-30T11:00:05Z</time>
      </trkpt>
      <trkpt lat="47.543030697852373" lon="11.307550063356757">
        <ele>1092.6800000000001</ele>
        <time>2014-09-30T11:00:16Z</time>
      </trkpt>
      <trkpt lat="47.543033128604293" lon="11.307409415021539">
        <ele>1093.1600000000001</ele>
        <time>2014-09-30T11:00:30Z</time>
      </trkpt>
      <trkpt lat="47.543030111119151" lon="11.307334145531058">
        <ele>1092.2</ele>
        <time>2014-09-30T11:00:33Z</time>
      </trkpt>
      <trkpt lat="47.542871190235019" lon="11.307083694264293">
        <ele>1089.3099999999999</ele>
        <time>2014-09-30T11:00:43Z</time>
      </trkpt>
      <trkpt lat="47.542708162218332" lon="11.306783454492688">
        <ele>1086.4300000000001</ele>
        <time>2014-09-30T11:00:53Z</time>
      </trkpt>
      <trkpt lat="47.542724255472422" lon="11.306683709844947">
        <ele>1084.5</ele>
        <time>2014-09-30T11:01:02Z</time>
      </trkpt>
      <trkpt lat="47.542739510536194" lon="11.306652948260307">
        <ele>1084.02</ele>
        <time>2014-09-30T11:01:03Z</time>
      </trkpt>
      <trkpt lat="47.542736157774925" lon="11.306562423706055">
        <ele>1082.5799999999999</ele>
        <time>2014-09-30T11:01:05Z</time>
      </trkpt>
      <trkpt lat="47.542712688446045" lon="11.306398222222924">
        <ele>1082.0999999999999</ele>
        <time>2014-09-30T11:01:08Z</time>
      </trkpt>
      <trkpt lat="47.542729200795293" lon="11.306224800646305">
        <ele>1079.7</ele>
        <time>2014-09-30T11:01:14Z</time>
      </trkpt>
      <trkpt lat="47.542701959609985" lon="11.306103514507413">
        <ele>1078.26</ele>
        <time>2014-09-30T11:01:18Z</time>
      </trkpt>
      <trkpt lat="47.542675975710154" lon="11.305954232811928">
        <ele>1076.8099999999999</ele>
        <time>2014-09-30T11:01:28Z</time>
      </trkpt>
      <trkpt lat="47.542660888284445" lon="11.305854907259345">
        <ele>1076.8099999999999</ele>
        <time>2014-09-30T11:01:42Z</time>
      </trkpt>
      <trkpt lat="47.542639682069421" lon="11.305671511217952">
        <ele>1076.8099999999999</ele>
        <time>2014-09-30T11:01:52Z</time>
      </trkpt>
      <trkpt lat="47.542659966275096" lon="11.305542346090078">
        <ele>1077.29</ele>
        <time>2014-09-30T11:02:03Z</time>
      </trkpt>
      <trkpt lat="47.542570531368256" lon="11.305315447971225">
        <ele>1078.26</ele>
        <time>2014-09-30T11:02:14Z</time>
      </trkpt>
      <trkpt lat="47.542495429515839" lon="11.30504940636456">
        <ele>1078.26</ele>
        <time>2014-09-30T11:02:25Z</time>
      </trkpt>
      <trkpt lat="47.542476989328861" lon="11.304993750527501">
        <ele>1077.29</ele>
        <time>2014-09-30T11:02:27Z</time>
      </trkpt>
      <trkpt lat="47.542228884994984" lon="11.304602231830359">
        <ele>1073.9300000000001</ele>
        <time>2014-09-30T11:02:39Z</time>
      </trkpt>
      <trkpt lat="47.541978769004345" lon="11.304485723376274">
        <ele>1071.05</ele>
        <time>2014-09-30T11:02:48Z</time>
      </trkpt>
      <trkpt lat="47.541847005486488" lon="11.304761404171586">
        <ele>1071.53</ele>
        <time>2014-09-30T11:02:57Z</time>
      </trkpt>
      <trkpt lat="47.541834181174636" lon="11.30496240220964">
        <ele>1072.97</ele>
        <time>2014-09-30T11:03:07Z</time>
      </trkpt>
      <trkpt lat="47.541834181174636" lon="11.30496240220964">
        <ele>1072.97</ele>
        <time>2014-09-30T11:03:13Z</time>
      </trkpt>
      <trkpt lat="47.541841976344585" lon="11.304947901517153">
        <ele>1072.97</ele>
        <time>2014-09-30T11:03:15Z</time>
      </trkpt>
      <trkpt lat="47.54185295663774" lon="11.304778670892119">
        <ele>1071.05</ele>
        <time>2014-09-30T11:03:20Z</time>
      </trkpt>
      <trkpt lat="47.541855135932565" lon="11.304683871567249">
        <ele>1071.05</ele>
        <time>2014-09-30T11:03:22Z</time>
      </trkpt>
      <trkpt lat="47.541879275813699" lon="11.304585887119174">
        <ele>1070.5699999999999</ele>
        <time>2014-09-30T11:03:25Z</time>
      </trkpt>
      <trkpt lat="47.541922610253096" lon="11.304508689790964">
        <ele>1070.5699999999999</ele>
        <time>2014-09-30T11:03:29Z</time>
      </trkpt>
      <trkpt lat="47.541985642164946" lon="11.304464098066092">
        <ele>1071.53</ele>
        <time>2014-09-30T11:03:33Z</time>
      </trkpt>
      <trkpt lat="47.542158644646406" lon="11.304542720317841">
        <ele>1072.97</ele>
        <time>2014-09-30T11:03:43Z</time>
      </trkpt>
      <trkpt lat="47.542284121736884" lon="11.304714046418667">
        <ele>1075.3699999999999</ele>
        <time>2014-09-30T11:03:55Z</time>
      </trkpt>
      <trkpt lat="47.542284289374948" lon="11.304690996184945">
        <ele>1075.8499999999999</ele>
        <time>2014-09-30T11:03:59Z</time>
      </trkpt>
      <trkpt lat="47.542308680713177" lon="11.304606758058071">
        <ele>1076.3299999999999</ele>
        <time>2014-09-30T11:04:03Z</time>
      </trkpt>
      <trkpt lat="47.542331395670772" lon="11.304442808032036">
        <ele>1074.8900000000001</ele>
        <time>2014-09-30T11:04:12Z</time>
      </trkpt>
      <trkpt lat="47.54232938401401" lon="11.304218424484134">
        <ele>1071.05</ele>
        <time>2014-09-30T11:04:17Z</time>
      </trkpt>
      <trkpt lat="47.542329048737884" lon="11.304200906306505">
        <ele>1070.5699999999999</ele>
        <time>2014-09-30T11:04:18Z</time>
      </trkpt>
      <trkpt lat="47.542340699583292" lon="11.30406092852354">
        <ele>1067.6800000000001</ele>
        <time>2014-09-30T11:04:21Z</time>
      </trkpt>
      <trkpt lat="47.542372886091471" lon="11.30386546254158">
        <ele>1066.24</ele>
        <time>2014-09-30T11:04:25Z</time>
      </trkpt>
      <trkpt lat="47.542333072051406" lon="11.303691705688834">
        <ele>1064.3199999999999</ele>
        <time>2014-09-30T11:04:28Z</time>
      </trkpt>
      <trkpt lat="47.542330138385296" lon="11.303560696542263">
        <ele>1063.8399999999999</ele>
        <time>2014-09-30T11:04:31Z</time>
      </trkpt>
      <trkpt lat="47.542384201660752" lon="11.303370427340269">
        <ele>1063.8399999999999</ele>
        <time>2014-09-30T11:04:43Z</time>
      </trkpt>
      <trkpt lat="47.542393924668431" lon="11.303270682692528">
        <ele>1064.8</ele>
        <time>2014-09-30T11:04:54Z</time>
      </trkpt>
      <trkpt lat="47.542503476142883" lon="11.303062727674842">
        <ele>1065.28</ele>
        <time>2014-09-30T11:05:06Z</time>
      </trkpt>
      <trkpt lat="47.542519317939878" lon="11.303038923069835">
        <ele>1064.8</ele>
        <time>2014-09-30T11:05:08Z</time>
      </trkpt>
      <trkpt lat="47.542532980442047" lon="11.302930796518922">
        <ele>1063.8399999999999</ele>
        <time>2014-09-30T11:05:20Z</time>
      </trkpt>
      <trkpt lat="47.542525436729193" lon="11.302862232550979">
        <ele>1063.3599999999999</ele>
        <time>2014-09-30T11:05:34Z</time>
      </trkpt>
      <trkpt lat="47.542469864711165" lon="11.302821831777692">
        <ele>1062.3900000000001</ele>
        <time>2014-09-30T11:05:47Z</time>
      </trkpt>
      <trkpt lat="47.542370790615678" lon="11.302709430456161">
        <ele>1060.47</ele>
        <time>2014-09-30T11:05:58Z</time>
      </trkpt>
      <trkpt lat="47.54236307926476" lon="11.302679758518934">
        <ele>1058.0699999999999</ele>
        <time>2014-09-30T11:06:08Z</time>
      </trkpt>
      <trkpt lat="47.542296862229705" lon="11.302609350532293">
        <ele>1059.99</ele>
        <time>2014-09-30T11:06:19Z</time>
      </trkpt>
      <trkpt lat="47.54229074344039" lon="11.302498457953334">
        <ele>1060.47</ele>
        <time>2014-09-30T11:06:29Z</time>
      </trkpt>
      <trkpt lat="47.54229074344039" lon="11.302498457953334">
        <ele>1060.47</ele>
        <time>2014-09-30T11:06:31Z</time>
      </trkpt>
      <trkpt lat="47.542303232476115" lon="11.302260747179389">
        <ele>1059.99</ele>
        <time>2014-09-30T11:06:40Z</time>
      </trkpt>
      <trkpt lat="47.542300885543227" lon="11.302237780764699">
        <ele>1060.95</ele>
        <time>2014-09-30T11:06:41Z</time>
      </trkpt>
      <trkpt lat="47.542290659621358" lon="11.302164271473885">
        <ele>1060.95</ele>
        <time>2014-09-30T11:06:44Z</time>
      </trkpt>
      <trkpt lat="47.542298538610339" lon="11.301971990615129">
        <ele>1059.99</ele>
        <time>2014-09-30T11:06:51Z</time>
      </trkpt>
      <trkpt lat="47.54235670901835" lon="11.301728496327996">
        <ele>1057.1099999999999</ele>
        <time>2014-09-30T11:07:03Z</time>
      </trkpt>
      <trkpt lat="47.542363163083792" lon="11.301721036434174">
        <ele>1057.5899999999999</ele>
        <time>2014-09-30T11:07:15Z</time>
      </trkpt>
      <trkpt lat="47.542357882484794" lon="11.301634954288602">
        <ele>1056.6300000000001</ele>
        <time>2014-09-30T11:07:19Z</time>
      </trkpt>
      <trkpt lat="47.542362995445728" lon="11.301583321765065">
        <ele>1055.6700000000001</ele>
        <time>2014-09-30T11:07:21Z</time>
      </trkpt>
      <trkpt lat="47.542359726503491" lon="11.301404451951385">
        <ele>1055.6700000000001</ele>
        <time>2014-09-30T11:07:30Z</time>
      </trkpt>
      <trkpt lat="47.54235771484673" lon="11.301352651789784">
        <ele>1055.1800000000001</ele>
        <time>2014-09-30T11:07:33Z</time>
      </trkpt>
      <trkpt lat="47.542267693206668" lon="11.301284423097968">
        <ele>1056.6300000000001</ele>
        <time>2014-09-30T11:07:46Z</time>
      </trkpt>
      <trkpt lat="47.542183706536889" lon="11.301200687885284">
        <ele>1057.5899999999999</ele>
        <time>2014-09-30T11:07:54Z</time>
      </trkpt>
      <trkpt lat="47.542101899161935" lon="11.30114964209497">
        <ele>1058.0699999999999</ele>
        <time>2014-09-30T11:08:06Z</time>
      </trkpt>
      <trkpt lat="47.54207868129015" lon="11.301121897995472">
        <ele>1058.0699999999999</ele>
        <time>2014-09-30T11:08:11Z</time>
      </trkpt>
      <trkpt lat="47.542019169777632" lon="11.30107345059514">
        <ele>1058.0699999999999</ele>
        <time>2014-09-30T11:08:16Z</time>
      </trkpt>
      <trkpt lat="47.541916240006685" lon="11.300923833623528">
        <ele>1057.5899999999999</ele>
        <time>2014-09-30T11:08:25Z</time>
      </trkpt>
      <trkpt lat="47.541814148426056" lon="11.300813276320696">
        <ele>1053.26</ele>
        <time>2014-09-30T11:08:31Z</time>
      </trkpt>
      <trkpt lat="47.541722366586328" lon="11.300741778686643">
        <ele>1050.8599999999999</ele>
        <time>2014-09-30T11:08:35Z</time>
      </trkpt>
      <trkpt lat="47.54157392308116" lon="11.300722835585475">
        <ele>1048.9400000000001</ele>
        <time>2014-09-30T11:08:40Z</time>
      </trkpt>
      <trkpt lat="47.541470993310213" lon="11.300753513351083">
        <ele>1047.01</ele>
        <time>2014-09-30T11:08:46Z</time>
      </trkpt>
      <trkpt lat="47.541454397141933" lon="11.300764828920364">
        <ele>1046.05</ele>
        <time>2014-09-30T11:08:47Z</time>
      </trkpt>
      <trkpt lat="47.541404357179999" lon="11.300765164196491">
        <ele>1044.6099999999999</ele>
        <time>2014-09-30T11:08:58Z</time>
      </trkpt>
      <trkpt lat="47.541382061317563" lon="11.300782347097993">
        <ele>1041.25</ele>
        <time>2014-09-30T11:09:10Z</time>
      </trkpt>
      <trkpt lat="47.541292710229754" lon="11.300770193338394">
        <ele>1038.3599999999999</ele>
        <time>2014-09-30T11:09:21Z</time>
      </trkpt>
      <trkpt lat="47.54121970385313" lon="11.300772959366441">
        <ele>1035.48</ele>
        <time>2014-09-30T11:09:31Z</time>
      </trkpt>
      <trkpt lat="47.541187768802047" lon="11.30075192078948">
        <ele>1033.55</ele>
        <time>2014-09-30T11:09:40Z</time>
      </trkpt>
      <trkpt lat="47.541129514575005" lon="11.300741191953421">
        <ele>1032.1099999999999</ele>
        <time>2014-09-30T11:09:44Z</time>
      </trkpt>
      <trkpt lat="47.541104201227427" lon="11.300730966031551">
        <ele>1031.6300000000001</ele>
        <time>2014-09-30T11:09:46Z</time>
      </trkpt>
      <trkpt lat="47.541066985577345" lon="11.300722835585475">
        <ele>1030.1900000000001</ele>
        <time>2014-09-30T11:09:49Z</time>
      </trkpt>
      <trkpt lat="47.541029267013073" lon="11.30071478895843">
        <ele>1029.23</ele>
        <time>2014-09-30T11:09:51Z</time>
      </trkpt>
      <trkpt lat="47.540950560942292" lon="11.300694169476628">
        <ele>1027.79</ele>
        <time>2014-09-30T11:10:04Z</time>
      </trkpt>
      <trkpt lat="47.540950560942292" lon="11.300694169476628">
        <ele>1027.79</ele>
        <time>2014-09-30T11:10:05Z</time>
      </trkpt>
      <trkpt lat="47.540779570117593" lon="11.300640692934394">
        <ele>1024.9000000000001</ele>
        <time>2014-09-30T11:10:11Z</time>
      </trkpt>
      <trkpt lat="47.540715532377362" lon="11.300632478669286">
        <ele>1023.9400000000001</ele>
        <time>2014-09-30T11:10:13Z</time>
      </trkpt>
      <trkpt lat="47.540569351986051" lon="11.300595933571458">
        <ele>1022.02</ele>
        <time>2014-09-30T11:10:17Z</time>
      </trkpt>
      <trkpt lat="47.54047597758472" lon="11.300543127581477">
        <ele>1021.0599999999999</ele>
        <time>2014-09-30T11:10:20Z</time>
      </trkpt>
      <trkpt lat="47.540362318977714" lon="11.300511192530394">
        <ele>1019.13</ele>
        <time>2014-09-30T11:10:24Z</time>
      </trkpt>
      <trkpt lat="47.540191244333982" lon="11.300536338239908">
        <ele>1019.13</ele>
        <time>2014-09-30T11:10:32Z</time>
      </trkpt>
      <trkpt lat="47.540085883811116" lon="11.300586713477969">
        <ele>1019.13</ele>
        <time>2014-09-30T11:10:40Z</time>
      </trkpt>
      <trkpt lat="47.539935428649187" lon="11.300671203061938">
        <ele>1019.13</ele>
        <time>2014-09-30T11:10:51Z</time>
      </trkpt>
      <trkpt lat="47.539806347340345" lon="11.300754770636559">
        <ele>1019.13</ele>
        <time>2014-09-30T11:11:03Z</time>
      </trkpt>
      <trkpt lat="47.539798384532332" lon="11.300772791728377">
        <ele>1019.13</ele>
        <time>2014-09-30T11:11:05Z</time>
      </trkpt>
      <trkpt lat="47.539717247709632" lon="11.300850827246904">
        <ele>1019.13</ele>
        <time>2014-09-30T11:11:11Z</time>
      </trkpt>
      <trkpt lat="47.539665028452873" lon="11.300949566066265">
        <ele>1019.13</ele>
        <time>2014-09-30T11:11:24Z</time>
      </trkpt>
      <trkpt lat="47.539665028452873" lon="11.300949566066265">
        <ele>1019.62</ele>
        <time>2014-09-30T11:11:26Z</time>
      </trkpt>
      <trkpt lat="47.539655053988099" lon="11.300986530259252">
        <ele>1019.62</ele>
        <time>2014-09-30T11:11:31Z</time>
      </trkpt>
      <trkpt lat="47.539582634344697" lon="11.301052495837212">
        <ele>1020.58</ele>
        <time>2014-09-30T11:11:44Z</time>
      </trkpt>
      <trkpt lat="47.539522117003798" lon="11.301171602681279">
        <ele>1021.0599999999999</ele>
        <time>2014-09-30T11:11:56Z</time>
      </trkpt>
      <trkpt lat="47.539486913010478" lon="11.301224995404482">
        <ele>1020.58</ele>
        <time>2014-09-30T11:12:04Z</time>
      </trkpt>
      <trkpt lat="47.539377110078931" lon="11.301428927108645">
        <ele>1021.54</ele>
        <time>2014-09-30T11:12:13Z</time>
      </trkpt>
      <trkpt lat="47.539342325180769" lon="11.301503106951714">
        <ele>1021.54</ele>
        <time>2014-09-30T11:12:24Z</time>
      </trkpt>
      <trkpt lat="47.539330925792456" lon="11.301538310945034">
        <ele>1021.54</ele>
        <time>2014-09-30T11:12:27Z</time>
      </trkpt>
      <trkpt lat="47.539318352937698" lon="11.301569491624832">
        <ele>1021.54</ele>
        <time>2014-09-30T11:12:29Z</time>
      </trkpt>
      <trkpt lat="47.539244927465916" lon="11.301661776378751">
        <ele>1022.5</ele>
        <time>2014-09-30T11:12:37Z</time>
      </trkpt>
      <trkpt lat="47.539193965494633" lon="11.301766969263554">
        <ele>1022.5</ele>
        <time>2014-09-30T11:12:50Z</time>
      </trkpt>
      <trkpt lat="47.539115929976106" lon="11.301821283996105">
        <ele>1023.46</ele>
        <time>2014-09-30T11:13:01Z</time>
      </trkpt>
      <trkpt lat="47.539079803973436" lon="11.301825223490596">
        <ele>1022.98</ele>
        <time>2014-09-30T11:13:04Z</time>
      </trkpt>
      <trkpt lat="47.539008390158415" lon="11.301834108307958">
        <ele>1022.98</ele>
        <time>2014-09-30T11:13:16Z</time>
      </trkpt>
      <trkpt lat="47.538936724886298" lon="11.301879538223147">
        <ele>1022.98</ele>
        <time>2014-09-30T11:13:21Z</time>
      </trkpt>
      <trkpt lat="47.538886852562428" lon="11.301911389455199">
        <ele>1022.98</ele>
        <time>2014-09-30T11:13:24Z</time>
      </trkpt>
      <trkpt lat="47.538793059065938" lon="11.30200375802815">
        <ele>1022.5</ele>
        <time>2014-09-30T11:13:34Z</time>
      </trkpt>
      <trkpt lat="47.538740923628211" lon="11.302110962569714">
        <ele>1022.5</ele>
        <time>2014-09-30T11:13:47Z</time>
      </trkpt>
      <trkpt lat="47.538681495934725" lon="11.302305087447166">
        <ele>1020.1</ele>
        <time>2014-09-30T11:13:56Z</time>
      </trkpt>
      <trkpt lat="47.538671856746078" lon="11.302317408844829">
        <ele>1019.62</ele>
        <time>2014-09-30T11:13:57Z</time>
      </trkpt>
      <trkpt lat="47.538545709103346" lon="11.302442131564021">
        <ele>1016.73</ele>
        <time>2014-09-30T11:14:02Z</time>
      </trkpt>
      <trkpt lat="47.53847454674542" lon="11.302507510408759">
        <ele>1013.37</ele>
        <time>2014-09-30T11:14:08Z</time>
      </trkpt>
      <trkpt lat="47.538360301405191" lon="11.302643632516265">
        <ele>1010</ele>
        <time>2014-09-30T11:14:12Z</time>
      </trkpt>
      <trkpt lat="47.538197189569473" lon="11.302763829007745">
        <ele>1006.64</ele>
        <time>2014-09-30T11:14:17Z</time>
      </trkpt>
      <trkpt lat="47.538078585639596" lon="11.302810600027442">
        <ele>1004.72</ele>
        <time>2014-09-30T11:14:20Z</time>
      </trkpt>
      <trkpt lat="47.537779519334435" lon="11.302968515083194">
        <ele>1003.27</ele>
        <time>2014-09-30T11:14:31Z</time>
      </trkpt>
      <trkpt lat="47.537631914019585" lon="11.302981087937951">
        <ele>1002.79</ele>
        <time>2014-09-30T11:14:38Z</time>
      </trkpt>
      <trkpt lat="47.537399651482701" lon="11.303007490932941">
        <ele>1000.87</ele>
        <time>2014-09-30T11:14:47Z</time>
      </trkpt>
      <trkpt lat="47.537312982603908" lon="11.303021907806396">
        <ele>999.42999999999995</ele>
        <time>2014-09-30T11:14:50Z</time>
      </trkpt>
      <trkpt lat="47.537135453894734" lon="11.303076976910233">
        <ele>996.05999999999995</ele>
        <time>2014-09-30T11:14:55Z</time>
      </trkpt>
      <trkpt lat="47.537103351205587" lon="11.30308753810823">
        <ele>995.58000000000004</ele>
        <time>2014-09-30T11:14:56Z</time>
      </trkpt>
      <trkpt lat="47.537031266838312" lon="11.303185857832432">
        <ele>991.74000000000001</ele>
        <time>2014-09-30T11:15:01Z</time>
      </trkpt>
      <trkpt lat="47.536943927407265" lon="11.303171357139945">
        <ele>988.85000000000002</ele>
        <time>2014-09-30T11:15:04Z</time>
      </trkpt>
      <trkpt lat="47.536834208294749" lon="11.303095249459147">
        <ele>986.45000000000005</ele>
        <time>2014-09-30T11:15:07Z</time>
      </trkpt>
      <trkpt lat="47.536734715104103" lon="11.303009167313576">
        <ele>985.49000000000001</ele>
        <time>2014-09-30T11:15:15Z</time>
      </trkpt>
      <trkpt lat="47.536581913009286" lon="11.302931718528271">
        <ele>982.12</ele>
        <time>2014-09-30T11:15:20Z</time>
      </trkpt>
      <trkpt lat="47.53638468682766" lon="11.302834236994386">
        <ele>978.75999999999999</ele>
        <time>2014-09-30T11:15:25Z</time>
      </trkpt>
      <trkpt lat="47.536317966878414" lon="11.302774976938963">
        <ele>977.79999999999995</ele>
        <time>2014-09-30T11:15:27Z</time>
      </trkpt>
      <trkpt lat="47.536221407353878" lon="11.3026331551373">
        <ele>976.36000000000001</ele>
        <time>2014-09-30T11:15:35Z</time>
      </trkpt>
      <trkpt lat="47.536221407353878" lon="11.3026331551373">
        <ele>976.36000000000001</ele>
        <time>2014-09-30T11:15:38Z</time>
      </trkpt>
      <trkpt lat="47.53621126525104" lon="11.30261505022645">
        <ele>975.88</ele>
        <time>2014-09-30T11:15:54Z</time>
      </trkpt>
      <trkpt lat="47.536231214180589" lon="11.302596442401409">
        <ele>976.36000000000001</ele>
        <time>2014-09-30T11:16:07Z</time>
      </trkpt>
      <trkpt lat="47.53638275898993" lon="11.302623180672526">
        <ele>978.27999999999997</ele>
        <time>2014-09-30T11:16:18Z</time>
      </trkpt>
      <trkpt lat="47.536445707082748" lon="11.302598873153329">
        <ele>978.75999999999999</ele>
        <time>2014-09-30T11:16:21Z</time>
      </trkpt>
      <trkpt lat="47.536684842780232" lon="11.302494015544653">
        <ele>981.63999999999999</ele>
        <time>2014-09-30T11:16:35Z</time>
      </trkpt>
      <trkpt lat="47.536918697878718" lon="11.302274074405432">
        <ele>981.63999999999999</ele>
        <time>2014-09-30T11:16:47Z</time>
      </trkpt>
      <trkpt lat="47.53694468177855" lon="11.302232081070542">
        <ele>981.63999999999999</ele>
        <time>2014-09-30T11:16:48Z</time>
      </trkpt>
      <trkpt lat="47.53699941560626" lon="11.302127307280898">
        <ele>981.15999999999997</ele>
        <time>2014-09-30T11:16:50Z</time>
      </trkpt>
      <trkpt lat="47.537008635699749" lon="11.301649371162057">
        <ele>980.20000000000005</ele>
        <time>2014-09-30T11:16:58Z</time>
      </trkpt>
      <trkpt lat="47.53698131069541" lon="11.301603354513645">
        <ele>980.20000000000005</ele>
        <time>2014-09-30T11:16:59Z</time>
      </trkpt>
      <trkpt lat="47.536777462810278" lon="11.301249135285616">
        <ele>979.24000000000001</ele>
        <time>2014-09-30T11:17:06Z</time>
      </trkpt>
      <trkpt lat="47.536714011803269" lon="11.301048891618848">
        <ele>978.27999999999997</ele>
        <time>2014-09-30T11:17:09Z</time>
      </trkpt>
      <trkpt lat="47.536601610481739" lon="11.300532566383481">
        <ele>977.79999999999995</ele>
        <time>2014-09-30T11:17:19Z</time>
      </trkpt>
      <trkpt lat="47.536570178344846" lon="11.300277002155781">
        <ele>976.84000000000003</ele>
        <time>2014-09-30T11:17:24Z</time>
      </trkpt>
      <trkpt lat="47.536513600498438" lon="11.300052534788847">
        <ele>976.36000000000001</ele>
        <time>2014-09-30T11:17:28Z</time>
      </trkpt>
      <trkpt lat="47.53632802516222" lon="11.299483822658658">
        <ele>975.88</ele>
        <time>2014-09-30T11:17:40Z</time>
      </trkpt>
      <trkpt lat="47.536130296066403" lon="11.298979064449668">
        <ele>974.42999999999995</ele>
        <time>2014-09-30T11:17:50Z</time>
      </trkpt>
      <trkpt lat="47.53607933409512" lon="11.298418566584587">
        <ele>975.38999999999999</ele>
        <time>2014-09-30T11:17:59Z</time>
      </trkpt>
      <trkpt lat="47.536069611087441" lon="11.298214048147202">
        <ele>974.90999999999997</ele>
        <time>2014-09-30T11:18:02Z</time>
      </trkpt>
      <trkpt lat="47.535998532548547" lon="11.297943815588951">
        <ele>974.42999999999995</ele>
        <time>2014-09-30T11:18:06Z</time>
      </trkpt>
      <trkpt lat="47.535869115963578" lon="11.297358674928546">
        <ele>977.79999999999995</ele>
        <time>2014-09-30T11:18:18Z</time>
      </trkpt>
      <trkpt lat="47.535658478736877" lon="11.296968916431069">
        <ele>976.84000000000003</ele>
        <time>2014-09-30T11:18:28Z</time>
      </trkpt>
      <trkpt lat="47.535428144037724" lon="11.29645049571991">
        <ele>979.24000000000001</ele>
        <time>2014-09-30T11:18:41Z</time>
      </trkpt>
      <trkpt lat="47.535307360813022" lon="11.29625016823411">
        <ele>982.12</ele>
        <time>2014-09-30T11:18:52Z</time>
      </trkpt>
      <trkpt lat="47.535190349444747" lon="11.2961211707443">
        <ele>985.49000000000001</ele>
        <time>2014-09-30T11:19:04Z</time>
      </trkpt>
      <trkpt lat="47.535120444372296" lon="11.296071549877524">
        <ele>986.92999999999995</ele>
        <time>2014-09-30T11:19:11Z</time>
      </trkpt>
      <trkpt lat="47.535103848204017" lon="11.296045230701566">
        <ele>987.40999999999997</ele>
        <time>2014-09-30T11:19:13Z</time>
      </trkpt>
      <trkpt lat="47.535042744129896" lon="11.296020420268178">
        <ele>988.37</ele>
        <time>2014-09-30T11:19:18Z</time>
      </trkpt>
      <trkpt lat="47.534916931763291" lon="11.295976834371686">
        <ele>991.74000000000001</ele>
        <time>2014-09-30T11:19:34Z</time>
      </trkpt>
      <trkpt lat="47.534906957298517" lon="11.295970967039466">
        <ele>991.74000000000001</ele>
        <time>2014-09-30T11:19:35Z</time>
      </trkpt>
      <trkpt lat="47.53484652377665" lon="11.295969793573022">
        <ele>993.17999999999995</ele>
        <time>2014-09-30T11:19:41Z</time>
      </trkpt>
      <trkpt lat="47.534824144095182" lon="11.295966021716595">
        <ele>993.17999999999995</ele>
        <time>2014-09-30T11:19:43Z</time>
      </trkpt>
      <trkpt lat="47.534594479948282" lon="11.295929560437799">
        <ele>995.58000000000004</ele>
        <time>2014-09-30T11:19:57Z</time>
      </trkpt>
      <trkpt lat="47.534367330372334" lon="11.295999465510249">
        <ele>997.50999999999999</ele>
        <time>2014-09-30T11:20:10Z</time>
      </trkpt>
      <trkpt lat="47.53414093516767" lon="11.296101808547974">
        <ele>1000.39</ele>
        <time>2014-09-30T11:20:24Z</time>
      </trkpt>
      <trkpt lat="47.533872378990054" lon="11.296156207099557">
        <ele>1001.83</ele>
        <time>2014-09-30T11:20:38Z</time>
      </trkpt>
      <trkpt lat="47.533703483641148" lon="11.296053864061832">
        <ele>1004.72</ele>
        <time>2014-09-30T11:20:50Z</time>
      </trkpt>
      <trkpt lat="47.533689234405756" lon="11.296044979244471">
        <ele>1004.72</ele>
        <time>2014-09-30T11:20:51Z</time>
      </trkpt>
      <trkpt lat="47.53357364796102" lon="11.295913131907582">
        <ele>1005.6799999999999</ele>
        <time>2014-09-30T11:21:00Z</time>
      </trkpt>
      <trkpt lat="47.533398885279894" lon="11.295653292909265">
        <ele>1009.04</ele>
        <time>2014-09-30T11:21:15Z</time>
      </trkpt>
      <trkpt lat="47.533258153125644" lon="11.295386496931314">
        <ele>1010.96</ele>
        <time>2014-09-30T11:21:28Z</time>
      </trkpt>
      <trkpt lat="47.533247089013457" lon="11.295361686497927">
        <ele>1010.96</ele>
        <time>2014-09-30T11:21:29Z</time>
      </trkpt>
      <trkpt lat="47.533150278031826" lon="11.29524165764451">
        <ele>1012.89</ele>
        <time>2014-09-30T11:21:36Z</time>
      </trkpt>
      <trkpt lat="47.532871747389436" lon="11.295027835294604">
        <ele>1011.9299999999999</ele>
        <time>2014-09-30T11:21:49Z</time>
      </trkpt>
      <trkpt lat="47.532534459605813" lon="11.294684428721666">
        <ele>1010</ele>
        <time>2014-09-30T11:21:57Z</time>
      </trkpt>
      <trkpt lat="47.532500680536032" lon="11.294631874188781">
        <ele>1010</ele>
        <time>2014-09-30T11:21:58Z</time>
      </trkpt>
      <trkpt lat="47.532157273963094" lon="11.294285114854574">
        <ele>1010.48</ele>
        <time>2014-09-30T11:22:09Z</time>
      </trkpt>
      <trkpt lat="47.532084938138723" lon="11.294206576421857">
        <ele>1011.9299999999999</ele>
        <time>2014-09-30T11:22:12Z</time>
      </trkpt>
      <trkpt lat="47.531815962865949" lon="11.2939418759197">
        <ele>1015.29</ele>
        <time>2014-09-30T11:22:26Z</time>
      </trkpt>
      <trkpt lat="47.531592836603522" lon="11.293697627261281">
        <ele>1017.21</ele>
        <time>2014-09-30T11:22:39Z</time>
      </trkpt>
      <trkpt lat="47.531416229903698" lon="11.293518338352442">
        <ele>1019.13</ele>
        <time>2014-09-30T11:22:49Z</time>
      </trkpt>
      <trkpt lat="47.531375829130411" lon="11.293494366109371">
        <ele>1023.46</ele>
        <time>2014-09-30T11:22:51Z</time>
      </trkpt>
      <trkpt lat="47.531318077817559" lon="11.293433010578156">
        <ele>1020.1</ele>
        <time>2014-09-30T11:22:55Z</time>
      </trkpt>
      <trkpt lat="47.531255297362804" lon="11.293375762179494">
        <ele>1021.0599999999999</ele>
        <time>2014-09-30T11:22:59Z</time>
      </trkpt>
      <trkpt lat="47.531191930174828" lon="11.293321028351784">
        <ele>1022.5</ele>
        <time>2014-09-30T11:23:03Z</time>
      </trkpt>
      <trkpt lat="47.531008115038276" lon="11.293118773028255">
        <ele>1023.9400000000001</ele>
        <time>2014-09-30T11:23:15Z</time>
      </trkpt>
      <trkpt lat="47.530766716226935" lon="11.29300125874579">
        <ele>1024.9000000000001</ele>
        <time>2014-09-30T11:23:26Z</time>
      </trkpt>
      <trkpt lat="47.530659846961498" lon="11.293037217110395">
        <ele>1025.8599999999999</ele>
        <time>2014-09-30T11:23:31Z</time>
      </trkpt>
      <trkpt lat="47.530577452853322" lon="11.293067894876003">
        <ele>1026.3399999999999</ele>
        <time>2014-09-30T11:23:35Z</time>
      </trkpt>
      <trkpt lat="47.530282661318779" lon="11.293011736124754">
        <ele>1026.3399999999999</ele>
        <time>2014-09-30T11:23:48Z</time>
      </trkpt>
      <trkpt lat="47.530039334669709" lon="11.292852982878685">
        <ele>1027.79</ele>
        <time>2014-09-30T11:23:59Z</time>
      </trkpt>
      <trkpt lat="47.53000957891345" lon="11.292706048116088">
        <ele>1028.27</ele>
        <time>2014-09-30T11:24:03Z</time>
      </trkpt>
      <trkpt lat="47.53003740683198" lon="11.292443191632628">
        <ele>1027.79</ele>
        <time>2014-09-30T11:24:08Z</time>
      </trkpt>
      <trkpt lat="47.530078226700425" lon="11.292117889970541">
        <ele>1026.3399999999999</ele>
        <time>2014-09-30T11:24:16Z</time>
      </trkpt>
      <trkpt lat="47.529968172311783" lon="11.292100707069039">
        <ele>1024.9000000000001</ele>
        <time>2014-09-30T11:24:22Z</time>
      </trkpt>
      <trkpt lat="47.529746806249022" lon="11.292144963517785">
        <ele>1019.13</ele>
        <time>2014-09-30T11:24:28Z</time>
      </trkpt>
      <trkpt lat="47.529584364965558" lon="11.292235571891069">
        <ele>1016.25</ele>
        <time>2014-09-30T11:24:33Z</time>
      </trkpt>
      <trkpt lat="47.529534827917814" lon="11.292331628501415">
        <ele>1016.25</ele>
        <time>2014-09-30T11:24:40Z</time>
      </trkpt>
      <trkpt lat="47.529534827917814" lon="11.292331628501415">
        <ele>1015.77</ele>
        <time>2014-09-30T11:24:44Z</time>
      </trkpt>
      <trkpt lat="47.529434328898787" lon="11.292409496381879">
        <ele>1012.41</ele>
        <time>2014-09-30T11:24:49Z</time>
      </trkpt>
      <trkpt lat="47.52932695671916" lon="11.292470348998904">
        <ele>1009.52</ele>
        <time>2014-09-30T11:24:52Z</time>
      </trkpt>
      <trkpt lat="47.52927171997726" lon="11.292483927682042">
        <ele>1009.04</ele>
        <time>2014-09-30T11:24:54Z</time>
      </trkpt>
      <trkpt lat="47.529143895953894" lon="11.292381836101413">
        <ele>1005.2</ele>
        <time>2014-09-30T11:24:59Z</time>
      </trkpt>
      <trkpt lat="47.529107602313161" lon="11.29235434345901">
        <ele>1003.75</ele>
        <time>2014-09-30T11:25:00Z</time>
      </trkpt>
      <trkpt lat="47.528835106641054" lon="11.292225429788232">
        <ele>999.90999999999997</ele>
        <time>2014-09-30T11:25:07Z</time>
      </trkpt>
      <trkpt lat="47.528636120259762" lon="11.292051337659359">
        <ele>1000.39</ele>
        <time>2014-09-30T11:25:14Z</time>
      </trkpt>
      <trkpt lat="47.528568143025041" lon="11.291976990178227">
        <ele>1000.39</ele>
        <time>2014-09-30T11:25:24Z</time>
      </trkpt>
      <trkpt lat="47.528537129983306" lon="11.291916389018297">
        <ele>1000.87</ele>
        <time>2014-09-30T11:25:50Z</time>
      </trkpt>
      <trkpt lat="47.528537129983306" lon="11.291916389018297">
        <ele>1000.39</ele>
        <time>2014-09-30T11:25:52Z</time>
      </trkpt>
      <trkpt lat="47.52850653603673" lon="11.291655544191599">
        <ele>1001.83</ele>
        <time>2014-09-30T11:26:04Z</time>
      </trkpt>
      <trkpt lat="47.528409054502845" lon="11.291366703808308">
        <ele>1003.75</ele>
        <time>2014-09-30T11:26:13Z</time>
      </trkpt>
      <trkpt lat="47.528435792773962" lon="11.291161263361573">
        <ele>1003.27</ele>
        <time>2014-09-30T11:26:19Z</time>
      </trkpt>
      <trkpt lat="47.528517432510853" lon="11.29092556424439">
        <ele>1001.83</ele>
        <time>2014-09-30T11:26:25Z</time>
      </trkpt>
      <trkpt lat="47.528631258755922" lon="11.290400773286819">
        <ele>999.90999999999997</ele>
        <time>2014-09-30T11:26:36Z</time>
      </trkpt>
      <trkpt lat="47.528531849384308" lon="11.290248893201351">
        <ele>997.50999999999999</ele>
        <time>2014-09-30T11:26:46Z</time>
      </trkpt>
      <trkpt lat="47.528518522158265" lon="11.290162391960621">
        <ele>996.53999999999996</ele>
        <time>2014-09-30T11:26:55Z</time>
      </trkpt>
      <trkpt lat="47.528518522158265" lon="11.290162391960621">
        <ele>996.53999999999996</ele>
        <time>2014-09-30T11:27:21Z</time>
      </trkpt>
      <trkpt lat="47.528516091406345" lon="11.290159206837416">
        <ele>996.05999999999995</ele>
        <time>2014-09-30T11:27:40Z</time>
      </trkpt>
      <trkpt lat="47.528521372005343" lon="11.290070610120893">
        <ele>995.10000000000002</ele>
        <time>2014-09-30T11:27:43Z</time>
      </trkpt>
      <trkpt lat="47.528678784146905" lon="11.289883106946945">
        <ele>993.65999999999997</ele>
        <time>2014-09-30T11:27:51Z</time>
      </trkpt>
      <trkpt lat="47.528757322579622" lon="11.289890902116895">
        <ele>992.22000000000003</ele>
        <time>2014-09-30T11:28:01Z</time>
      </trkpt>
      <trkpt lat="47.528757322579622" lon="11.289890902116895">
        <ele>992.22000000000003</ele>
        <time>2014-09-30T11:28:04Z</time>
      </trkpt>
      <trkpt lat="47.528876513242722" lon="11.289798365905881">
        <ele>988.85000000000002</ele>
        <time>2014-09-30T11:28:09Z</time>
      </trkpt>
      <trkpt lat="47.528855055570602" lon="11.28958772867918">
        <ele>985.49000000000001</ele>
        <time>2014-09-30T11:28:15Z</time>
      </trkpt>
      <trkpt lat="47.528718514367938" lon="11.289552776142955">
        <ele>983.09000000000003</ele>
        <time>2014-09-30T11:28:18Z</time>
      </trkpt>
      <trkpt lat="47.52845766954124" lon="11.289496449753642">
        <ele>978.75999999999999</ele>
        <time>2014-09-30T11:28:24Z</time>
      </trkpt>
      <trkpt lat="47.5282231438905" lon="11.289515309035778">
        <ele>974.90999999999997</ele>
        <time>2014-09-30T11:28:29Z</time>
      </trkpt>
      <trkpt lat="47.528063552454114" lon="11.289569959044456">
        <ele>972.50999999999999</ele>
        <time>2014-09-30T11:28:33Z</time>
      </trkpt>
      <trkpt lat="47.527931621298194" lon="11.289634834975004">
        <ele>971.07000000000005</ele>
        <time>2014-09-30T11:28:36Z</time>
      </trkpt>
      <trkpt lat="47.527751326560974" lon="11.28950516693294">
        <ele>966.25999999999999</ele>
        <time>2014-09-30T11:28:44Z</time>
      </trkpt>
      <trkpt lat="47.527793487533927" lon="11.289413217455149">
        <ele>965.29999999999995</ele>
        <time>2014-09-30T11:28:46Z</time>
      </trkpt>
      <trkpt lat="47.527820225805044" lon="11.289363177493215">
        <ele>964.34000000000003</ele>
        <time>2014-09-30T11:28:48Z</time>
      </trkpt>
      <trkpt lat="47.527771024033427" lon="11.289316993206739">
        <ele>963.38</ele>
        <time>2014-09-30T11:28:53Z</time>
      </trkpt>
      <trkpt lat="47.527748811990023" lon="11.289286818355322">
        <ele>963.38</ele>
        <time>2014-09-30T11:29:04Z</time>
      </trkpt>
      <trkpt lat="47.527807401493192" lon="11.289331577718258">
        <ele>964.34000000000003</ele>
        <time>2014-09-30T11:29:15Z</time>
      </trkpt>
      <trkpt lat="47.527822991833091" lon="11.289307018741965">
        <ele>963.86000000000001</ele>
        <time>2014-09-30T11:29:17Z</time>
      </trkpt>
      <trkpt lat="47.527993815019727" lon="11.289016334339976">
        <ele>960.49000000000001</ele>
        <time>2014-09-30T11:29:25Z</time>
      </trkpt>
      <trkpt lat="47.52805458381772" lon="11.288920696824789">
        <ele>958.57000000000005</ele>
        <time>2014-09-30T11:29:27Z</time>
      </trkpt>
      <trkpt lat="47.52817721106112" lon="11.288808546960354">
        <ele>957.13</ele>
        <time>2014-09-30T11:29:30Z</time>
      </trkpt>
      <trkpt lat="47.528321379795671" lon="11.288708467036486">
        <ele>955.21000000000004</ele>
        <time>2014-09-30T11:29:34Z</time>
      </trkpt>
      <trkpt lat="47.52844157628715" lon="11.288431696593761">
        <ele>952.32000000000005</ele>
        <time>2014-09-30T11:29:39Z</time>
      </trkpt>
      <trkpt lat="47.528501590713859" lon="11.28821955062449">
        <ele>949.91999999999996</ele>
        <time>2014-09-30T11:29:43Z</time>
      </trkpt>
      <trkpt lat="47.528504356741905" lon="11.287999274209142">
        <ele>946.07000000000005</ele>
        <time>2014-09-30T11:29:46Z</time>
      </trkpt>
      <trkpt lat="47.528451383113861" lon="11.287731304764748">
        <ele>941.75</ele>
        <time>2014-09-30T11:29:50Z</time>
      </trkpt>
      <trkpt lat="47.528378125280142" lon="11.287486469373107">
        <ele>938.38</ele>
        <time>2014-09-30T11:29:54Z</time>
      </trkpt>
      <trkpt lat="47.528364211320877" lon="11.287364847958088">
        <ele>937.41999999999996</ele>
        <time>2014-09-30T11:29:56Z</time>
      </trkpt>
      <trkpt lat="47.52838390879333" lon="11.287195030599833">
        <ele>934.53999999999996</ele>
        <time>2014-09-30T11:29:59Z</time>
      </trkpt>
      <trkpt lat="47.528359098359942" lon="11.286936784163117">
        <ele>931.64999999999998</ele>
        <time>2014-09-30T11:30:04Z</time>
      </trkpt>
      <trkpt lat="47.528313836082816" lon="11.286841901019216">
        <ele>930.69000000000005</ele>
        <time>2014-09-30T11:30:06Z</time>
      </trkpt>
      <trkpt lat="47.528205122798681" lon="11.2867097184062">
        <ele>929.25</ele>
        <time>2014-09-30T11:30:09Z</time>
      </trkpt>
      <trkpt lat="47.528136055916548" lon="11.286628246307373">
        <ele>927.80999999999995</ele>
        <time>2014-09-30T11:30:11Z</time>
      </trkpt>
      <trkpt lat="47.527988534420729" lon="11.286324486136436">
        <ele>923.48000000000002</ele>
        <time>2014-09-30T11:30:16Z</time>
      </trkpt>
      <trkpt lat="47.527877893298864" lon="11.286067916080356">
        <ele>920.12</ele>
        <time>2014-09-30T11:30:20Z</time>
      </trkpt>
      <trkpt lat="47.527807150036097" lon="11.285948390141129">
        <ele>919.15999999999997</ele>
        <time>2014-09-30T11:30:22Z</time>
      </trkpt>
      <trkpt lat="47.527641355991364" lon="11.285769687965512">
        <ele>917.72000000000003</ele>
        <time>2014-09-30T11:30:31Z</time>
      </trkpt>
      <trkpt lat="47.527641355991364" lon="11.285769687965512">
        <ele>917.72000000000003</ele>
        <time>2014-09-30T11:30:39Z</time>
      </trkpt>
      <trkpt lat="47.527467850595713" lon="11.285594590008259">
        <ele>916.26999999999998</ele>
        <time>2014-09-30T11:30:49Z</time>
      </trkpt>
      <trkpt lat="47.527281437069178" lon="11.285427957773209">
        <ele>912.90999999999997</ele>
        <time>2014-09-30T11:30:57Z</time>
      </trkpt>
      <trkpt lat="47.52714280039072" lon="11.28541236743331">
        <ele>910.02999999999997</ele>
        <time>2014-09-30T11:31:00Z</time>
      </trkpt>
      <trkpt lat="47.526988992467523" lon="11.285372134298086">
        <ele>904.74000000000001</ele>
        <time>2014-09-30T11:31:03Z</time>
      </trkpt>
      <trkpt lat="47.526941383257508" lon="11.285357717424631">
        <ele>904.25999999999999</ele>
        <time>2014-09-30T11:31:04Z</time>
      </trkpt>
      <trkpt lat="47.526631001383066" lon="11.285354364663363">
        <ele>900.88999999999999</ele>
        <time>2014-09-30T11:31:10Z</time>
      </trkpt>
      <trkpt lat="47.52658967860043" lon="11.28535084426403">
        <ele>900.40999999999997</ele>
        <time>2014-09-30T11:31:11Z</time>
      </trkpt>
      <trkpt lat="47.526540225371718" lon="11.285209860652685">
        <ele>899.92999999999995</ele>
        <time>2014-09-30T11:31:16Z</time>
      </trkpt>
      <trkpt lat="47.526723705232143" lon="11.284567471593618">
        <ele>902.33000000000004</ele>
        <time>2014-09-30T11:31:32Z</time>
      </trkpt>
      <trkpt lat="47.526746252551675" lon="11.284476444125175">
        <ele>903.29999999999995</ele>
        <time>2014-09-30T11:31:35Z</time>
      </trkpt>
      <trkpt lat="47.526991590857506" lon="11.284159692004323">
        <ele>904.74000000000001</ele>
        <time>2014-09-30T11:31:48Z</time>
      </trkpt>
      <trkpt lat="47.527340110391378" lon="11.284000854939222">
        <ele>906.17999999999995</ele>
        <time>2014-09-30T11:32:01Z</time>
      </trkpt>
      <trkpt lat="47.527788039296865" lon="11.283976379781961">
        <ele>906.17999999999995</ele>
        <time>2014-09-30T11:32:15Z</time>
      </trkpt>
      <trkpt lat="47.528276117518544" lon="11.284073442220688">
        <ele>905.22000000000003</ele>
        <time>2014-09-30T11:32:28Z</time>
      </trkpt>
      <trkpt lat="47.528445180505514" lon="11.284095821902156">
        <ele>905.70000000000005</ele>
        <time>2014-09-30T11:32:32Z</time>
      </trkpt>
      <trkpt lat="47.529148086905479" lon="11.284124152734876">
        <ele>903.29999999999995</ele>
        <time>2014-09-30T11:32:47Z</time>
      </trkpt>
      <trkpt lat="47.529801456257701" lon="11.28407210111618">
        <ele>903.29999999999995</ele>
        <time>2014-09-30T11:33:00Z</time>
      </trkpt>
      <trkpt lat="47.529851328581572" lon="11.284065814688802">
        <ele>903.29999999999995</ele>
        <time>2014-09-30T11:33:01Z</time>
      </trkpt>
      <trkpt lat="47.530004130676389" lon="11.284058773890138">
        <ele>903.29999999999995</ele>
        <time>2014-09-30T11:33:04Z</time>
      </trkpt>
      <trkpt lat="47.530053164809942" lon="11.284056259319186">
        <ele>903.29999999999995</ele>
        <time>2014-09-30T11:33:05Z</time>
      </trkpt>
      <trkpt lat="47.530504781752825" lon="11.283984007313848">
        <ele>902.82000000000005</ele>
        <time>2014-09-30T11:33:15Z</time>
      </trkpt>
      <trkpt lat="47.531313886865973" lon="11.284083919599652">
        <ele>902.82000000000005</ele>
        <time>2014-09-30T11:33:30Z</time>
      </trkpt>
      <trkpt lat="47.532020900398493" lon="11.284317607060075">
        <ele>902.82000000000005</ele>
        <time>2014-09-30T11:33:43Z</time>
      </trkpt>
      <trkpt lat="47.532538147643209" lon="11.284565627574921">
        <ele>903.29999999999995</ele>
        <time>2014-09-30T11:33:53Z</time>
      </trkpt>
      <trkpt lat="47.532741827890277" lon="11.28470292314887">
        <ele>902.82000000000005</ele>
        <time>2014-09-30T11:33:57Z</time>
      </trkpt>
      <trkpt lat="47.533253291621804" lon="11.285019926726818">
        <ele>902.33000000000004</ele>
        <time>2014-09-30T11:34:07Z</time>
      </trkpt>
      <trkpt lat="47.533814208582044" lon="11.285228803753853">
        <ele>906.65999999999997</ele>
        <time>2014-09-30T11:34:17Z</time>
      </trkpt>
      <trkpt lat="47.533874223008752" lon="11.285241544246674">
        <ele>900.88999999999999</ele>
        <time>2014-09-30T11:34:18Z</time>
      </trkpt>
      <trkpt lat="47.533933147788048" lon="11.285252943634987">
        <ele>895.61000000000001</ele>
        <time>2014-09-30T11:34:19Z</time>
      </trkpt>
      <trkpt lat="47.533991569653153" lon="11.285266689956188">
        <ele>899.45000000000005</ele>
        <time>2014-09-30T11:34:20Z</time>
      </trkpt>
      <trkpt lat="47.534166248515248" lon="11.285309018567204">
        <ele>898.97000000000003</ele>
        <time>2014-09-30T11:34:23Z</time>
      </trkpt>
      <trkpt lat="47.534228526055813" lon="11.285318322479725">
        <ele>899.45000000000005</ele>
        <time>2014-09-30T11:34:24Z</time>
      </trkpt>
      <trkpt lat="47.534294156357646" lon="11.28532787784934">
        <ele>898.97000000000003</ele>
        <time>2014-09-30T11:34:25Z</time>
      </trkpt>
      <trkpt lat="47.535058250650764" lon="11.285342965275049">
        <ele>895.12</ele>
        <time>2014-09-30T11:34:36Z</time>
      </trkpt>
      <trkpt lat="47.535211388021708" lon="11.285357549786568">
        <ele>888.88</ele>
        <time>2014-09-30T11:34:38Z</time>
      </trkpt>
      <trkpt lat="47.535286657512188" lon="11.285367691889405">
        <ele>890.32000000000005</ele>
        <time>2014-09-30T11:34:39Z</time>
      </trkpt>
      <trkpt lat="47.535361759364605" lon="11.285379342734814">
        <ele>895.61000000000001</ele>
        <time>2014-09-30T11:34:40Z</time>
      </trkpt>
      <trkpt lat="47.53543870523572" lon="11.285391664132476">
        <ele>894.63999999999999</ele>
        <time>2014-09-30T11:34:41Z</time>
      </trkpt>
      <trkpt lat="47.535589076578617" lon="11.285416055470705">
        <ele>893.67999999999995</ele>
        <time>2014-09-30T11:34:43Z</time>
      </trkpt>
      <trkpt lat="47.535736095160246" lon="11.28547104075551">
        <ele>892.72000000000003</ele>
        <time>2014-09-30T11:34:45Z</time>
      </trkpt>
      <trkpt lat="47.535806084051728" lon="11.285518985241652">
        <ele>892.72000000000003</ele>
        <time>2014-09-30T11:34:46Z</time>
      </trkpt>
      <trkpt lat="47.536375718191266" lon="11.285905055701733">
        <ele>889.84000000000003</ele>
        <time>2014-09-30T11:34:54Z</time>
      </trkpt>
      <trkpt lat="47.537153055891395" lon="11.286462619900703">
        <ele>886.47000000000003</ele>
        <time>2014-09-30T11:35:05Z</time>
      </trkpt>
      <trkpt lat="47.537738028913736" lon="11.286912057548761">
        <ele>882.63</ele>
        <time>2014-09-30T11:35:13Z</time>
      </trkpt>
      <trkpt lat="47.538227532058954" lon="11.287245489656925">
        <ele>879.25999999999999</ele>
        <time>2014-09-30T11:35:19Z</time>
      </trkpt>
      <trkpt lat="47.538504805415869" lon="11.287405835464597">
        <ele>874.94000000000005</ele>
        <time>2014-09-30T11:35:22Z</time>
      </trkpt>
      <trkpt lat="47.538806302472949" lon="11.287592332810163">
        <ele>871.09000000000003</ele>
        <time>2014-09-30T11:35:25Z</time>
      </trkpt>
      <trkpt lat="47.539116851985455" lon="11.287789894267917">
        <ele>868.69000000000005</ele>
        <time>2014-09-30T11:35:28Z</time>
      </trkpt>
      <trkpt lat="47.539426311850548" lon="11.287940517067909">
        <ele>865.32000000000005</ele>
        <time>2014-09-30T11:35:31Z</time>
      </trkpt>
      <trkpt lat="47.539826212450862" lon="11.288073789328337">
        <ele>863.88</ele>
        <time>2014-09-30T11:35:35Z</time>
      </trkpt>
      <trkpt lat="47.53991698846221" lon="11.288112513720989">
        <ele>863.39999999999998</ele>
        <time>2014-09-30T11:35:36Z</time>
      </trkpt>
      <trkpt lat="47.540096864104271" lon="11.288213934749365">
        <ele>861.96000000000004</ele>
        <time>2014-09-30T11:35:38Z</time>
      </trkpt>
      <trkpt lat="47.540788957849145" lon="11.288635795935988">
        <ele>859.08000000000004</ele>
        <time>2014-09-30T11:35:46Z</time>
      </trkpt>
      <trkpt lat="47.541152816265821" lon="11.288814833387733">
        <ele>855.71000000000004</ele>
        <time>2014-09-30T11:35:50Z</time>
      </trkpt>
      <trkpt lat="47.541627399623394" lon="11.289131250232458">
        <ele>851.87</ele>
        <time>2014-09-30T11:35:55Z</time>
      </trkpt>
      <trkpt lat="47.542480761185288" lon="11.289393519982696">
        <ele>850.89999999999998</ele>
        <time>2014-09-30T11:36:05Z</time>
      </trkpt>
      <trkpt lat="47.54335449077189" lon="11.289687138050795">
        <ele>850.89999999999998</ele>
        <time>2014-09-30T11:36:19Z</time>
      </trkpt>
      <trkpt lat="47.543678116053343" lon="11.289852596819401">
        <ele>850.41999999999996</ele>
        <time>2014-09-30T11:36:25Z</time>
      </trkpt>
      <trkpt lat="47.543721366673708" lon="11.28982761874795">
        <ele>850.89999999999998</ele>
        <time>2014-09-30T11:36:26Z</time>
      </trkpt>
      <trkpt lat="47.543772580102086" lon="11.289722928777337">
        <ele>850.89999999999998</ele>
        <time>2014-09-30T11:36:28Z</time>
      </trkpt>
      <trkpt lat="47.543891351670027" lon="11.289471052587032">
        <ele>850.89999999999998</ele>
        <time>2014-09-30T11:36:33Z</time>
      </trkpt>
      <trkpt lat="47.543913312256336" lon="11.289323531091213">
        <ele>850.41999999999996</ele>
        <time>2014-09-30T11:36:38Z</time>
      </trkpt>
      <trkpt lat="47.543872408568859" lon="11.288770157843828">
        <ele>850.89999999999998</ele>
        <time>2014-09-30T11:36:47Z</time>
      </trkpt>
      <trkpt lat="47.543932925909758" lon="11.28843697719276">
        <ele>851.87</ele>
        <time>2014-09-30T11:36:53Z</time>
      </trkpt>
      <trkpt lat="47.54398288205266" lon="11.288264645263553">
        <ele>852.35000000000002</ele>
        <time>2014-09-30T11:36:56Z</time>
      </trkpt>
      <trkpt lat="47.544009536504745" lon="11.288214521482587">
        <ele>852.83000000000004</ele>
        <time>2014-09-30T11:36:57Z</time>
      </trkpt>
      <trkpt lat="47.544334754347801" lon="11.287810178473592">
        <ele>853.78999999999996</ele>
        <time>2014-09-30T11:37:08Z</time>
      </trkpt>
      <trkpt lat="47.544374233111739" lon="11.287785032764077">
        <ele>853.30999999999995</ele>
        <time>2014-09-30T11:37:09Z</time>
      </trkpt>
      <trkpt lat="47.544412454590201" lon="11.287765502929688">
        <ele>853.78999999999996</ele>
        <time>2014-09-30T11:37:10Z</time>
      </trkpt>
      <trkpt lat="47.544785784557462" lon="11.287656119093299">
        <ele>855.71000000000004</ele>
        <time>2014-09-30T11:37:19Z</time>
      </trkpt>
      <trkpt lat="47.545112343505025" lon="11.287652933970094">
        <ele>856.19000000000005</ele>
        <time>2014-09-30T11:37:28Z</time>
      </trkpt>
      <trkpt lat="47.545460946857929" lon="11.287480015307665">
        <ele>858.11000000000001</ele>
        <time>2014-09-30T11:37:39Z</time>
      </trkpt>
      <trkpt lat="47.545925052836537" lon="11.287134094163775">
        <ele>859.08000000000004</ele>
        <time>2014-09-30T11:37:52Z</time>
      </trkpt>
      <trkpt lat="47.546150106936693" lon="11.286811893805861">
        <ele>858.11000000000001</ele>
        <time>2014-09-30T11:37:59Z</time>
      </trkpt>
      <trkpt lat="47.546237614005804" lon="11.286738635972142">
        <ele>858.11000000000001</ele>
        <time>2014-09-30T11:38:01Z</time>
      </trkpt>
      <trkpt lat="47.546281451359391" lon="11.286700749769807">
        <ele>857.63</ele>
        <time>2014-09-30T11:38:02Z</time>
      </trkpt>
      <trkpt lat="47.546371724456549" lon="11.286620199680328">
        <ele>857.63</ele>
        <time>2014-09-30T11:38:04Z</time>
      </trkpt>
      <trkpt lat="47.546501811593771" lon="11.286498745903373">
        <ele>857.14999999999998</ele>
        <time>2014-09-30T11:38:07Z</time>
      </trkpt>
      <trkpt lat="47.546643801033497" lon="11.286378130316734">
        <ele>856.19000000000005</ele>
        <time>2014-09-30T11:38:10Z</time>
      </trkpt>
      <trkpt lat="47.546905903145671" lon="11.286180736497045">
        <ele>855.71000000000004</ele>
        <time>2014-09-30T11:38:15Z</time>
      </trkpt>
      <trkpt lat="47.546960720792413" lon="11.286148885264993">
        <ele>855.71000000000004</ele>
        <time>2014-09-30T11:38:16Z</time>
      </trkpt>
      <trkpt lat="47.547017382457852" lon="11.28613798879087">
        <ele>855.23000000000002</ele>
        <time>2014-09-30T11:38:17Z</time>
      </trkpt>
      <trkpt lat="47.547072451561689" lon="11.286150813102722">
        <ele>855.23000000000002</ele>
        <time>2014-09-30T11:38:18Z</time>
      </trkpt>
      <trkpt lat="47.547127017751336" lon="11.286174617707729">
        <ele>854.75</ele>
        <time>2014-09-30T11:38:19Z</time>
      </trkpt>
      <trkpt lat="47.547184014692903" lon="11.28620152361691">
        <ele>854.75</ele>
        <time>2014-09-30T11:38:20Z</time>
      </trkpt>
      <trkpt lat="47.547302870079875" lon="11.286254078149796">
        <ele>854.26999999999998</ele>
        <time>2014-09-30T11:38:22Z</time>
      </trkpt>
      <trkpt lat="47.547366572543979" lon="11.286268243566155">
        <ele>853.78999999999996</ele>
        <time>2014-09-30T11:38:23Z</time>
      </trkpt>
      <trkpt lat="47.547432035207748" lon="11.286276541650295">
        <ele>853.78999999999996</ele>
        <time>2014-09-30T11:38:24Z</time>
      </trkpt>
      <trkpt lat="47.547496911138296" lon="11.2862762901932">
        <ele>853.78999999999996</ele>
        <time>2014-09-30T11:38:25Z</time>
      </trkpt>
      <trkpt lat="47.547562792897224" lon="11.286274027079344">
        <ele>852.83000000000004</ele>
        <time>2014-09-30T11:38:26Z</time>
      </trkpt>
      <trkpt lat="47.548003764823079" lon="11.286197667941451">
        <ele>851.87</ele>
        <time>2014-09-30T11:38:33Z</time>
      </trkpt>
      <trkpt lat="47.548235189169645" lon="11.286093732342124">
        <ele>851.38</ele>
        <time>2014-09-30T11:38:37Z</time>
      </trkpt>
      <trkpt lat="47.548290090635419" lon="11.286073699593544">
        <ele>851.87</ele>
        <time>2014-09-30T11:38:38Z</time>
      </trkpt>
      <trkpt lat="47.548347758129239" lon="11.286062384024262">
        <ele>851.87</ele>
        <time>2014-09-30T11:38:39Z</time>
      </trkpt>
      <trkpt lat="47.548402240499854" lon="11.286062300205231">
        <ele>851.38</ele>
        <time>2014-09-30T11:38:40Z</time>
      </trkpt>
      <trkpt lat="47.548453956842422" lon="11.286070011556149">
        <ele>851.38</ele>
        <time>2014-09-30T11:38:41Z</time>
      </trkpt>
      <trkpt lat="47.548505002632737" lon="11.286079147830606">
        <ele>850.89999999999998</ele>
        <time>2014-09-30T11:38:42Z</time>
      </trkpt>
      <trkpt lat="47.548892246559262" lon="11.286194315180182">
        <ele>848.98000000000002</ele>
        <time>2014-09-30T11:38:49Z</time>
      </trkpt>
      <trkpt lat="47.54894052632153" lon="11.286232871934772">
        <ele>848.98000000000002</ele>
        <time>2014-09-30T11:38:50Z</time>
      </trkpt>
      <trkpt lat="47.548981681466103" lon="11.286285258829594">
        <ele>848.5</ele>
        <time>2014-09-30T11:38:51Z</time>
      </trkpt>
      <trkpt lat="47.549010682851076" lon="11.286360612139106">
        <ele>848.01999999999998</ele>
        <time>2014-09-30T11:38:52Z</time>
      </trkpt>
      <trkpt lat="47.549030045047402" lon="11.286445017904043">
        <ele>848.01999999999998</ele>
        <time>2014-09-30T11:38:53Z</time>
      </trkpt>
      <trkpt lat="47.549048820510507" lon="11.286529256030917">
        <ele>847.53999999999996</ele>
        <time>2014-09-30T11:38:54Z</time>
      </trkpt>
      <trkpt lat="47.549073211848736" lon="11.286604190245271">
        <ele>847.53999999999996</ele>
        <time>2014-09-30T11:38:55Z</time>
      </trkpt>
      <trkpt lat="47.549102548509836" lon="11.28667208366096">
        <ele>847.53999999999996</ele>
        <time>2014-09-30T11:38:56Z</time>
      </trkpt>
      <trkpt lat="47.549137668684125" lon="11.286733439192176">
        <ele>847.53999999999996</ele>
        <time>2014-09-30T11:38:57Z</time>
      </trkpt>
      <trkpt lat="47.549169771373272" lon="11.28678641282022">
        <ele>847.53999999999996</ele>
        <time>2014-09-30T11:38:58Z</time>
      </trkpt>
      <trkpt lat="47.549240849912167" lon="11.286893868818879">
        <ele>847.05999999999995</ele>
        <time>2014-09-30T11:39:00Z</time>
      </trkpt>
      <trkpt lat="47.54928158596158" lon="11.286952877417207">
        <ele>847.53999999999996</ele>
        <time>2014-09-30T11:39:01Z</time>
      </trkpt>
      <trkpt lat="47.549522230401635" lon="11.287331990897655">
        <ele>846.10000000000002</ele>
        <time>2014-09-30T11:39:07Z</time>
      </trkpt>
      <trkpt lat="47.549567576497793" lon="11.287376498803496">
        <ele>845.62</ele>
        <time>2014-09-30T11:39:08Z</time>
      </trkpt>
      <trkpt lat="47.5496138446033" lon="11.287409020587802">
        <ele>846.10000000000002</ele>
        <time>2014-09-30T11:39:09Z</time>
      </trkpt>
      <trkpt lat="47.549694729968905" lon="11.287456378340721">
        <ele>847.05999999999995</ele>
        <time>2014-09-30T11:39:11Z</time>
      </trkpt>
      <trkpt lat="47.549730939790606" lon="11.287481943145394">
        <ele>846.58000000000004</ele>
        <time>2014-09-30T11:39:12Z</time>
      </trkpt>
      <trkpt lat="47.549757678061724" lon="11.287522511556745">
        <ele>846.58000000000004</ele>
        <time>2014-09-30T11:39:13Z</time>
      </trkpt>
      <trkpt lat="47.549782320857048" lon="11.287572467699647">
        <ele>846.10000000000002</ele>
        <time>2014-09-30T11:39:14Z</time>
      </trkpt>
      <trkpt lat="47.549804113805294" lon="11.287626698613167">
        <ele>846.58000000000004</ele>
        <time>2014-09-30T11:39:15Z</time>
      </trkpt>
      <trkpt lat="47.549828169867396" lon="11.287678498774767">
        <ele>846.58000000000004</ele>
        <time>2014-09-30T11:39:16Z</time>
      </trkpt>
      <trkpt lat="47.549858093261719" lon="11.287728790193796">
        <ele>846.10000000000002</ele>
        <time>2014-09-30T11:39:17Z</time>
      </trkpt>
      <trkpt lat="47.549895141273737" lon="11.287776399403811">
        <ele>846.10000000000002</ele>
        <time>2014-09-30T11:39:18Z</time>
      </trkpt>
      <trkpt lat="47.549935122951865" lon="11.287822499871254">
        <ele>845.62</ele>
        <time>2014-09-30T11:39:19Z</time>
      </trkpt>
      <trkpt lat="47.550105191767216" lon="11.288024671375751">
        <ele>844.65999999999997</ele>
        <time>2014-09-30T11:39:23Z</time>
      </trkpt>
      <trkpt lat="47.550143580883741" lon="11.288083763793111">
        <ele>844.65999999999997</ele>
        <time>2014-09-30T11:39:24Z</time>
      </trkpt>
      <trkpt lat="47.550264364108443" lon="11.28826892003417">
        <ele>843.69000000000005</ele>
        <time>2014-09-30T11:39:27Z</time>
      </trkpt>
      <trkpt lat="47.550354301929474" lon="11.288379728794098">
        <ele>843.69000000000005</ele>
        <time>2014-09-30T11:39:29Z</time>
      </trkpt>
      <trkpt lat="47.550403671339154" lon="11.288428762927651">
        <ele>843.21000000000004</ele>
        <time>2014-09-30T11:39:30Z</time>
      </trkpt>
      <trkpt lat="47.550454633310437" lon="11.288470253348351">
        <ele>843.21000000000004</ele>
        <time>2014-09-30T11:39:31Z</time>
      </trkpt>
      <trkpt lat="47.550507858395576" lon="11.288502272218466">
        <ele>843.21000000000004</ele>
        <time>2014-09-30T11:39:32Z</time>
      </trkpt>
      <trkpt lat="47.550562005490065" lon="11.288526244461536">
        <ele>843.21000000000004</ele>
        <time>2014-09-30T11:39:33Z</time>
      </trkpt>
      <trkpt lat="47.551207495853305" lon="11.288836626335979">
        <ele>842.73000000000002</ele>
        <time>2014-09-30T11:39:46Z</time>
      </trkpt>
      <trkpt lat="47.551454594358802" lon="11.289022620767355">
        <ele>842.73000000000002</ele>
        <time>2014-09-30T11:39:51Z</time>
      </trkpt>
      <trkpt lat="47.551848124712706" lon="11.289235102012753">
        <ele>840.33000000000004</ele>
        <time>2014-09-30T11:39:58Z</time>
      </trkpt>
      <trkpt lat="47.55267608910799" lon="11.289486056193709">
        <ele>839.37</ele>
        <time>2014-09-30T11:40:11Z</time>
      </trkpt>
      <trkpt lat="47.553247315809131" lon="11.289581442251801">
        <ele>838.40999999999997</ele>
        <time>2014-09-30T11:40:20Z</time>
      </trkpt>
      <trkpt lat="47.55337773822248" lon="11.289566271007061">
        <ele>837.45000000000005</ele>
        <time>2014-09-30T11:40:22Z</time>
      </trkpt>
      <trkpt lat="47.55344370380044" lon="11.289540035650134">
        <ele>837.45000000000005</ele>
        <time>2014-09-30T11:40:23Z</time>
      </trkpt>
      <trkpt lat="47.553508998826146" lon="11.289507430046797">
        <ele>836.48000000000002</ele>
        <time>2014-09-30T11:40:24Z</time>
      </trkpt>
      <trkpt lat="47.553640259429812" lon="11.289445152506232">
        <ele>835.51999999999998</ele>
        <time>2014-09-30T11:40:26Z</time>
      </trkpt>
      <trkpt lat="47.55370220169425" lon="11.28943576477468">
        <ele>835.03999999999996</ele>
        <time>2014-09-30T11:40:27Z</time>
      </trkpt>
      <trkpt lat="47.553764311596751" lon="11.289438446983695">
        <ele>836</ele>
        <time>2014-09-30T11:40:28Z</time>
      </trkpt>
      <trkpt lat="47.553824661299586" lon="11.289448169991374">
        <ele>836</ele>
        <time>2014-09-30T11:40:29Z</time>
      </trkpt>
      <trkpt lat="47.553883669897914" lon="11.289465185254812">
        <ele>836</ele>
        <time>2014-09-30T11:40:30Z</time>
      </trkpt>
      <trkpt lat="47.554366551339626" lon="11.28967959433794">
        <ele>836</ele>
        <time>2014-09-30T11:40:38Z</time>
      </trkpt>
      <trkpt lat="47.55443268455565" lon="11.289690406993032">
        <ele>835.51999999999998</ele>
        <time>2014-09-30T11:40:39Z</time>
      </trkpt>
      <trkpt lat="47.555042300373316" lon="11.289755282923579">
        <ele>834.08000000000004</ele>
        <time>2014-09-30T11:40:48Z</time>
      </trkpt>
      <trkpt lat="47.555102063342929" lon="11.289755031466484">
        <ele>833.60000000000002</ele>
        <time>2014-09-30T11:40:49Z</time>
      </trkpt>
      <trkpt lat="47.555161910131574" lon="11.289766598492861">
        <ele>833.60000000000002</ele>
        <time>2014-09-30T11:40:50Z</time>
      </trkpt>
      <trkpt lat="47.555215805768967" lon="11.2897939234972">
        <ele>834.08000000000004</ele>
        <time>2014-09-30T11:40:51Z</time>
      </trkpt>
      <trkpt lat="47.555265007540584" lon="11.289836755022407">
        <ele>834.08000000000004</ele>
        <time>2014-09-30T11:40:52Z</time>
      </trkpt>
      <trkpt lat="47.555314293131232" lon="11.289877826347947">
        <ele>834.08000000000004</ele>
        <time>2014-09-30T11:40:53Z</time>
      </trkpt>
      <trkpt lat="47.555369529873133" lon="11.289908085018396">
        <ele>834.55999999999995</ele>
        <time>2014-09-30T11:40:54Z</time>
      </trkpt>
      <trkpt lat="47.555427700281143" lon="11.289926944300532">
        <ele>834.08000000000004</ele>
        <time>2014-09-30T11:40:55Z</time>
      </trkpt>
      <trkpt lat="47.555486038327217" lon="11.289940606802702">
        <ele>833.60000000000002</ele>
        <time>2014-09-30T11:40:56Z</time>
      </trkpt>
      <trkpt lat="47.555543873459101" lon="11.28996248356998">
        <ele>833.60000000000002</ele>
        <time>2014-09-30T11:40:57Z</time>
      </trkpt>
      <trkpt lat="47.555601457133889" lon="11.289994418621063">
        <ele>833.60000000000002</ele>
        <time>2014-09-30T11:40:58Z</time>
      </trkpt>
      <trkpt lat="47.555712265893817" lon="11.290050242096186">
        <ele>833.60000000000002</ele>
        <time>2014-09-30T11:41:00Z</time>
      </trkpt>
      <trkpt lat="47.555772196501493" lon="11.290061557665467">
        <ele>834.55999999999995</ele>
        <time>2014-09-30T11:41:01Z</time>
      </trkpt>
      <trkpt lat="47.55594746209681" lon="11.290077567100525">
        <ele>833.60000000000002</ele>
        <time>2014-09-30T11:41:04Z</time>
      </trkpt>
      <trkpt lat="47.556009320542216" lon="11.29008125513792">
        <ele>833.12</ele>
        <time>2014-09-30T11:41:05Z</time>
      </trkpt>
      <trkpt lat="47.556066149845719" lon="11.290094750002027">
        <ele>833.60000000000002</ele>
        <time>2014-09-30T11:41:06Z</time>
      </trkpt>
      <trkpt lat="47.556117614731193" lon="11.290109250694513">
        <ele>833.12</ele>
        <time>2014-09-30T11:41:07Z</time>
      </trkpt>
      <trkpt lat="47.556170001626015" lon="11.29012425430119">
        <ele>833.60000000000002</ele>
        <time>2014-09-30T11:41:08Z</time>
      </trkpt>
      <trkpt lat="47.556220209226012" lon="11.290149232372642">
        <ele>833.60000000000002</ele>
        <time>2014-09-30T11:41:09Z</time>
      </trkpt>
      <trkpt lat="47.556271674111485" lon="11.290168343111873">
        <ele>833.12</ele>
        <time>2014-09-30T11:41:10Z</time>
      </trkpt>
      <trkpt lat="47.556324144825339" lon="11.290169097483158">
        <ele>833.60000000000002</ele>
        <time>2014-09-30T11:41:11Z</time>
      </trkpt>
      <trkpt lat="47.556374603882432" lon="11.290153339505196">
        <ele>833.12</ele>
        <time>2014-09-30T11:41:12Z</time>
      </trkpt>
      <trkpt lat="47.556421710178256" lon="11.290121152997017">
        <ele>833.12</ele>
        <time>2014-09-30T11:41:13Z</time>
      </trkpt>
      <trkpt lat="47.556460266932845" lon="11.290072202682495">
        <ele>833.12</ele>
        <time>2014-09-30T11:41:14Z</time>
      </trkpt>
      <trkpt lat="47.556492872536182" lon="11.290014032274485">
        <ele>833.60000000000002</ele>
        <time>2014-09-30T11:41:15Z</time>
      </trkpt>
      <trkpt lat="47.55652061663568" lon="11.289950665086508">
        <ele>833.12</ele>
        <time>2014-09-30T11:41:16Z</time>
      </trkpt>
      <trkpt lat="47.55662078037858" lon="11.289729885756969">
        <ele>833.12</ele>
        <time>2014-09-30T11:41:19Z</time>
      </trkpt>
      <trkpt lat="47.556667719036341" lon="11.289663836359978">
        <ele>833.12</ele>
        <time>2014-09-30T11:41:20Z</time>
      </trkpt>
      <trkpt lat="47.556721614673734" lon="11.289614383131266">
        <ele>833.12</ele>
        <time>2014-09-30T11:41:21Z</time>
      </trkpt>
      <trkpt lat="47.556885899975896" lon="11.28948706202209">
        <ele>833.60000000000002</ele>
        <time>2014-09-30T11:41:24Z</time>
      </trkpt>
      <trkpt lat="47.556984974071383" lon="11.289414558559656">
        <ele>833.60000000000002</ele>
        <time>2014-09-30T11:41:26Z</time>
      </trkpt>
      <trkpt lat="47.557128304615617" lon="11.289333840832114">
        <ele>833.60000000000002</ele>
        <time>2014-09-30T11:41:29Z</time>
      </trkpt>
      <trkpt lat="47.557441452518106" lon="11.289227642118931">
        <ele>830.24000000000001</ele>
        <time>2014-09-30T11:41:35Z</time>
      </trkpt>
      <trkpt lat="47.557486463338137" lon="11.289237951859832">
        <ele>829.75999999999999</ele>
        <time>2014-09-30T11:41:36Z</time>
      </trkpt>
      <trkpt lat="47.557530971243978" lon="11.289274329319596">
        <ele>829.75999999999999</ele>
        <time>2014-09-30T11:41:37Z</time>
      </trkpt>
      <trkpt lat="47.55762099288404" lon="11.289357477799058">
        <ele>829.26999999999998</ele>
        <time>2014-09-30T11:41:39Z</time>
      </trkpt>
      <trkpt lat="47.557670529931784" lon="11.289379773661494">
        <ele>828.78999999999996</ele>
        <time>2014-09-30T11:41:40Z</time>
      </trkpt>
      <trkpt lat="47.557724844664335" lon="11.289386395365">
        <ele>828.78999999999996</ele>
        <time>2014-09-30T11:41:41Z</time>
      </trkpt>
      <trkpt lat="47.557781003415585" lon="11.289378181099892">
        <ele>828.30999999999995</ele>
        <time>2014-09-30T11:41:42Z</time>
      </trkpt>
      <trkpt lat="47.55783649161458" lon="11.289364770054817">
        <ele>828.78999999999996</ele>
        <time>2014-09-30T11:41:43Z</time>
      </trkpt>
      <trkpt lat="47.558327252045274" lon="11.289448840543628">
        <ele>826.87</ele>
        <time>2014-09-30T11:41:52Z</time>
      </trkpt>
      <trkpt lat="47.558376537635922" lon="11.289482535794377">
        <ele>826.87</ele>
        <time>2014-09-30T11:41:53Z</time>
      </trkpt>
      <trkpt lat="47.558422219008207" lon="11.289524361491203">
        <ele>826.87</ele>
        <time>2014-09-30T11:41:54Z</time>
      </trkpt>
      <trkpt lat="47.558464044705033" lon="11.289574401453137">
        <ele>826.87</ele>
        <time>2014-09-30T11:41:55Z</time>
      </trkpt>
      <trkpt lat="47.558501427993178" lon="11.28963366150856">
        <ele>826.38999999999999</ele>
        <time>2014-09-30T11:41:56Z</time>
      </trkpt>
      <trkpt lat="47.558531183749437" lon="11.289702309295535">
        <ele>826.87</ele>
        <time>2014-09-30T11:41:57Z</time>
      </trkpt>
      <trkpt lat="47.558558005839586" lon="11.289775734767318">
        <ele>826.87</ele>
        <time>2014-09-30T11:41:58Z</time>
      </trkpt>
      <trkpt lat="47.558582061901689" lon="11.289853602647781">
        <ele>826.38999999999999</ele>
        <time>2014-09-30T11:41:59Z</time>
      </trkpt>
      <trkpt lat="47.558599580079317" lon="11.289934488013387">
        <ele>826.38999999999999</ele>
        <time>2014-09-30T11:42:00Z</time>
      </trkpt>
      <trkpt lat="47.558667724952102" lon="11.290492052212358">
        <ele>826.38999999999999</ele>
        <time>2014-09-30T11:42:07Z</time>
      </trkpt>
      <trkpt lat="47.558681135997176" lon="11.290559358894825">
        <ele>825.42999999999995</ele>
        <time>2014-09-30T11:42:08Z</time>
      </trkpt>
      <trkpt lat="47.558701084926724" lon="11.290620798245072">
        <ele>825.90999999999997</ele>
        <time>2014-09-30T11:42:09Z</time>
      </trkpt>
      <trkpt lat="47.558734528720379" lon="11.290678717195988">
        <ele>826.38999999999999</ele>
        <time>2014-09-30T11:42:10Z</time>
      </trkpt>
      <trkpt lat="47.558782724663615" lon="11.290731271728873">
        <ele>825.90999999999997</ele>
        <time>2014-09-30T11:42:11Z</time>
      </trkpt>
      <trkpt lat="47.558838548138738" lon="11.290779048576951">
        <ele>825.90999999999997</ele>
        <time>2014-09-30T11:42:12Z</time>
      </trkpt>
      <trkpt lat="47.558899149298668" lon="11.290817186236382">
        <ele>825.42999999999995</ele>
        <time>2014-09-30T11:42:13Z</time>
      </trkpt>
      <trkpt lat="47.558960504829884" lon="11.290850127115846">
        <ele>825.90999999999997</ele>
        <time>2014-09-30T11:42:14Z</time>
      </trkpt>
      <trkpt lat="47.559019848704338" lon="11.290884325280786">
        <ele>825.90999999999997</ele>
        <time>2014-09-30T11:42:15Z</time>
      </trkpt>
      <trkpt lat="47.559077013283968" lon="11.290913075208664">
        <ele>825.42999999999995</ele>
        <time>2014-09-30T11:42:16Z</time>
      </trkpt>
      <trkpt lat="47.559186816215515" lon="11.290976190939546">
        <ele>824.95000000000005</ele>
        <time>2014-09-30T11:42:18Z</time>
      </trkpt>
      <trkpt lat="47.559479847550392" lon="11.291193785145879">
        <ele>824.95000000000005</ele>
        <time>2014-09-30T11:42:23Z</time>
      </trkpt>
      <trkpt lat="47.559588477015495" lon="11.291304090991616">
        <ele>824.47000000000003</ele>
        <time>2014-09-30T11:42:25Z</time>
      </trkpt>
      <trkpt lat="47.559684449806809" lon="11.29144205711782">
        <ele>824.47000000000003</ele>
        <time>2014-09-30T11:42:27Z</time>
      </trkpt>
      <trkpt lat="47.55972258746624" lon="11.291519338265061">
        <ele>823.99000000000001</ele>
        <time>2014-09-30T11:42:28Z</time>
      </trkpt>
      <trkpt lat="47.559747900813818" lon="11.291600055992603">
        <ele>824.47000000000003</ele>
        <time>2014-09-30T11:42:29Z</time>
      </trkpt>
      <trkpt lat="47.559770531952381" lon="11.291777333244681">
        <ele>823.99000000000001</ele>
        <time>2014-09-30T11:42:31Z</time>
      </trkpt>
      <trkpt lat="47.559772878885269" lon="11.292143119499087">
        <ele>823.50999999999999</ele>
        <time>2014-09-30T11:42:35Z</time>
      </trkpt>
      <trkpt lat="47.559778410941362" lon="11.292290892452002">
        <ele>823.50999999999999</ele>
        <time>2014-09-30T11:42:37Z</time>
      </trkpt>
      <trkpt lat="47.559797605499625" lon="11.292751394212246">
        <ele>823.50999999999999</ele>
        <time>2014-09-30T11:42:42Z</time>
      </trkpt>
      <trkpt lat="47.559812944382429" lon="11.292838901281357">
        <ele>823.50999999999999</ele>
        <time>2014-09-30T11:42:43Z</time>
      </trkpt>
      <trkpt lat="47.559832641854882" lon="11.29291626624763">
        <ele>823.02999999999997</ele>
        <time>2014-09-30T11:42:44Z</time>
      </trkpt>
      <trkpt lat="47.55985401570797" lon="11.292988937348127">
        <ele>823.02999999999997</ele>
        <time>2014-09-30T11:42:45Z</time>
      </trkpt>
      <trkpt lat="47.559875221922994" lon="11.293059764429927">
        <ele>823.50999999999999</ele>
        <time>2014-09-30T11:42:46Z</time>
      </trkpt>
      <trkpt lat="47.559818224981427" lon="11.293491013348103">
        <ele>824.47000000000003</ele>
        <time>2014-09-30T11:42:53Z</time>
      </trkpt>
      <trkpt lat="47.559799198061228" lon="11.29359545186162">
        <ele>825.42999999999995</ele>
        <time>2014-09-30T11:42:55Z</time>
      </trkpt>
      <trkpt lat="47.560050403699279" lon="11.293901894241571">
        <ele>827.35000000000002</ele>
        <time>2014-09-30T11:43:04Z</time>
      </trkpt>
      <trkpt lat="47.560323234647512" lon="11.294020414352417">
        <ele>827.35000000000002</ele>
        <time>2014-09-30T11:43:10Z</time>
      </trkpt>
      <trkpt lat="47.560687009245157" lon="11.294171791523695">
        <ele>825.42999999999995</ele>
        <time>2014-09-30T11:43:17Z</time>
      </trkpt>
      <trkpt lat="47.561401315033436" lon="11.294525843113661">
        <ele>825.90999999999997</ele>
        <time>2014-09-30T11:43:30Z</time>
      </trkpt>
      <trkpt lat="47.561936667189002" lon="11.294812755659223">
        <ele>824.47000000000003</ele>
        <time>2014-09-30T11:43:40Z</time>
      </trkpt>
      <trkpt lat="47.56260747089982" lon="11.295131603255868">
        <ele>822.54999999999995</ele>
        <time>2014-09-30T11:43:52Z</time>
      </trkpt>
      <trkpt lat="47.563594188541174" lon="11.295340480282903">
        <ele>819.65999999999997</ele>
        <time>2014-09-30T11:44:07Z</time>
      </trkpt>
      <trkpt lat="47.563894847407937" lon="11.295424718409777">
        <ele>819.17999999999995</ele>
        <time>2014-09-30T11:44:12Z</time>
      </trkpt>
      <trkpt lat="47.564024515450001" lon="11.295182900503278">
        <ele>819.17999999999995</ele>
        <time>2014-09-30T11:44:18Z</time>
      </trkpt>
      <trkpt lat="47.564093247056007" lon="11.294973604381084">
        <ele>819.17999999999995</ele>
        <time>2014-09-30T11:44:21Z</time>
      </trkpt>
      <trkpt lat="47.564554419368505" lon="11.294077327474952">
        <ele>819.17999999999995</ele>
        <time>2014-09-30T11:44:34Z</time>
      </trkpt>
      <trkpt lat="47.564710741862655" lon="11.293855793774128">
        <ele>820.13999999999999</ele>
        <time>2014-09-30T11:44:38Z</time>
      </trkpt>
      <trkpt lat="47.564755249768496" lon="11.293818997219205">
        <ele>820.13999999999999</ele>
        <time>2014-09-30T11:44:39Z</time>
      </trkpt>
      <trkpt lat="47.56480579264462" lon="11.29380851984024">
        <ele>819.65999999999997</ele>
        <time>2014-09-30T11:44:40Z</time>
      </trkpt>
      <trkpt lat="47.564859017729759" lon="11.293820841237903">
        <ele>819.65999999999997</ele>
        <time>2014-09-30T11:44:41Z</time>
      </trkpt>
      <trkpt lat="47.564910566434264" lon="11.293844394385815">
        <ele>820.13999999999999</ele>
        <time>2014-09-30T11:44:42Z</time>
      </trkpt>
      <trkpt lat="47.564959768205881" lon="11.293874904513359">
        <ele>820.13999999999999</ele>
        <time>2014-09-30T11:44:43Z</time>
      </trkpt>
      <trkpt lat="47.565007545053959" lon="11.293910862877965">
        <ele>820.13999999999999</ele>
        <time>2014-09-30T11:44:44Z</time>
      </trkpt>
      <trkpt lat="47.565755378454924" lon="11.294550402089953">
        <ele>819.17999999999995</ele>
        <time>2014-09-30T11:45:00Z</time>
      </trkpt>
      <trkpt lat="47.565854955464602" lon="11.294622486457229">
        <ele>818.70000000000005</ele>
        <time>2014-09-30T11:45:02Z</time>
      </trkpt>
      <trkpt lat="47.565907426178455" lon="11.294651236385107">
        <ele>818.70000000000005</ele>
        <time>2014-09-30T11:45:03Z</time>
      </trkpt>
      <trkpt lat="47.56596190854907" lon="11.29467336460948">
        <ele>818.70000000000005</ele>
        <time>2014-09-30T11:45:04Z</time>
      </trkpt>
      <trkpt lat="47.5660156365484" lon="11.294688368216157">
        <ele>818.70000000000005</ele>
        <time>2014-09-30T11:45:05Z</time>
      </trkpt>
      <trkpt lat="47.566069029271603" lon="11.294694822281599">
        <ele>818.22000000000003</ele>
        <time>2014-09-30T11:45:06Z</time>
      </trkpt>
      <trkpt lat="47.566124936565757" lon="11.294693229719996">
        <ele>818.22000000000003</ele>
        <time>2014-09-30T11:45:07Z</time>
      </trkpt>
      <trkpt lat="47.566178999841213" lon="11.294685015454888">
        <ele>818.22000000000003</ele>
        <time>2014-09-30T11:45:08Z</time>
      </trkpt>
      <trkpt lat="47.566400784999132" lon="11.294636987149715">
        <ele>818.22000000000003</ele>
        <time>2014-09-30T11:45:12Z</time>
      </trkpt>
      <trkpt lat="47.56645736284554" lon="11.29464453086257">
        <ele>818.22000000000003</ele>
        <time>2014-09-30T11:45:13Z</time>
      </trkpt>
      <trkpt lat="47.566508492454886" lon="11.294677136465907">
        <ele>817.74000000000001</ele>
        <time>2014-09-30T11:45:14Z</time>
      </trkpt>
      <trkpt lat="47.566553670912981" lon="11.294727427884936">
        <ele>818.22000000000003</ele>
        <time>2014-09-30T11:45:15Z</time>
      </trkpt>
      <trkpt lat="47.56658929400146" lon="11.294792303815484">
        <ele>818.22000000000003</ele>
        <time>2014-09-30T11:45:16Z</time>
      </trkpt>
      <trkpt lat="47.566616199910641" lon="11.294864136725664">
        <ele>818.22000000000003</ele>
        <time>2014-09-30T11:45:17Z</time>
      </trkpt>
      <trkpt lat="47.566641345620155" lon="11.294939070940018">
        <ele>817.74000000000001</ele>
        <time>2014-09-30T11:45:18Z</time>
      </trkpt>
      <trkpt lat="47.56666355766356" lon="11.295017022639513">
        <ele>817.74000000000001</ele>
        <time>2014-09-30T11:45:19Z</time>
      </trkpt>
      <trkpt lat="47.566698510199785" lon="11.295181894674897">
        <ele>818.22000000000003</ele>
        <time>2014-09-30T11:45:21Z</time>
      </trkpt>
      <trkpt lat="47.566714016720653" lon="11.295440392568707">
        <ele>817.74000000000001</ele>
        <time>2014-09-30T11:45:24Z</time>
      </trkpt>
      <trkpt lat="47.566784676164389" lon="11.2963024713099">
        <ele>816.77999999999997</ele>
        <time>2014-09-30T11:45:34Z</time>
      </trkpt>
      <trkpt lat="47.56693814881146" lon="11.296589802950621">
        <ele>816.77999999999997</ele>
        <time>2014-09-30T11:45:38Z</time>
      </trkpt>
      <trkpt lat="47.567777764052153" lon="11.297328164801002">
        <ele>816.29999999999995</ele>
        <time>2014-09-30T11:45:54Z</time>
      </trkpt>
      <trkpt lat="47.56840649060905" lon="11.297549782320857">
        <ele>815.82000000000005</ele>
        <time>2014-09-30T11:46:05Z</time>
      </trkpt>
      <trkpt lat="47.568775378167629" lon="11.297528743743896">
        <ele>815.34000000000003</ele>
        <time>2014-09-30T11:46:11Z</time>
      </trkpt>
      <trkpt lat="47.569111073389649" lon="11.297799646854401">
        <ele>815.34000000000003</ele>
        <time>2014-09-30T11:46:18Z</time>
      </trkpt>
      <trkpt lat="47.569261025637388" lon="11.298143723979592">
        <ele>815.34000000000003</ele>
        <time>2014-09-30T11:46:23Z</time>
      </trkpt>
      <trkpt lat="47.569299750030041" lon="11.298340950161219">
        <ele>815.34000000000003</ele>
        <time>2014-09-30T11:46:26Z</time>
      </trkpt>
      <trkpt lat="47.569481553509831" lon="11.298765828832984">
        <ele>814.37</ele>
        <time>2014-09-30T11:46:33Z</time>
      </trkpt>
      <trkpt lat="47.569807106629014" lon="11.299332194030285">
        <ele>814.37</ele>
        <time>2014-09-30T11:46:42Z</time>
      </trkpt>
      <trkpt lat="47.570184376090765" lon="11.299991263076663">
        <ele>813.88999999999999</ele>
        <time>2014-09-30T11:46:53Z</time>
      </trkpt>
      <trkpt lat="47.570524597540498" lon="11.300652595236897">
        <ele>813.40999999999997</ele>
        <time>2014-09-30T11:47:04Z</time>
      </trkpt>
      <trkpt lat="47.570639261975884" lon="11.300878236070275">
        <ele>813.40999999999997</ele>
        <time>2014-09-30T11:47:08Z</time>
      </trkpt>
      <trkpt lat="47.57072257809341" lon="11.301178894937038">
        <ele>812.92999999999995</ele>
        <time>2014-09-30T11:47:12Z</time>
      </trkpt>
      <trkpt lat="47.570749400183558" lon="11.301344688981771">
        <ele>812.45000000000005</ele>
        <time>2014-09-30T11:47:14Z</time>
      </trkpt>
      <trkpt lat="47.570765158161521" lon="11.301742326468229">
        <ele>812.45000000000005</ele>
        <time>2014-09-30T11:47:19Z</time>
      </trkpt>
      <trkpt lat="47.570738419890404" lon="11.30190409719944">
        <ele>811.97000000000003</ele>
        <time>2014-09-30T11:47:21Z</time>
      </trkpt>
      <trkpt lat="47.570626521483064" lon="11.30219729617238">
        <ele>811.97000000000003</ele>
        <time>2014-09-30T11:47:25Z</time>
      </trkpt>
      <trkpt lat="47.570540858432651" lon="11.302408268675208">
        <ele>811.97000000000003</ele>
        <time>2014-09-30T11:47:28Z</time>
      </trkpt>
      <trkpt lat="47.57048025727272" lon="11.302633238956332">
        <ele>811.97000000000003</ele>
        <time>2014-09-30T11:47:31Z</time>
      </trkpt>
      <trkpt lat="47.570519400760531" lon="11.303290212526917">
        <ele>811.97000000000003</ele>
        <time>2014-09-30T11:47:39Z</time>
      </trkpt>
      <trkpt lat="47.570931622758508" lon="11.304377596825361">
        <ele>811.49000000000001</ele>
        <time>2014-09-30T11:47:55Z</time>
      </trkpt>
      <trkpt lat="47.571227671578526" lon="11.304829129949212">
        <ele>813.40999999999997</ele>
        <time>2014-09-30T11:48:06Z</time>
      </trkpt>
      <trkpt lat="47.571263965219259" lon="11.304847402498126">
        <ele>813.40999999999997</ele>
        <time>2014-09-30T11:48:07Z</time>
      </trkpt>
      <trkpt lat="47.571826642379165" lon="11.304995846003294">
        <ele>816.29999999999995</ele>
        <time>2014-09-30T11:48:22Z</time>
      </trkpt>
      <trkpt lat="47.572235092520714" lon="11.304988134652376">
        <ele>818.22000000000003</ele>
        <time>2014-09-30T11:48:34Z</time>
      </trkpt>
      <trkpt lat="47.572659803554416" lon="11.3045983761549">
        <ele>821.10000000000002</ele>
        <time>2014-09-30T11:48:50Z</time>
      </trkpt>
      <trkpt lat="47.572748232632875" lon="11.3040164206177">
        <ele>823.50999999999999</ele>
        <time>2014-09-30T11:49:04Z</time>
      </trkpt>
      <trkpt lat="47.572715375572443" lon="11.303857583552599">
        <ele>824.47000000000003</ele>
        <time>2014-09-30T11:49:08Z</time>
      </trkpt>
      <trkpt lat="47.57257497869432" lon="11.303716516122222">
        <ele>824.47000000000003</ele>
        <time>2014-09-30T11:49:15Z</time>
      </trkpt>
      <trkpt lat="47.572471294552088" lon="11.303860433399677">
        <ele>825.42999999999995</ele>
        <time>2014-09-30T11:49:26Z</time>
      </trkpt>
      <trkpt lat="47.572471294552088" lon="11.303860433399677">
        <ele>826.87</ele>
        <time>2014-09-30T11:49:34Z</time>
      </trkpt>
      <trkpt lat="47.572471294552088" lon="11.303860433399677">
        <ele>830.24000000000001</ele>
        <time>2014-09-30T11:49:36Z</time>
      </trkpt>
      <trkpt lat="47.572471294552088" lon="11.303860433399677">
        <ele>822.05999999999995</ele>
        <time>2014-09-30T11:49:37Z</time>
      </trkpt>
      <trkpt lat="47.572471294552088" lon="11.303860433399677">
        <ele>825.42999999999995</ele>
        <time>2014-09-30T11:49:38Z</time>
      </trkpt>
      <trkpt lat="47.572471294552088" lon="11.303860433399677">
        <ele>828.78999999999996</ele>
        <time>2014-09-30T11:49:53Z</time>
      </trkpt>
      <trkpt lat="47.572471294552088" lon="11.303860433399677">
        <ele>819.65999999999997</ele>
        <time>2014-09-30T11:49:54Z</time>
      </trkpt>
      <trkpt lat="47.572471294552088" lon="11.303860433399677">
        <ele>826.38999999999999</ele>
        <time>2014-09-30T11:49:55Z</time>
      </trkpt>
      <trkpt lat="47.572470707818866" lon="11.303860265761614">
        <ele>825.42999999999995</ele>
        <time>2014-09-30T11:50:22Z</time>
      </trkpt>
      <trkpt lat="47.572470707818866" lon="11.303860265761614">
        <ele>818.70000000000005</ele>
        <time>2014-09-30T11:50:27Z</time>
      </trkpt>
      <trkpt lat="47.572470707818866" lon="11.303860265761614">
        <ele>827.35000000000002</ele>
        <time>2014-09-30T11:50:28Z</time>
      </trkpt>
      <trkpt lat="47.572470707818866" lon="11.303860265761614">
        <ele>826.38999999999999</ele>
        <time>2014-09-30T11:50:29Z</time>
      </trkpt>
      <trkpt lat="47.572470707818866" lon="11.303860265761614">
        <ele>822.05999999999995</ele>
        <time>2014-09-30T11:50:34Z</time>
      </trkpt>
      <trkpt lat="47.572470707818866" lon="11.303860265761614">
        <ele>825.42999999999995</ele>
        <time>2014-09-30T11:50:35Z</time>
      </trkpt>
      <trkpt lat="47.572470707818866" lon="11.303860265761614">
        <ele>828.78999999999996</ele>
        <time>2014-09-30T11:50:39Z</time>
      </trkpt>
      <trkpt lat="47.572470707818866" lon="11.303860265761614">
        <ele>823.02999999999997</ele>
        <time>2014-09-30T11:50:40Z</time>
      </trkpt>
      <trkpt lat="47.572470707818866" lon="11.303860265761614">
        <ele>825.90999999999997</ele>
        <time>2014-09-30T11:50:41Z</time>
      </trkpt>
      <trkpt lat="47.572474479675293" lon="11.303863786160946">
        <ele>821.10000000000002</ele>
        <time>2014-09-30T11:50:45Z</time>
      </trkpt>
      <trkpt lat="47.572474479675293" lon="11.303863786160946">
        <ele>825.90999999999997</ele>
        <time>2014-09-30T11:50:46Z</time>
      </trkpt>
      <trkpt lat="47.572474479675293" lon="11.303863786160946">
        <ele>825.90999999999997</ele>
        <time>2014-09-30T11:50:47Z</time>
      </trkpt>
      <trkpt lat="47.572474479675293" lon="11.303863786160946">
        <ele>818.22000000000003</ele>
        <time>2014-09-30T11:50:55Z</time>
      </trkpt>
      <trkpt lat="47.572474479675293" lon="11.303863786160946">
        <ele>825.90999999999997</ele>
        <time>2014-09-30T11:50:56Z</time>
      </trkpt>
      <trkpt lat="47.572474479675293" lon="11.303863786160946">
        <ele>821.10000000000002</ele>
        <time>2014-09-30T11:51:00Z</time>
      </trkpt>
      <trkpt lat="47.572474479675293" lon="11.303863786160946">
        <ele>825.90999999999997</ele>
        <time>2014-09-30T11:51:01Z</time>
      </trkpt>
      <trkpt lat="47.572474479675293" lon="11.303863786160946">
        <ele>819.17999999999995</ele>
        <time>2014-09-30T11:51:05Z</time>
      </trkpt>
      <trkpt lat="47.572474479675293" lon="11.303863786160946">
        <ele>819.65999999999997</ele>
        <time>2014-09-30T11:51:06Z</time>
      </trkpt>
      <trkpt lat="47.572474479675293" lon="11.303863786160946">
        <ele>825.42999999999995</ele>
        <time>2014-09-30T11:51:08Z</time>
      </trkpt>
      <trkpt lat="47.572474479675293" lon="11.303863786160946">
        <ele>830.24000000000001</ele>
        <time>2014-09-30T11:51:10Z</time>
      </trkpt>
    </trkseg>
  </trk>

</gpx>